[[{"header":{"parameterUnit":"m.s-1","parameterCategory":1,"la1":31.0,"la2":29.5877,"lo1":-88.7671,"lo2":-86.6584,"dy":0.0162,"dx":0.0185,"nx":115,"ny":88,"refTime":"2024-04-15T00:00:00:Z","depth":0,"parameterNumber":2,"parameterNumberName":"U-component_of_WINDS"},"data":[0.0,0.0,0.0,0.0,0.0,0.0,0.0,0.0,0.0,0.0,0.0,0.0,0.0,0.0,0.0,0.0,0.0,0.0,0.0,0.0,0.0,0.0,0.0,0.0,0.0,0.0,0.0,0.0,0.0,0.0,0.0,0.0,0.0,0.0,0.0,0.0,0.0,0.0,0.0,0.0,0.0,0.0,0.0,0.0,0.0,0.0,0.0,0.0,0.0,0.0,0.0,0.0,0.0,0.0,0.0,0.0,0.0,0.0,0.0,0.0,0.0,0.0,0.0,0.0,0.0,0.0,0.0,0.0,0.0,0.0,0.0,0.0,0.0,0.0,0.0,0.0,0.0,0.0,0.0,0.0,0.0,0.0,0.0,0.0,0.0,0.0,0.0,0.0,0.0,0.0,0.0,0.0,0.0,0.0,0.0,0.0,0.0,0.0,0.0,0.0,0.0,0.0,0.0,0.0,0.0,0.0,0.0,0.0,0.0,0.0,0.0,0.0,0.0,0.0,0.0,0.0,0.0,0.0,0.0,0.0,0.0,0.0,0.0,0.0,0.0,0.0,0.0,0.0,0.0,0.0,0.0,0.0,0.0,0.0,0.0,0.0,0.0,0.0,0.0,0.0,0.0,0.0,0.0,0.0,0.0,0.0,0.0,0.0,0.0,0.0,0.0,0.0,0.0,0.0,0.0,0.0,0.0,0.0,0.0,0.0,0.0,0.0,0.0,0.0,0.0,0.0,0.0,0.0,0.0,0.0,0.0,0.0,0.0,0.0,0.0,0.0,0.0,0.0,0.0,0.0,0.0,0.0,0.0,0.0,0.0,0.0,0.0,0.0,0.0,0.0,0.0,0.0,0.0,0.0,0.0,0.0,0.0,0.0,0.0,0.0,0.0,0.0,0.0,0.0,0.0,0.0,0.0,0.0,0.0,0.0,0.0,0.0,0.0,0.0,0.0,0.0,0.0,0.0,0.0,0.0,0.0,0.0,0.0,0.0,0.0,0.0,0.0,0.0,0.0,0.0,0.0,0.0,0.0,0.0,0.0,0.0,0.0,0.0,0.0,0.0,0.0,0.0,0.0,0.0,0.0,0.0,0.0,0.0,0.0,0.0,0.0,0.0,0.0,0.0,0.0,0.0,0.0,0.0,0.0,0.0,0.0,0.0,0.0,0.0,0.0,0.0,0.0,0.0,0.0,0.0,0.0,0.0,0.0,0.0,0.0,0.0,0.0,0.0,0.0,0.0,0.0,0.0,0.0,0.0,0.0,0.0,0.0,0.0,0.0,0.0,0.0,0.0,0.0,0.0,0.0,0.0,0.0,0.0,0.0,0.0,0.0,0.0,0.0,0.0,0.0,0.0,0.0,0.0,0.0,0.0,0.0,0.0,0.0,0.0,0.0,0.0,0.0,0.0,0.0,0.0,0.0,0.0,0.0,0.0,0.0,0.0,0.0,0.0,0.0,0.0,0.0,0.0,0.0,0.0,0.0,0.0,0.0,0.0,0.0,0.0,0.0,0.0,0.0,0.0,0.0,0.0,0.0,0.0,0.0,0.0,0.0,0.0,0.0,0.0,0.0,0.0,0.0,0.0,0.0,0.0,0.0,0.0,0.0,0.0,0.0,0.0,0.0,0.0,0.0,0.0,0.0,0.0,0.0,0.0,0.0,0.0,0.0,0.0,0.0,0.0,0.0,0.0,0.0,0.0,0.0,0.0,0.0,0.0,0.0,0.0,0.0,0.0,0.0,0.0,0.0,0.0,0.0,0.0,0.0,0.0,0.0,0.0,0.0,0.0,0.0,0.0,0.0,0.0,0.0,0.0,0.0,0.0,0.0,0.0,0.0,0.0,0.0,0.0,0.0,0.0,0.0,0.0,0.0,0.0,0.0,0.0,0.0,0.0,0.0,0.0,0.0,0.0,0.0,0.0,0.0,0.0,0.0,0.0,0.0,0.0,0.0,0.0,0.0,0.0,0.0,0.0,0.0,0.0,0.0,0.0,0.0,0.0,0.0,0.0,0.0,0.0,0.0,0.0,0.0,0.0,0.0,0.0,0.0,0.0,0.0,0.0,0.0,0.0,0.0,0.0,0.0,0.0,0.0,0.0,0.0,0.0,0.0,0.0,0.0,0.0,0.0,0.0,0.0,0.0,0.0,0.0,0.0,0.0,0.0,0.0,0.0,0.0,0.0,0.0,0.0,0.0,0.0,0.0,0.0,0.0,0.0,0.0,0.0,0.0,0.0,0.0,0.0,0.0,0.0,0.0,0.0,0.0,0.0,0.0,0.0,0.0,0.0,0.0,0.0,0.0,0.0,0.0,0.0,0.0,0.0,0.0,0.0,0.0,0.0,0.0,0.0,0.0,0.0,0.0,0.0,0.0,0.0,0.0,0.0,0.0,0.0,0.0,0.0,0.0,0.0,0.0,0.0,0.0,0.0,0.0,0.0,0.0,0.0,0.0,0.0,0.0,0.0,0.0,0.0,0.0,0.0,0.0,0.0,0.0,0.0,0.0,0.0,0.0,0.0,0.0,0.0,0.0,0.0,0.0,0.0,0.0,0.0,0.0,0.0,0.0,0.0,0.0,0.0,0.0,0.0,0.0,0.0,0.0,0.0,0.0,0.0,0.0,0.0,0.0,0.0,0.0,0.0,0.0,0.0,0.0,0.0,0.0,0.0,0.0,0.0,0.0,0.0,0.0,0.0,0.0,0.0,0.0,0.0,0.0,0.0,0.0,0.0,0.0,0.0,0.0,0.0,0.0,0.0,0.0,0.0,0.0,0.0,0.0,0.0,0.0,0.0,0.0,0.0,0.0,0.0,0.0,0.0,0.0,0.0,0.0,0.0,0.0,0.0,0.0,0.0,0.0,0.0,0.0,0.0,0.0,0.0,0.0,0.0,0.0,0.0,0.0,0.0,0.0,0.0,0.0,0.0,0.0,0.0,0.0,0.0,0.0,0.0,0.0,0.0,0.0,0.0,0.0,0.0,0.0,0.0,0.0,0.0,0.0,0.0,0.0,0.0,0.0,0.0,0.0,0.0,0.0,0.0,0.0,0.0,0.0,0.0,0.0,0.0,0.0,0.0,0.0,0.0,0.0,0.0,0.0,0.0,0.0,0.0,0.0,0.0,0.0,0.0,0.0,0.0,0.0,0.0,0.0,0.0,0.0,0.0,0.0,0.0,0.0,0.0,0.0,0.0,0.0,0.0,0.0,0.0,0.0,0.0,0.0,0.0,0.0,0.0,0.0,0.0,0.0,0.0,0.0,0.0,0.0,0.0,0.0,0.0,0.0,0.0,0.0,0.0,0.0,0.0,0.0,0.0,0.0,0.0,0.0,0.0,0.0,0.0,0.0,0.0,0.0,0.0,0.0,0.0,0.0,0.0,0.0,0.0,0.0,0.0,0.0,0.0,0.0,0.0,0.0,0.0,0.0,0.0,0.0,0.0,0.0,0.0,0.0,0.0,0.0,0.0,0.0,0.0,0.0,0.0,0.0,0.0,0.0,0.0,0.0,0.0,0.0,0.0,0.0,0.0,0.0,0.0,0.0,0.0,0.0,0.0,0.0,0.0,0.0,0.0,0.0,0.0,0.0,0.0,0.0,0.0,0.0,0.0,0.0,0.0,0.0,0.0,0.0,0.0,0.0,0.0,0.0,0.0,0.0,0.0,0.0,0.0,0.0,0.0,0.0,0.0,0.0,0.0,0.0,0.0,0.0,0.0,0.0,0.0,0.0,0.0,0.0,0.0,0.0,0.0,0.0,0.0,0.0,0.0,0.0,0.0,0.0,0.0,0.0,0.0,0.0,0.0,0.0,0.0,0.0,0.0,0.0,0.0,0.0,0.0,0.0,0.0,0.0,0.0,0.0,0.0,0.0,0.0,0.0,0.0,0.0,0.0,0.0,0.0,0.0,0.0,0.0,0.0,0.0,0.0,0.0,0.0,0.0,0.0,0.0,0.0,0.0,0.0,0.0,0.0,0.0,0.0,0.0,0.0,0.0,0.0,0.0,0.0,0.0,0.0,0.0,0.0,0.0,0.0,0.0,0.0,0.0,0.0,0.0,0.0,0.0,0.0,0.0,0.0,0.0,0.0,0.0,0.0,0.0,0.0,0.0,0.0,0.0,0.0,0.0,0.0,0.0,0.0,0.0,0.0,0.0,0.0,0.0,0.0,0.0,0.0,0.0,0.0,0.0,0.0,0.0,0.0,0.0,0.0,0.0,0.0,0.0,0.0,0.0,0.0,0.0,0.0,0.0,0.0,0.0,0.0,0.0,0.0,0.0,-4.1269,0.0,0.0,0.0,0.0,0.0,0.0,0.0,0.0,0.0,0.0,0.0,0.0,0.0,0.0,0.0,0.0,0.0,0.0,0.0,0.0,0.0,0.0,0.0,0.0,0.0,0.0,0.0,0.0,0.0,0.0,0.0,0.0,0.0,0.0,0.0,0.0,0.0,0.0,0.0,0.0,0.0,0.0,0.0,0.0,0.0,0.0,0.0,0.0,0.0,0.0,0.0,0.0,0.0,0.0,0.0,0.0,0.0,0.0,0.0,0.0,0.0,0.0,0.0,0.0,0.0,0.0,0.0,0.0,0.0,0.0,0.0,0.0,0.0,0.0,0.0,0.0,0.0,0.0,0.0,0.0,0.0,0.0,0.0,0.0,0.0,0.0,0.0,0.0,0.0,0.0,0.0,0.0,0.0,0.0,0.0,0.0,0.0,0.0,0.0,0.0,0.0,0.0,0.0,0.0,0.0,0.0,0.0,0.0,0.0,0.0,-4.3965,-4.1855,-4.3027,-4.291,-4.1289,0.0,0.0,0.0,0.0,0.0,0.0,0.0,0.0,0.0,0.0,0.0,0.0,0.0,0.0,0.0,0.0,0.0,0.0,0.0,0.0,0.0,0.0,0.0,0.0,0.0,0.0,0.0,0.0,0.0,0.0,0.0,0.0,0.0,0.0,0.0,0.0,0.0,0.0,0.0,0.0,0.0,0.0,0.0,0.0,0.0,0.0,0.0,0.0,0.0,0.0,0.0,0.0,0.0,0.0,0.0,0.0,0.0,0.0,0.0,0.0,0.0,0.0,0.0,0.0,0.0,0.0,0.0,0.0,0.0,0.0,0.0,0.0,0.0,0.0,0.0,0.0,0.0,0.0,0.0,0.0,0.0,0.0,0.0,0.0,0.0,0.0,0.0,0.0,0.0,0.0,0.0,0.0,0.0,0.0,0.0,0.0,0.0,0.0,0.0,0.0,0.0,0.0,0.0,0.0,0.0,0.0,0.0,0.0,0.0,0.0,0.0,0.0,-4.3233,-4.3235,-4.1794,0.0,0.0,0.0,0.0,0.0,0.0,0.0,0.0,0.0,0.0,0.0,0.0,0.0,0.0,0.0,0.0,0.0,0.0,0.0,0.0,0.0,0.0,0.0,0.0,0.0,0.0,0.0,0.0,0.0,0.0,0.0,0.0,0.0,0.0,0.0,0.0,0.0,0.0,0.0,0.0,0.0,0.0,0.0,0.0,0.0,0.0,0.0,0.0,0.0,0.0,0.0,0.0,0.0,0.0,0.0,0.0,0.0,0.0,0.0,0.0,0.0,0.0,0.0,0.0,0.0,0.0,0.0,0.0,0.0,0.0,0.0,0.0,0.0,0.0,0.0,0.0,0.0,0.0,0.0,0.0,0.0,0.0,0.0,0.0,0.0,0.0,0.0,0.0,0.0,0.0,0.0,0.0,0.0,0.0,0.0,0.0,0.0,0.0,0.0,0.0,0.0,0.0,0.0,0.0,0.0,0.0,0.0,0.0,0.0,0.0,-4.3083,-4.4253,-4.4476,0.0,-4.3292,0.0,0.0,0.0,0.0,0.0,0.0,0.0,0.0,0.0,0.0,0.0,0.0,0.0,0.0,0.0,0.0,0.0,0.0,0.0,0.0,0.0,0.0,0.0,0.0,0.0,0.0,0.0,0.0,0.0,0.0,0.0,0.0,0.0,0.0,0.0,0.0,0.0,0.0,0.0,0.0,0.0,0.0,0.0,0.0,0.0,0.0,0.0,0.0,0.0,0.0,0.0,0.0,0.0,0.0,0.0,0.0,0.0,0.0,0.0,0.0,0.0,0.0,0.0,0.0,0.0,0.0,0.0,0.0,0.0,0.0,0.0,0.0,0.0,0.0,0.0,0.0,0.0,0.0,0.0,0.0,0.0,0.0,0.0,0.0,0.0,0.0,0.0,0.0,0.0,0.0,0.0,0.0,0.0,0.0,0.0,0.0,0.0,0.0,0.0,0.0,0.0,0.0,0.0,0.0,0.0,0.0,0.0,0.0,0.0,0.0,-4.3252,-4.3873,-4.3916,-4.33,0.0,0.0,0.0,0.0,0.0,0.0,0.0,0.0,0.0,0.0,0.0,0.0,0.0,0.0,0.0,0.0,0.0,0.0,0.0,0.0,0.0,0.0,0.0,0.0,0.0,0.0,0.0,0.0,0.0,0.0,0.0,0.0,0.0,0.0,0.0,0.0,0.0,0.0,0.0,0.0,0.0,0.0,0.0,0.0,0.0,0.0,0.0,0.0,0.0,0.0,0.0,0.0,0.0,0.0,0.0,0.0,0.0,0.0,0.0,0.0,0.0,0.0,0.0,0.0,0.0,0.0,0.0,0.0,0.0,0.0,0.0,0.0,0.0,0.0,0.0,0.0,0.0,0.0,0.0,0.0,0.0,0.0,0.0,0.0,0.0,0.0,0.0,0.0,0.0,0.0,0.0,0.0,0.0,0.0,0.0,0.0,0.0,0.0,0.0,0.0,0.0,0.0,0.0,0.0,0.0,0.0,0.0,0.0,0.0,0.0,-4.3123,-4.3452,-4.3599,-4.2995,-4.2048,-4.0809,0.0,0.0,0.0,0.0,0.0,0.0,0.0,0.0,0.0,0.0,0.0,0.0,0.0,0.0,0.0,0.0,0.0,0.0,0.0,0.0,0.0,0.0,0.0,0.0,0.0,0.0,0.0,0.0,0.0,0.0,0.0,0.0,0.0,0.0,0.0,0.0,0.0,0.0,0.0,0.0,0.0,0.0,0.0,0.0,0.0,0.0,0.0,0.0,0.0,0.0,0.0,0.0,0.0,0.0,0.0,0.0,0.0,0.0,0.0,0.0,0.0,0.0,0.0,0.0,0.0,0.0,0.0,0.0,0.0,0.0,0.0,0.0,0.0,0.0,0.0,0.0,0.0,0.0,0.0,0.0,0.0,0.0,0.0,0.0,0.0,0.0,0.0,0.0,0.0,0.0,0.0,0.0,0.0,0.0,0.0,0.0,0.0,0.0,0.0,0.0,0.0,0.0,0.0,0.0,0.0,0.0,0.0,0.0,-4.6351,-4.4396,-4.3529,-4.4155,-4.2034,-4.0787,0.0,0.0,0.0,0.0,0.0,0.0,0.0,0.0,0.0,0.0,0.0,0.0,0.0,0.0,0.0,0.0,0.0,0.0,0.0,0.0,0.0,0.0,0.0,0.0,0.0,0.0,0.0,0.0,0.0,0.0,0.0,0.0,0.0,0.0,0.0,0.0,0.0,0.0,0.0,0.0,0.0,0.0,0.0,0.0,0.0,0.0,0.0,0.0,0.0,0.0,0.0,0.0,0.0,0.0,0.0,0.0,0.0,0.0,0.0,0.0,0.0,0.0,0.0,0.0,0.0,0.0,0.0,0.0,0.0,0.0,0.0,0.0,0.0,0.0,0.0,0.0,0.0,0.0,0.0,0.0,0.0,0.0,0.0,0.0,0.0,0.0,0.0,0.0,0.0,0.0,0.0,0.0,0.0,0.0,0.0,0.0,0.0,0.0,0.0,0.0,0.0,0.0,0.0,0.0,0.0,0.0,0.0,0.0,0.0,-4.2873,-4.3081,-4.2984,-4.2681,-4.1848,-4.1152,0.0,0.0,0.0,0.0,0.0,0.0,0.0,0.0,0.0,0.0,0.0,0.0,0.0,0.0,0.0,0.0,0.0,0.0,0.0,0.0,0.0,0.0,0.0,0.0,0.0,0.0,0.0,0.0,0.0,0.0,0.0,0.0,0.0,0.0,0.0,0.0,0.0,0.0,0.0,0.0,0.0,0.0,0.0,0.0,0.0,0.0,0.0,0.0,0.0,0.0,0.0,0.0,0.0,0.0,0.0,0.0,0.0,0.0,0.0,0.0,0.0,0.0,0.0,0.0,0.0,0.0,0.0,0.0,0.0,0.0,0.0,0.0,0.0,0.0,0.0,0.0,0.0,0.0,0.0,0.0,0.0,0.0,0.0,0.0,0.0,0.0,0.0,0.0,0.0,0.0,0.0,0.0,0.0,0.0,0.0,0.0,0.0,0.0,0.0,0.0,0.0,0.0,0.0,0.0,0.0,0.0,0.0,0.0,0.0,-4.1866,0.0,-4.3239,-4.1846,-4.1527,-4.0604,0.0,0.0,0.0,0.0,0.0,0.0,0.0,0.0,0.0,0.0,0.0,0.0,0.0,0.0,0.0,0.0,0.0,0.0,0.0,0.0,0.0,0.0,0.0,0.0,0.0,0.0,0.0,0.0,0.0,0.0,0.0,0.0,0.0,0.0,0.0,0.0,0.0,0.0,0.0,0.0,0.0,0.0,0.0,0.0,0.0,0.0,0.0,0.0,0.0,0.0,0.0,0.0,0.0,0.0,0.0,0.0,0.0,0.0,0.0,0.0,0.0,0.0,0.0,0.0,0.0,0.0,0.0,0.0,0.0,0.0,0.0,0.0,0.0,0.0,0.0,0.0,0.0,0.0,0.0,0.0,0.0,0.0,0.0,0.0,0.0,0.0,0.0,0.0,0.0,0.0,0.0,0.0,0.0,0.0,0.0,0.0,0.0,0.0,0.0,0.0,0.0,0.0,0.0,0.0,0.0,0.0,0.0,0.0,-4.1708,-4.4055,-4.496,-4.4201,-4.1912,-4.0931,-3.8969,0.0,0.0,0.0,0.0,0.0,0.0,0.0,0.0,0.0,0.0,0.0,0.0,0.0,0.0,0.0,0.0,0.0,0.0,0.0,0.0,0.0,0.0,0.0,0.0,0.0,0.0,0.0,0.0,0.0,0.0,0.0,0.0,0.0,0.0,0.0,0.0,0.0,0.0,0.0,0.0,0.0,0.0,0.0,0.0,0.0,0.0,0.0,0.0,0.0,0.0,0.0,0.0,0.0,0.0,0.0,0.0,0.0,0.0,0.0,0.0,0.0,0.0,0.0,0.0,0.0,0.0,0.0,0.0,0.0,0.0,0.0,0.0,0.0,0.0,0.0,0.0,0.0,0.0,0.0,0.0,0.0,0.0,0.0,0.0,0.0,0.0,0.0,0.0,0.0,0.0,0.0,0.0,0.0,0.0,0.0,0.0,0.0,0.0,0.0,0.0,0.0,0.0,0.0,0.0,0.0,0.0,0.0,0.0,0.0,-4.0046,-4.1931,-4.2893,-4.2624,-4.0142,-3.9123,0.0,0.0,0.0,0.0,0.0,0.0,0.0,0.0,0.0,0.0,0.0,0.0,0.0,0.0,0.0,0.0,0.0,0.0,0.0,0.0,0.0,0.0,0.0,0.0,0.0,0.0,0.0,0.0,0.0,0.0,0.0,0.0,0.0,0.0,0.0,0.0,0.0,0.0,0.0,0.0,0.0,0.0,0.0,0.0,0.0,0.0,0.0,0.0,0.0,0.0,0.0,0.0,0.0,0.0,0.0,0.0,0.0,0.0,0.0,0.0,0.0,0.0,0.0,0.0,0.0,0.0,0.0,0.0,0.0,0.0,0.0,0.0,0.0,0.0,0.0,0.0,0.0,0.0,0.0,0.0,0.0,0.0,0.0,0.0,0.0,0.0,0.0,0.0,0.0,0.0,0.0,0.0,0.0,0.0,0.0,0.0,0.0,0.0,0.0,0.0,0.0,0.0,0.0,0.0,0.0,0.0,0.0,0.0,0.0,-4.0085,-4.2066,-4.3028,-4.2615,-4.0527,-3.9546,-3.9835,0.0,0.0,0.0,0.0,0.0,0.0,0.0,0.0,0.0,0.0,0.0,0.0,0.0,0.0,0.0,0.0,0.0,0.0,0.0,0.0,0.0,0.0,0.0,0.0,0.0,0.0,0.0,0.0,0.0,0.0,0.0,0.0,0.0,0.0,0.0,0.0,0.0,0.0,0.0,0.0,0.0,0.0,0.0,0.0,0.0,0.0,0.0,0.0,0.0,0.0,0.0,0.0,0.0,0.0,0.0,0.0,0.0,0.0,0.0,0.0,0.0,0.0,0.0,0.0,0.0,0.0,0.0,0.0,0.0,0.0,0.0,0.0,0.0,0.0,0.0,0.0,0.0,0.0,0.0,0.0,0.0,0.0,0.0,0.0,0.0,0.0,0.0,0.0,0.0,0.0,0.0,0.0,0.0,0.0,0.0,0.0,0.0,0.0,0.0,0.0,0.0,0.0,0.0,0.0,0.0,0.0,0.0,0.0,-4.3316,-4.4998,-4.4701,-4.2316,-4.1942,-4.0308,0.0,0.0,0.0,0.0,0.0,0.0,0.0,0.0,0.0,0.0,0.0,0.0,0.0,0.0,0.0,0.0,0.0,0.0,0.0,0.0,0.0,0.0,0.0,0.0,0.0,0.0,0.0,0.0,0.0,0.0,0.0,0.0,0.0,0.0,0.0,0.0,0.0,0.0,0.0,0.0,0.0,0.0,0.0,0.0,0.0,0.0,0.0,0.0,0.0,0.0,0.0,0.0,0.0,0.0,0.0,0.0,0.0,0.0,0.0,0.0,0.0,0.0,0.0,0.0,0.0,0.0,0.0,0.0,0.0,0.0,0.0,0.0,0.0,0.0,0.0,0.0,0.0,0.0,0.0,0.0,0.0,0.0,0.0,0.0,0.0,0.0,0.0,0.0,0.0,0.0,0.0,0.0,0.0,0.0,0.0,0.0,0.0,0.0,0.0,0.0,0.0,0.0,0.0,0.0,0.0,0.0,0.0,0.0,0.0,-4.5951,-4.8163,-4.8442,-4.6471,-4.3451,-4.17,0.0,0.0,0.0,0.0,0.0,0.0,0.0,0.0,0.0,0.0,0.0,0.0,0.0,0.0,0.0,0.0,0.0,0.0,0.0,0.0,0.0,0.0,0.0,0.0,0.0,0.0,0.0,0.0,0.0,0.0,0.0,0.0,0.0,0.0,0.0,0.0,0.0,0.0,0.0,0.0,0.0,0.0,0.0,0.0,0.0,0.0,0.0,0.0,0.0,0.0,0.0,0.0,0.0,0.0,0.0,0.0,0.0,0.0,0.0,0.0,0.0,0.0,0.0,0.0,0.0,0.0,0.0,0.0,0.0,0.0,0.0,0.0,0.0,0.0,0.0,0.0,0.0,0.0,0.0,0.0,0.0,0.0,0.0,0.0,0.0,0.0,0.0,0.0,0.0,0.0,0.0,0.0,0.0,0.0,0.0,0.0,0.0,0.0,0.0,0.0,0.0,0.0,0.0,0.0,0.0,0.0,0.0,0.0,-4.6383,-4.7932,-5.0433,-5.126,-5.0279,-4.6855,-4.422,0.0,0.0,0.0,0.0,0.0,0.0,0.0,0.0,0.0,0.0,0.0,0.0,0.0,0.0,0.0,0.0,0.0,0.0,0.0,0.0,0.0,0.0,0.0,0.0,0.0,0.0,0.0,0.0,0.0,0.0,0.0,0.0,0.0,0.0,0.0,0.0,0.0,0.0,0.0,0.0,0.0,0.0,0.0,0.0,0.0,0.0,0.0,0.0,0.0,0.0,0.0,0.0,0.0,0.0,0.0,0.0,0.0,0.0,0.0,0.0,0.0,0.0,0.0,0.0,0.0,0.0,0.0,0.0,0.0,0.0,0.0,0.0,0.0,0.0,0.0,0.0,0.0,0.0,0.0,0.0,0.0,0.0,0.0,0.0,0.0,0.0,0.0,0.0,0.0,0.0,0.0,0.0,0.0,0.0,0.0,0.0,0.0,0.0,0.0,0.0,0.0,0.0,0.0,0.0,0.0,0.0,0.0,0.0,-4.7191,-4.9625,-5.2145,-5.3414,-5.328,-5.0683,-4.7048,0.0,0.0,0.0,0.0,0.0,0.0,0.0,0.0,0.0,0.0,0.0,0.0,0.0,0.0,0.0,0.0,0.0,0.0,0.0,0.0,0.0,0.0,0.0,0.0,0.0,0.0,0.0,0.0,0.0,0.0,0.0,0.0,0.0,0.0,0.0,0.0,0.0,0.0,0.0,0.0,0.0,0.0,0.0,0.0,0.0,0.0,0.0,0.0,0.0,0.0,0.0,0.0,0.0,0.0,0.0,0.0,0.0,0.0,0.0,0.0,0.0,0.0,0.0,0.0,0.0,0.0,0.0,0.0,0.0,0.0,0.0,0.0,0.0,0.0,0.0,0.0,0.0,0.0,0.0,0.0,0.0,0.0,0.0,0.0,0.0,0.0,0.0,0.0,0.0,0.0,0.0,0.0,0.0,0.0,0.0,0.0,0.0,0.0,0.0,0.0,0.0,0.0,0.0,0.0,0.0,0.0,0.0,0.0,-4.949,-5.1346,-5.3857,-5.4857,-5.4203,-5.0433,-4.7259,0.0,0.0,0.0,0.0,0.0,0.0,0.0,0.0,0.0,0.0,0.0,0.0,0.0,0.0,0.0,0.0,0.0,0.0,0.0,0.0,0.0,0.0,0.0,0.0,0.0,0.0,0.0,0.0,0.0,0.0,0.0,0.0,0.0,0.0,0.0,0.0,0.0,0.0,0.0,0.0,0.0,0.0,0.0,0.0,0.0,0.0,0.0,0.0,-4.2457,0.0,0.0,0.0,0.0,0.0,0.0,0.0,0.0,0.0,0.0,0.0,0.0,0.0,0.0,0.0,0.0,0.0,0.0,0.0,0.0,0.0,0.0,0.0,0.0,0.0,0.0,0.0,0.0,0.0,0.0,0.0,0.0,0.0,0.0,0.0,0.0,0.0,0.0,0.0,0.0,0.0,0.0,0.0,0.0,0.0,0.0,0.0,0.0,0.0,0.0,0.0,0.0,0.0,0.0,0.0,0.0,0.0,0.0,0.0,-5.0414,-5.2481,-5.4607,-5.5299,-5.4414,-5.1125,-4.8336,0.0,0.0,0.0,0.0,0.0,0.0,0.0,0.0,0.0,0.0,0.0,0.0,0.0,0.0,0.0,0.0,0.0,0.0,0.0,0.0,0.0,0.0,0.0,0.0,0.0,0.0,0.0,0.0,0.0,0.0,0.0,0.0,0.0,0.0,0.0,0.0,0.0,0.0,0.0,0.0,0.0,0.0,0.0,0.0,0.0,0.0,0.0,0.0,0.0,0.0,0.0,0.0,0.0,0.0,0.0,0.0,0.0,0.0,0.0,0.0,0.0,0.0,0.0,0.0,0.0,0.0,0.0,0.0,0.0,0.0,0.0,0.0,0.0,0.0,0.0,0.0,0.0,0.0,0.0,0.0,0.0,0.0,0.0,0.0,0.0,0.0,0.0,0.0,0.0,0.0,0.0,0.0,0.0,0.0,0.0,0.0,0.0,0.0,0.0,0.0,0.0,0.0,0.0,0.0,0.0,0.0,0.0,-4.7586,-5.0702,-5.3318,-5.478,-5.5184,-5.4472,-5.1895,-4.9375,-4.699,0.0,0.0,0.0,0.0,0.0,0.0,0.0,0.0,0.0,0.0,0.0,0.0,0.0,0.0,0.0,0.0,0.0,0.0,0.0,0.0,0.0,0.0,0.0,0.0,0.0,0.0,0.0,0.0,0.0,0.0,0.0,0.0,0.0,0.0,0.0,0.0,0.0,0.0,-4.1731,-4.3386,0.0,0.0,0.0,0.0,0.0,0.0,0.0,0.0,-4.125,0.0,0.0,0.0,0.0,0.0,0.0,0.0,0.0,0.0,0.0,0.0,0.0,0.0,0.0,0.0,0.0,0.0,0.0,0.0,0.0,0.0,0.0,0.0,0.0,0.0,0.0,0.0,0.0,0.0,0.0,0.0,0.0,0.0,0.0,0.0,0.0,0.0,0.0,0.0,0.0,0.0,0.0,0.0,0.0,0.0,0.0,0.0,0.0,0.0,0.0,0.0,0.0,0.0,0.0,0.0,0.0,-4.8259,-4.9048,-5.0971,-5.4203,-5.4549,-5.4626,-5.4414,-5.1318,-4.8759,-4.6923,0.0,0.0,0.0,0.0,0.0,0.0,0.0,0.0,0.0,0.0,0.0,0.0,0.0,0.0,0.0,0.0,0.0,0.0,0.0,0.0,0.0,0.0,0.0,0.0,0.0,0.0,0.0,0.0,0.0,0.0,0.0,0.0,0.0,0.0,0.0,0.0,0.0,0.0,0.0,-4.2648,-4.3697,0.0,0.0,0.0,0.0,0.0,0.0,0.0,0.0,-4.1069,0.0,0.0,0.0,0.0,0.0,0.0,0.0,0.0,0.0,0.0,0.0,0.0,0.0,0.0,0.0,0.0,0.0,0.0,0.0,0.0,0.0,0.0,0.0,0.0,0.0,0.0,0.0,0.0,0.0,0.0,0.0,0.0,0.0,0.0,0.0,0.0,0.0,0.0,0.0,0.0,0.0,0.0,0.0,0.0,0.0,0.0,0.0,0.0,0.0,0.0,0.0,0.0,0.0,0.0,0.0,-4.7212,-4.8959,-5.1099,-5.3712,-5.428,-5.3876,-5.2529,-4.9644,-4.7317,0.0,0.0,0.0,0.0,0.0,0.0,0.0,0.0,0.0,0.0,0.0,0.0,0.0,0.0,0.0,0.0,0.0,0.0,0.0,0.0,0.0,0.0,0.0,0.0,0.0,0.0,0.0,0.0,0.0,0.0,0.0,0.0,0.0,0.0,0.0,0.0,0.0,0.0,0.0,0.0,-4.2855,-4.3975,-4.3552,0.0,0.0,0.0,0.0,0.0,0.0,-4.064,-4.0658,0.0,0.0,0.0,0.0,0.0,0.0,0.0,0.0,0.0,0.0,0.0,0.0,0.0,0.0,0.0,0.0,0.0,0.0,0.0,0.0,0.0,0.0,0.0,0.0,0.0,0.0,0.0,0.0,0.0,0.0,0.0,0.0,0.0,0.0,0.0,0.0,0.0,0.0,0.0,0.0,0.0,0.0,0.0,0.0,0.0,0.0,0.0,0.0,0.0,0.0,0.0,0.0,0.0,0.0,0.0,-4.5649,-4.8208,-5.0591,-5.2858,-5.3483,-5.2716,-5.053,-4.8161,-4.5975,0.0,0.0,0.0,0.0,0.0,0.0,0.0,0.0,0.0,0.0,0.0,0.0,0.0,0.0,0.0,0.0,0.0,0.0,0.0,0.0,0.0,0.0,0.0,0.0,0.0,0.0,0.0,0.0,0.0,0.0,0.0,0.0,0.0,0.0,0.0,0.0,0.0,0.0,0.0,0.0,0.0,-4.4764,-4.3663,-4.3094,0.0,0.0,0.0,0.0,-4.1224,-4.1203,0.0,0.0,0.0,0.0,0.0,0.0,0.0,0.0,0.0,0.0,0.0,0.0,0.0,0.0,0.0,0.0,0.0,0.0,0.0,0.0,0.0,0.0,0.0,0.0,0.0,0.0,0.0,0.0,0.0,0.0,0.0,0.0,0.0,0.0,0.0,0.0,0.0,0.0,0.0,0.0,0.0,0.0,0.0,0.0,0.0,0.0,0.0,0.0,0.0,0.0,0.0,0.0,0.0,0.0,0.0,0.0,-4.6023,-4.6954,-4.8918,-5.1926,-5.1528,-5.0752,-4.9738,-4.7956,-4.5521,0.0,0.0,0.0,0.0,0.0,0.0,0.0,0.0,0.0,0.0,0.0,0.0,0.0,0.0,0.0,0.0,0.0,0.0,0.0,0.0,0.0,0.0,0.0,0.0,0.0,0.0,0.0,0.0,0.0,0.0,0.0,0.0,0.0,0.0,0.0,0.0,0.0,0.0,0.0,0.0,0.0,-4.5993,-4.3809,-4.403,-4.392,0.0,0.0,-4.2047,-4.2158,-4.3864,0.0,0.0,0.0,0.0,0.0,0.0,0.0,0.0,0.0,0.0,0.0,0.0,0.0,0.0,0.0,0.0,0.0,0.0,0.0,0.0,0.0,0.0,0.0,0.0,0.0,0.0,0.0,0.0,0.0,0.0,0.0,0.0,0.0,0.0,0.0,0.0,0.0,0.0,0.0,0.0,0.0,0.0,0.0,0.0,0.0,0.0,0.0,0.0,0.0,0.0,0.0,0.0,0.0,0.0,0.0,-4.0719,-4.3876,-4.6243,-4.8254,-4.9816,-5.0038,-4.9471,-4.8173,-4.5593,-4.3347,0.0,0.0,0.0,0.0,0.0,0.0,0.0,0.0,0.0,0.0,0.0,0.0,0.0,0.0,0.0,0.0,0.0,0.0,0.0,0.0,0.0,0.0,0.0,0.0,0.0,0.0,0.0,0.0,0.0,0.0,0.0,0.0,0.0,0.0,0.0,0.0,0.0,0.0,0.0,0.0,0.0,0.0,-4.3772,-4.4562,0.0,0.0,0.0,-4.3828,-4.4268,0.0,0.0,0.0,0.0,0.0,0.0,0.0,0.0,0.0,0.0,0.0,0.0,0.0,0.0,0.0,0.0,0.0,0.0,0.0,0.0,0.0,0.0,0.0,0.0,0.0,0.0,0.0,0.0,0.0,0.0,0.0,0.0,0.0,0.0,0.0,0.0,0.0,0.0,0.0,0.0,0.0,0.0,0.0,0.0,0.0,0.0,0.0,0.0,0.0,0.0,0.0,0.0,0.0,0.0,0.0,0.0,0.0,-4.2008,-4.5301,-4.725,-4.7699,-4.8326,-4.7954,-4.6446,-4.3638,0.0,0.0,0.0,0.0,0.0,0.0,0.0,0.0,0.0,0.0,0.0,0.0,0.0,0.0,0.0,0.0,0.0,0.0,0.0,0.0,0.0,0.0,0.0,0.0,0.0,0.0,0.0,-3.4037,0.0,0.0,0.0,0.0,0.0,0.0,0.0,0.0,0.0,0.0,0.0,0.0,0.0,0.0,-4.5313,-4.3597,-4.5052,-4.5964,0.0,0.0,-4.5205,-4.5535,-4.5112,-4.4287,0.0,0.0,0.0,0.0,0.0,0.0,0.0,0.0,0.0,0.0,0.0,0.0,0.0,0.0,0.0,0.0,0.0,0.0,0.0,0.0,0.0,0.0,0.0,0.0,0.0,0.0,0.0,0.0,0.0,0.0,0.0,0.0,0.0,0.0,0.0,0.0,0.0,0.0,0.0,0.0,0.0,0.0,0.0,0.0,0.0,0.0,0.0,0.0,0.0,0.0,0.0,0.0,0.0,0.0,0.0,-4.1632,-4.3806,-4.5312,-4.6028,-4.612,-4.5752,-4.487,-4.3179,-4.1209,0.0,0.0,0.0,0.0,0.0,0.0,0.0,0.0,0.0,0.0,0.0,0.0,0.0,0.0,0.0,0.0,0.0,0.0,0.0,0.0,0.0,0.0,0.0,0.0,0.0,0.0,0.0,0.0,0.0,0.0,0.0,0.0,0.0,0.0,0.0,0.0,0.0,0.0,0.0,0.0,0.0,-4.5336,-4.3237,-4.5526,-4.6888,0.0,0.0,-4.5802,-4.4912,-4.6562,-4.6452,-4.1994,0.0,0.0,0.0,0.0,0.0,0.0,0.0,0.0,0.0,0.0,0.0,0.0,0.0,0.0,0.0,0.0,0.0,0.0,0.0,0.0,0.0,0.0,0.0,0.0,0.0,0.0,0.0,0.0,0.0,0.0,0.0,0.0,0.0,0.0,0.0,0.0,0.0,0.0,0.0,0.0,0.0,0.0,0.0,0.0,0.0,0.0,0.0,0.0,0.0,0.0,0.0,0.0,0.0,-3.9323,-3.9837,-4.3033,-4.4856,-4.5149,-4.5168,-4.5003,-4.4727,-4.2176,-4.0157,0.0,0.0,0.0,0.0,0.0,0.0,0.0,0.0,0.0,0.0,0.0,0.0,0.0,0.0,0.0,0.0,0.0,0.0,0.0,0.0,0.0,0.0,0.0,0.0,0.0,0.0,0.0,0.0,-3.3807,-3.3807,-3.3807,0.0,0.0,0.0,0.0,0.0,0.0,0.0,0.0,0.0,0.0,-4.4543,-4.3695,-4.5888,0.0,0.0,-4.5811,-4.6025,-4.5207,-4.5036,-4.4187,-4.1687,-4.0996,0.0,0.0,0.0,0.0,0.0,0.0,0.0,0.0,0.0,0.0,0.0,0.0,0.0,0.0,0.0,0.0,0.0,0.0,0.0,0.0,0.0,0.0,0.0,0.0,0.0,0.0,0.0,0.0,0.0,0.0,0.0,0.0,0.0,0.0,0.0,0.0,0.0,0.0,0.0,0.0,0.0,0.0,0.0,0.0,0.0,0.0,0.0,0.0,0.0,0.0,0.0,0.0,-3.9003,-3.9074,-4.2543,-4.436,-4.4342,-4.4342,-4.4342,-4.425,-4.146,-3.9515,0.0,0.0,0.0,0.0,0.0,0.0,0.0,0.0,0.0,0.0,0.0,0.0,0.0,0.0,0.0,0.0,0.0,0.0,0.0,0.0,0.0,0.0,0.0,0.0,0.0,0.0,0.0,0.0,-3.3694,-3.3638,-3.3625,0.0,0.0,0.0,0.0,0.0,0.0,0.0,0.0,0.0,0.0,-4.3723,-4.3528,-4.5351,-4.6213,-4.4812,-4.5105,-4.5247,-4.4701,-4.3891,-4.2829,-4.1411,0.0,0.0,0.0,0.0,0.0,0.0,0.0,0.0,0.0,0.0,0.0,0.0,0.0,0.0,0.0,0.0,0.0,0.0,0.0,0.0,0.0,0.0,0.0,0.0,0.0,0.0,0.0,0.0,0.0,0.0,-4.3165,0.0,0.0,0.0,0.0,0.0,0.0,0.0,0.0,0.0,0.0,0.0,0.0,0.0,0.0,0.0,0.0,0.0,0.0,0.0,0.0,0.0,0.0,-3.909,-3.9863,-4.2286,-4.3534,-4.3534,-4.3516,-4.3534,-4.3479,-4.1167,-3.9515,-3.8652,0.0,0.0,0.0,0.0,0.0,0.0,0.0,0.0,0.0,0.0,0.0,0.0,0.0,0.0,0.0,0.0,0.0,0.0,0.0,0.0,0.0,0.0,0.0,0.0,0.0,0.0,-3.378,-3.3451,-3.3232,0.0,0.0,0.0,0.0,0.0,0.0,0.0,0.0,0.0,0.0,-4.1691,-4.2918,-4.2462,-4.3705,-4.4419,-4.3546,-4.3402,-4.3323,-4.3103,-4.3598,-4.3293,0.0,0.0,0.0,0.0,0.0,0.0,0.0,0.0,0.0,0.0,0.0,0.0,0.0,0.0,0.0,0.0,0.0,0.0,0.0,0.0,0.0,0.0,0.0,0.0,0.0,0.0,0.0,-4.3871,-4.3757,0.0,0.0,0.0,0.0,0.0,0.0,0.0,0.0,0.0,0.0,0.0,-3.9818,-4.0136,0.0,0.0,0.0,0.0,0.0,0.0,0.0,0.0,0.0,0.0,0.0,0.0,-3.9111,-3.9989,-4.2266,-4.3479,-4.3479,-4.3479,-4.3479,-4.3478,-4.1167,-3.8744,-3.6307,0.0,0.0,0.0,0.0,0.0,0.0,0.0,0.0,0.0,0.0,0.0,0.0,0.0,0.0,0.0,0.0,0.0,0.0,0.0,0.0,0.0,0.0,0.0,0.0,0.0,-3.3288,0.0,0.0,0.0,0.0,0.0,0.0,0.0,0.0,0.0,0.0,0.0,-3.7711,-3.9692,-4.1052,-4.2133,-4.2922,-4.3927,-4.4495,0.0,0.0,0.0,0.0,0.0,0.0,0.0,0.0,0.0,0.0,0.0,0.0,0.0,0.0,-4.4018,-4.0739,-3.9726,-3.9638,-4.0355,0.0,0.0,0.0,0.0,0.0,0.0,0.0,0.0,0.0,0.0,0.0,0.0,0.0,0.0,-4.3479,0.0,-4.2103,0.0,0.0,0.0,0.0,0.0,0.0,0.0,0.0,-4.023,-4.0579,-4.0341,-4.0838,-4.0818,0.0,-4.0304,-3.9625,0.0,0.0,0.0,0.0,0.0,0.0,0.0,0.0,-3.9093,-3.9955,-4.2284,-4.3479,-4.3479,-4.3479,-4.3479,-4.346,-4.1164,-3.8505,-3.5536,-3.4669,-3.4069,0.0,0.0,0.0,0.0,0.0,0.0,0.0,0.0,0.0,0.0,0.0,0.0,0.0,0.0,0.0,0.0,0.0,0.0,0.0,0.0,0.0,0.0,0.0,-3.3596,0.0,0.0,0.0,0.0,0.0,0.0,0.0,0.0,0.0,-3.7148,-3.7242,-3.8042,-4.0189,-4.0882,-4.1644,-4.2861,0.0,0.0,0.0,0.0,0.0,0.0,0.0,-4.1689,-4.1764,-4.2224,-4.2705,-4.3117,-4.4361,-4.5156,-4.4724,0.0,0.0,-4.2455,-4.1545,-4.1464,-4.2182,-4.1887,-4.1786,-4.2713,-4.2542,-4.2236,0.0,0.0,0.0,0.0,0.0,0.0,0.0,0.0,-4.3479,-4.3479,0.0,-4.2635,0.0,0.0,0.0,0.0,0.0,-4.0361,0.0,0.0,-4.1534,-4.1866,-4.115,-4.1187,-4.1168,-4.1132,-4.115,-4.0726,-3.9863,-3.8374,0.0,0.0,0.0,0.0,0.0,0.0,-3.9148,-4.0047,-4.2304,-4.3479,-4.3479,-4.3479,-4.3408,-4.328,-4.1062,-3.87,-3.6406,-3.5388,-3.4596,-3.384,-3.3798,0.0,0.0,0.0,0.0,0.0,0.0,0.0,0.0,0.0,0.0,0.0,0.0,0.0,0.0,0.0,0.0,0.0,0.0,0.0,0.0,-3.4532,0.0,0.0,0.0,0.0,0.0,0.0,0.0,0.0,0.0,0.0,-3.6852,-3.8099,-3.9529,-4.095,0.0,0.0,0.0,0.0,-4.2117,-4.1542,-4.1948,-4.2405,-4.2439,-4.3589,-4.4248,-4.3589,0.0,0.0,-4.3842,-4.4231,-4.4632,-4.3792,-4.4434,-4.519,-4.6544,-4.5382,-4.4705,-4.5371,-4.4372,-4.3809,-4.4496,-4.4654,-4.4592,-4.5076,0.0,0.0,0.0,0.0,-4.3479,-4.3479,-4.3479,-4.3479,-4.3479,-4.346,-4.2653,0.0,0.0,0.0,0.0,0.0,0.0,-4.0967,-4.0818,-4.1809,-4.2176,-4.1992,-4.2543,-4.2525,-4.1957,-4.1956,-4.1552,-4.0747,-4.0288,-3.8964,-3.6831,0.0,0.0,0.0,0.0,-4.023,-4.1589,-4.2855,-4.3479,-4.3479,-4.3124,-4.2191,-4.0696,-3.9421,-3.79,-3.6076,-3.4717,-3.3877,-3.3663,-3.3488,0.0,0.0,0.0,0.0,0.0,0.0,0.0,0.0,0.0,0.0,0.0,0.0,0.0,0.0,0.0,0.0,0.0,0.0,0.0,-3.3318,-3.4105,-3.4336,0.0,0.0,0.0,0.0,0.0,0.0,0.0,0.0,0.0,-3.8261,-3.8742,-3.9343,0.0,0.0,-4.1457,-4.2185,-4.276,-4.342,-4.4282,-4.413,0.0,-4.4654,-4.4164,-4.4045,-4.4908,-4.6295,-4.7111,-4.6672,-4.7242,-4.7665,-4.7411,-4.7581,-4.7885,-4.8105,-4.6324,-4.5021,-4.5466,-4.5331,-4.55,-4.6633,-4.6549,-4.6312,-4.704,-4.5351,-4.4709,-4.4433,-4.4452,-4.4469,-4.4433,-4.4415,-4.4121,-4.3975,-4.392,-4.3112,-4.2323,-4.1534,-4.0744,0.0,0.0,0.0,-4.1572,-4.159,-4.2396,-4.2763,-4.28,-4.3259,-4.324,-4.2782,-4.2763,-4.2239,-4.121,-4.121,-4.0232,-3.832,0.0,0.0,-3.871,-3.9561,-4.0499,-4.1465,-4.2341,-4.2828,-4.281,-4.2483,-4.1573,-3.9987,-3.9188,-3.8037,-3.6425,-3.5172,-3.4235,-3.3634,-3.344,-3.3098,0.0,0.0,0.0,0.0,0.0,0.0,0.0,0.0,0.0,0.0,0.0,-3.3353,-3.3371,0.0,0.0,0.0,-3.3495,-3.3572,-3.3596,-3.441,0.0,0.0,0.0,0.0,0.0,0.0,0.0,-3.71,-3.7872,-3.8497,-3.8962,-3.9242,-3.9825,-4.084,-4.1102,-4.1576,-4.2608,0.0,-4.3741,-4.4671,-4.4671,-4.4767,-4.5179,-4.4993,-4.5263,-4.6769,-4.7733,-4.8308,-4.8359,-4.8714,-4.9001,-4.9018,-4.9018,-4.9018,-4.9018,-4.7496,-4.6464,-4.6904,-4.7005,-4.7344,-4.8206,-4.7986,-4.78,-4.9298,-4.8379,-4.6911,-4.6177,-4.5993,-4.592,-4.5883,-4.5847,-4.5112,-4.48,-4.4728,-4.3903,-4.3025,-4.2112,-4.1399,0.0,-4.1106,-4.1893,-4.2241,-4.2295,-4.3027,-4.3356,-4.3356,-4.3356,-4.3356,-4.3356,-4.3356,-4.2686,-4.1482,-4.1445,-4.0818,-3.961,-3.9895,-3.9642,-3.8951,-3.9768,-4.0273,-4.0345,-4.1312,-4.1789,-4.1746,-4.1729,-4.1315,-4.0363,-3.9667,-3.8503,-3.6946,-3.6067,-3.4957,-3.3583,-3.3476,-3.3141,-3.2453,0.0,0.0,0.0,0.0,0.0,0.0,0.0,0.0,0.0,0.0,0.0,0.0,0.0,0.0,0.0,-3.4925,0.0,-3.4532,-3.5182,0.0,0.0,0.0,-3.6011,-3.6812,-3.6897,-3.7161,-3.7905,0.0,0.0,-3.9073,-3.969,-4.0637,-4.21,-4.1711,-4.1813,-4.3206,-4.3443,-4.3511,-4.3747,-4.4248,-4.4733,-4.5021,-4.5957,-4.7124,-4.8257,-4.8934,-4.8968,-4.8951,-4.8984,-4.9001,-4.9018,-4.9018,-4.9018,-4.9018,-4.8866,-4.9001,-4.8883,-4.8917,-4.8951,-4.8951,-4.8917,-4.8866,-5.0949,-5.0178,-4.9793,-4.8545,-4.6764,-4.6159,-4.5902,-4.5883,-4.57,-4.5626,-4.5535,-4.4324,-4.2763,-4.1004,-4.0788,-4.0717,-4.0753,-4.156,-4.1917,-4.1937,-4.2116,-4.2206,-4.2206,-4.2206,-4.2206,-4.2206,-4.2206,-4.2017,-4.1715,-4.1698,-4.1547,-4.1244,-4.1314,-4.0951,-4.0198,-4.0382,-4.0803,-4.141,-4.1679,-4.1578,-4.1133,-4.111,-4.0314,-3.8573,-3.7826,-3.6713,-3.5168,-3.3853,-3.2977,-3.2637,-3.2359,-3.2015,-3.1542,-3.2144,0.0,0.0,0.0,0.0,0.0,0.0,0.0,0.0,0.0,-3.3984,-3.3984,0.0,-3.3519,0.0,-3.4286,-3.4618,-3.451,-3.5143,0.0,0.0,-3.6508,-3.6806,-3.755,-3.7652,-3.7905,-3.865,-3.8886,-3.9208,-3.9774,-3.9994,-4.0654,-4.2093,-4.2134,-4.2388,-4.3284,-4.3944,-4.4519,-4.4976,-4.5229,-4.5635,-4.6126,-4.7039,-4.7547,-4.7344,-4.8257,-4.9001,-4.9001,-4.9018,-4.9018,-4.9018,-4.9018,-4.9018,-4.9018,-4.9018,-4.9018,-4.9018,-4.9018,-4.9018,-4.9018,-4.9018,-4.9018,-5.1777,-5.138,-5.1341,-5.0185,-4.8298,-4.7781,-4.7333,-4.6929,-4.6317,-4.6172,-4.6342,-4.4971,-4.3542,-4.2135,-4.1764,-4.1623,-4.1644,-4.1754,-4.181,-4.181,-4.181,-4.181,-4.181,-4.181,-4.181,-4.181,-4.181,-4.1664,-4.1424,-4.1402,-4.1268,-4.1053,-4.1053,-4.0822,-4.0417,-4.0612,-4.0959,-4.1385,-4.1173,-4.0868,-4.0535,-4.022,-3.9522,-3.842,-3.7009,-3.5859,-3.503,-3.3575,-3.2649,-3.231,-3.211,-3.1754,-3.1247,-3.1674,-3.185,0.0,0.0,0.0,0.0,0.0,0.0,0.0,0.0,0.0,0.0,0.0,-3.388,-3.3897,-3.4556,-3.4996,-3.4996,-3.5673,-3.6299,-3.6778,-3.7077,-3.7584,-3.8311,-3.8396,-3.8527,-3.8898,-3.927,-3.9514,-3.9586,-3.9876,-4.0536,-4.166,-4.1813,-4.2202,-4.3217,-4.3809,-4.4215,-4.4621,-4.4976,-4.5449,-4.6194,-4.6921,-4.7276,-4.6989,-4.775,-4.8511,-4.8528,-4.8511,-4.8612,-4.8917,-4.9018,-4.9018,-4.9018,-4.9018,-4.9018,-4.9018,-4.9018,-4.9018,-4.9018,-4.9018,-4.9018,-5.1976,-5.1969,-5.1897,-5.1112,-4.9897,-4.9695,-4.9137,-4.8244,-4.7005,-4.6626,-4.6793,-4.5493,-4.4506,-4.3757,-4.3112,-4.2818,-4.2783,-4.2154,-4.1802,-4.1714,-4.1714,-4.1661,-4.1595,-4.1595,-4.1578,-4.1578,-4.1578,-4.1291,-4.0803,-4.0786,-4.0535,-4.0121,-4.0113,-4.0113,-4.0121,-4.0577,-4.0803,-4.078,-4.0319,-4.0113,-4.0096,-3.9377,-3.8937,-3.8768,-3.6755,-3.5515,-3.5295,-3.3998,-3.2916,-3.2209,-3.2226,-3.2005,-3.1376,-3.1447,-3.1749,0.0,-3.253,0.0,0.0,0.0,0.0,0.0,0.0,0.0,0.0,-3.4641,-3.4624,-3.4641,-3.5233,-3.5633,-3.5735,-3.6383,-3.688,-3.7083,-3.7669,-3.8345,-3.9063,-3.9049,-3.8975,-3.8912,-3.9437,-3.9532,-3.8881,-3.9385,-4.0068,-4.0843,-4.092,-4.1298,-4.2631,-4.3075,-4.325,-4.3238,-4.3822,-4.4411,-4.519,-4.5967,-4.6469,-4.6642,-4.7242,-4.775,-4.7736,-4.7736,-4.797,-4.8511,-4.8612,-4.8663,-4.8731,-4.8748,-4.8849,-4.8815,-4.89,-4.9001,-4.9018,-4.9018,-4.9018,-5.1292,-5.1292,-5.1276,-5.0748,-4.991,-4.9877,-4.9333,-4.8435,-4.8065,-4.7057,-4.5601,-4.4841,-4.3821,-4.2646,-4.2492,-4.2424,-4.2424,-4.227,-4.1895,-4.1289,-4.1331,-4.099,-4.0451,-4.0434,-4.0434,-4.0434,-4.0417,-4.036,-4.0237,-4.0237,-4.0204,-4.0096,-4.0113,-4.0113,-4.0096,0.0,0.0,0.0,-4.0146,-4.0113,-4.0079,-3.9385,-3.87,-3.8091,-3.6479,0.0,-3.388,-3.2966,-3.2175,-3.1461,-3.1989,0.0,0.0,0.0,0.0,0.0,0.0,0.0,0.0,0.0,0.0,0.0,-3.5464,-3.5397,-3.538,-3.538,-3.538,-3.538,-3.5515,-3.5853,-3.6524,-3.6711,-3.7286,-3.843,-3.87,-3.9097,-3.9749,-3.9315,-3.8927,-3.8891,-3.8541,-3.8177,-3.8064,-3.8149,-3.8791,-3.9985,-3.9736,-3.9736,-4.0619,-4.1702,-4.2402,-4.2444,-4.2616,-4.2894,-4.3654,-4.4467,-4.5313,-4.577,-4.6515,-4.6955,-4.7005,-4.7005,-4.7022,-4.7259,-4.7225,-4.7259,-4.7259,-4.7682,-4.8122,-4.8108,-4.8578,-4.9018,-4.9018,-4.9001,-4.9018,-5.0554,0.0,-5.0973,-5.0461,0.0,-4.9776,-4.9205,-4.8081,-4.7659,-4.6525,-4.4973,-4.4948,-4.4371,-4.343,-4.3014,-4.2658,-4.2269,-4.1931,-4.1356,-4.0663,-4.0646,-4.0485,-4.0113,-4.0113,-4.0113,-4.0113,-4.0113,-4.0113,-4.0113,-4.0113,-4.0113,-4.0113,-4.0113,-4.0113,-4.0113,-4.0113,-4.0113,-4.0113,-4.0113,-4.0113,-4.0079,-3.936,-3.865,-3.7922,-3.6394,0.0,0.0,0.0,0.0,0.0,0.0,0.0,0.0,-3.3203,0.0,-3.3931,-3.4286,-3.4658,-3.5013,-3.538,-3.5616,-3.5616,-3.5616,-3.5616,-3.5616,-3.5616,-3.5616,-3.5616,-3.5616,-3.5943,-3.6711,-3.7151,-3.777,-3.8853,-3.8959,-3.9105,-3.937,-3.8843,-3.8201,-3.7844,-3.779,-3.7661,-3.7233,-3.7573,-3.8049,-3.8801,-3.8602,-3.8488,-3.9011,-4.0209,-4.1342,-4.2113,-4.2526,-4.2953,-4.3776,-4.4549,-4.4955,-4.5245,-4.5771,-4.6194,-4.6261,-4.6261,-4.6363,-4.6684,-4.6786,-4.6786,-4.6819,-4.7124,-4.7361,-4.7378,-4.7648,-4.8054,-4.8376,-4.8748,-4.9001,-4.9821,-4.9879,-5.0472,-5.005,-4.9043,-4.9559,-4.8904,-4.7482,0.0,0.0,0.0,-4.5178,-4.5079,-4.4564,-4.391,-4.3284,-4.2675,-4.2083,-4.139,-4.0705,-4.0688,-4.0553,-4.0316,-4.0299,-4.0231,-4.0113,-4.0113,-4.0113,-4.0113,-4.0113,-4.0113,-4.0113,-4.0113,-4.0113,-4.0113,-4.0113,-4.0113,-4.0113,-4.0113,-4.0113,-4.0079,-3.9377,-3.865,-3.7922,-3.6529,-3.5419,-3.4544,-3.3914,-3.3541,-3.3423,-3.3525,-3.3592,-3.3592,-3.3728,-3.4066,-3.4641,-3.4692,-3.4962,-3.5549,-3.5616,-3.5616,-3.5616,-3.5616,-3.5616,-3.5616,-3.5616,-3.565,-3.5785,-3.5684,-3.5977,-3.6902,-3.7384,-3.7984,-3.8707,-3.8739,-3.8701,-3.8663,-3.8048,-3.7322,-3.6798,-3.704,-3.7145,-3.6508,-3.6935,-3.7472,-3.7544,-3.7589,-3.7573,-3.7756,-3.8769,-4.004,-4.1162,-4.1661,-4.2619,-4.3712,-4.4219,-4.4648,-4.4204,-4.4637,-4.5128,-4.5263,-4.5297,-4.5602,-4.616,-4.6397,-4.6346,-4.638,-4.6464,-4.6583,-4.6599,-4.6718,-4.6972,-4.7581,-4.8173,-4.8629,-4.9121,-4.9152,-4.9243,-4.9199,-4.9001,-4.908,-4.829,-4.6855,-4.6016,-4.5563,-4.5329,-4.4906,-4.4709,-4.4598,-4.4496,-4.4378,-4.4293,-4.4175,-4.3673,-4.2963,-4.2919,-4.2269,-4.1068,-4.1052,-4.0713,-4.013,-4.0113,-4.0113,-4.0113,-4.0113,-4.0113,-4.0113,-4.0113,-4.0113,-4.0113,-4.0113,-4.0113,-4.0113,-4.0113,-4.0113,-4.0096,-3.936,-3.865,-3.7922,-3.7077,-3.5949,-3.4556,-3.4387,-3.4049,-3.3457,-3.3998,-3.4353,-3.4353,-3.4928,-3.5329,-3.543,-3.5453,-3.5498,-3.5583,-3.5616,-3.5616,-3.5616,-3.5616,-3.5616,-3.5616,-3.5616,-3.5893,-3.6502,-3.5971,-3.6179,-3.7408,-3.7166,-3.718,-3.789,-3.7955,-3.795,-3.795,-3.7263,-3.6737,-3.6554,-3.6117,-3.5878,-3.5782,-3.5846,-3.618,-3.6631,-3.6768,-3.6768,-3.6892,-3.7436,-3.8216,-3.8919,-3.92,-3.988,-4.1431,-4.1593,-4.2194,-4.2544,-4.2811,-4.3234,-4.3758,-4.3798,-4.4113,-4.479,-4.4987,-4.5004,-4.5004,-4.5432,-4.5771,-4.5889,-4.6244,-4.6718,-4.6921,-4.7094,-4.7534,-4.8646,-4.8934,-4.8578,-4.8646,-4.8968,-4.8595,-4.78,-4.6747,-4.5942,-4.5374,-4.4988,-4.4737,-4.4598,-4.4598,-4.4598,-4.4361,-4.3944,-4.3944,-4.3521,-4.2844,-4.2794,-4.2236,-4.1271,-4.1204,-4.0798,-4.013,-4.0113,-4.0113,-4.0113,-4.0113,-4.0113,-4.0113,-4.0113,-4.0113,-4.0113,-4.0113,-4.0113,-4.0113,-4.0113,-4.0113,-4.0113,-3.9749,-3.9063,-3.7956,-3.7567,-3.6671,-3.5165,-3.5098,-3.4962,-3.4602,-3.4928,-3.5098,-3.5115,-3.5414,-3.5616,-3.5616,-3.5616,-3.5616,-3.5616,-3.5616,-3.5616,-3.5616,-3.5616,-3.5616,-3.5616,-3.5616,-3.5752,-3.609,-3.5484,-3.5649,-3.7037,-3.6584,-3.6583,-3.7706,-3.7427,-3.716,-3.7054,-3.6461,-3.5991,-3.5975,-3.5733,-3.5504,-3.5489,-3.5489,-3.5587,-3.5975,-3.5991,-3.6006,-3.6023,-3.6281,-3.6868,-3.7898,-3.8795,-3.9747,-4.0881,-4.1499,-4.1848,-4.226,-4.2303,-4.2422,-4.276,-4.2794,-4.3132,-4.3775,-4.3944,-4.4147,-4.4479,-4.4852,-4.5043,-4.5111,-4.5314,-4.5715,-4.6029,-4.6152,-4.6486,-4.8446,-4.8951,-4.8392,-4.8494,-4.8934,-4.821,-4.7479,-4.6735,-4.6024,-4.5297,-4.4666,-4.4598,-4.4598,-4.4598,-4.4598,-4.4147,-4.3487,-4.3403,-4.3014,-4.2337,-4.2303,-4.1914,-4.1255,-4.1204,-4.0815,-4.018,-4.0113,-4.0113,-4.0113,-4.0113,-4.0113,-4.0113,-4.0113,-4.0113,-4.0113,-4.0113,-4.0113,-4.0113,-4.0113,-4.0113,-4.0113,-4.0113,-3.9462,-3.8261,-3.799,-3.728,-3.5977,-3.5684,-3.5616,-3.5616,-3.5616,-3.5616,-3.5616,-3.5616,-3.5616,-3.5616,-3.5616,-3.5616,-3.5616,-3.5616,-3.5532,-3.5385,-3.5385,-3.5316,-3.5161,-3.5138,-3.5291,-3.5495,-3.5034,-3.5087,-3.5954,-3.5748,-3.5871,-3.6884,-3.6675,-3.6368,-3.6306,-3.5846,-3.5489,-3.5489,-3.5489,-3.5489,-3.5489,-3.5489,-3.5522,-3.5522,-3.5489,-3.5489,-3.5489,-3.5489,-3.6056,-3.7234,-3.8586,-3.9562,-4.0565,-4.1257,-4.1632,-4.1822,-4.1771,-4.1779,-4.1931,-4.2033,-4.2472,-4.3156,-4.3453,-4.3792,-4.4412,-4.4615,-4.4649,-4.4682,-4.475,-4.4869,-4.5319,-4.4906,-4.5253,-4.8934,-4.8984,-4.8883,-4.8934,-4.8917,-4.824,-4.7496,-4.6735,-4.6007,-4.528,-4.4632,-4.4598,-4.4598,-4.4598,-4.4598,-4.4164,-4.3436,-4.3403,-4.3014,-4.2354,-4.2303,-4.1914,-4.1238,-4.1204,-4.0815,-4.018,-4.0113,-4.0113,-4.0113,-4.0113,-4.0113,-4.0113,-4.0113,-4.0113,-4.0113,-4.0113,-4.0113,-4.0113,-4.0113,-4.0113,-4.0113,-4.0113,-3.9723,-3.892,-3.8244,-3.7516,-3.6677,-3.5994,-3.5616,-3.5616,-3.5616,-3.5616,-3.5616,-3.5616,-3.5616,-3.565,-3.5633,-3.5616,-3.5633,-3.5616,-3.5396,-3.4759,-3.4776,-3.4503,-3.3937,-3.3836,-3.4379,-3.5186,-3.4995,-3.4693,-3.4855,-3.4745,-3.4812,-3.5124,-3.5448,-3.5602,-3.5651,-3.5522,-3.5489,-3.5489,-3.5489,-3.5489,-3.5489,-3.5489,-3.5489,-3.5489,-3.5489,-3.5489,-3.5489,-3.5489,-3.5701,-3.6585,-3.7484,-3.8321,-3.9144,-3.9802,-4.0374,-4.04,-4.0367,-4.0688,-4.1102,-4.1356,-4.1711,-4.2692,-4.3318,-4.3589,-4.4198,-4.4598,-4.4598,-4.4598,-4.457,-4.4621,-4.453,-4.36,-4.3636,-4.8612,-4.8951,-4.8545,-4.8629,-4.8866,-4.8193,-4.7496,-4.6735,-4.6024,-4.528,-4.4649,-4.4598,-4.4598,-4.4598,-4.4598,-4.4164,-4.3409,-4.3403,-4.3014,-4.2337,-4.2303,-4.1897,-4.1271,-4.1204,-4.0815,-4.0163,-4.0113,-4.0113,-4.0113,-4.0113,-4.0113,-4.0113,-4.0113,-4.0113,-4.0113,-4.0113,-4.0113,-4.0113,-4.0113,-4.0113,-4.0113,-4.0113,-3.9757,-3.9056,-3.8717,-3.7973,-3.6931,-3.6474,-3.6096,-3.565,-3.5616,-3.5819,-3.6282,-3.5876,-3.6005,-3.6834,-3.6975,-3.6952,-3.6958,-3.6569,-3.619,-3.5901,-3.5459,-3.4894,-3.4284,-3.4186,-3.4288,-3.4298,-3.4139,-3.4112,-3.449,-3.4513,-3.465,-3.5015,-3.5355,-3.5489,-3.5489,-3.5489,-3.5489,-3.5489,-3.5489,-3.5489,-3.5489,-3.5489,-3.5489,-3.5489,-3.5489,-3.5489,-3.5489,-3.5489,-3.5604,-3.6006,-3.6965,-3.8019,-3.8745,-3.9139,-3.9584,-3.9969,-4.0113,-4.0299,-4.0451,-4.0544,-4.0916,-4.1999,-4.2472,-4.3014,-4.3724,-4.4299,-4.4598,-4.4536,-4.453,-4.4456,-4.3786,-4.2764,-4.3073,-4.8511,-4.8849,-4.8193,-4.8223,-4.8629,-4.7919,-4.7175,-4.6481,-4.5923,-4.528,-4.4632,-4.4598,-4.4479,-4.4282,-4.4265,-4.3842,-4.3149,-4.2885,-4.2405,-4.1745,-4.1677,-4.1433,-4.0933,-4.0882,-4.0612,-4.018,-4.0113,-4.0113,-4.0113,-4.0113,-4.0113,-4.0113,-4.0113,-4.0113,-4.0113,-4.0113,-4.0113,-4.0113,-4.0113,-4.0113,-4.0113,-4.0113,-3.9842,-3.9351,-3.9131,-3.8481,-3.7449,-3.7212,-3.6823,-3.6259,-3.6242,-3.6502,-3.7026,-3.6535,-3.6732,-3.7729,-3.7898,-3.7793,-3.759,-3.7101,-3.6616,-3.6207,-3.5626,-3.4941,-3.426,-3.4062,-3.3824,-3.3385,-3.3391,-3.3744,-3.4116,-3.4393,-3.4713,-3.516,-3.5355,-3.5489,-3.5489,-3.5489,-3.5489,-3.5489,-3.5489,-3.5489,-3.5489,-3.5489,-3.5489,-3.5489,-3.5489,-3.5489,-3.5489,-3.5489,-3.5554,-3.5797,-3.6829,-3.7645,-3.8469,-3.9113,-3.9463,-3.9808,-4.0113,-4.0113,-4.0113,-4.0113,-4.0367,-4.1457,-4.1779,-4.2219,-4.2912,-4.3589,-4.4057,-4.4165,-4.4056,-4.3776,-4.3351,-4.2366,-4.223,-4.8984,-4.8883,-4.8176,-4.7902,-4.7855,-4.7158,-4.6447,-4.5821,-4.5703,-4.5246,-4.4649,-4.4547,-4.4147,-4.3494,-4.3426,-4.3047,-4.232,-4.1694,-4.1035,-4.0383,-4.0299,-4.0214,-4.0146,-4.0146,-4.0146,-4.0113,-4.0113,-4.0113,-4.0113,-4.0113,-4.0113,-4.0113,-4.0113,-4.0113,-4.0113,-4.0113,-4.0113,-4.0113,-4.0113,-4.0113,-4.0113,-4.0113,-4.0096,-3.9943,-3.9385,-3.8971,-3.8768,-3.821,-3.7821,-3.777,-3.7696,-3.7763,-3.7855,-3.7821,-3.7872,-3.7939,-3.7956,-3.7616,-3.7053,-3.692,-3.6348,-3.5136,-3.4939,-3.4161,-3.3145,-3.3145,-3.3056,-3.2615,-3.3322,-3.3683,-3.3818,-3.4326,-3.4623,-3.4713,-3.5175,-3.5459,-3.5489,-3.5489,-3.5489,-3.5489,-3.5489,-3.5489,-3.5489,-3.5489,-3.5489,-3.5489,-3.5489,-3.5489,-3.5489,-3.5489,-3.575,-3.6228,-3.6646,-3.6964,-3.7806,-3.8816,-3.9705,-3.9969,-3.9927,-4.0045,-4.007,-4.0197,-4.0561,-4.0899,-4.1238,-4.1644,-4.2134,-4.252,-4.2816,-4.2852,-4.2632,-4.2377,-4.2779,-4.172,-4.1458,-4.8731,-4.821,-4.7513,-4.7192,-4.7107,-4.6413,-4.594,-4.5669,-4.5179,-4.4869,-4.4547,-4.4062,-4.3673,-4.3341,-4.2395,-4.1863,-4.1576,-4.1305,-4.0798,-4.0163,-4.0113,-4.0113,-4.0113,-4.0113,-4.0113,-4.0113,-4.0113,-4.0113,-4.0113,-4.0113,-4.0113,-4.0113,-4.0113,-4.0113,-4.0113,-4.0113,-4.0113,-4.0113,-4.0113,-4.0113,-4.0113,-4.0113,-4.0113,-4.0096,-3.9859,-3.9486,-3.9005,-3.8734,-3.8396,-3.7939,-3.7898,-3.8125,-3.8582,-3.9039,-3.9089,-3.8717,-3.9039,-3.9176,-3.8816,-3.8014,-3.7316,-3.6753,-3.5759,-3.469,-3.3729,-3.4014,-3.4211,-3.3603,-3.4227,-3.4775,-3.4838,-3.5011,-3.513,-3.516,-3.534,-3.5489,-3.5489,-3.5489,-3.5489,-3.5489,-3.5489,-3.5489,-3.5489,-3.5489,-3.5489,-3.5489,-3.5489,-3.5489,-3.5489,-3.5489,-3.5651,-3.6006,-3.6738,-3.7279,-3.695,-3.8358,-3.9358,-3.9506,-3.9584,-3.961,-3.9653,-3.9995,-4.035,-4.051,-4.0781,-4.1041,-4.1488,-4.1432,-4.1683,-4.1714,-4.1418,-4.1835,-4.2298,-4.1347,-4.0987,-4.8223,-4.7496,-4.6752,-4.6447,-4.6346,-4.5652,-4.5331,-4.528,-4.4818,-4.4434,-4.4147,-4.3639,-4.3156,-4.2581,-4.1634,-4.1052,-4.0865,-4.0832,-4.0561,-4.013,-4.0113,-4.0113,-4.0113,-4.0113,-4.0113,-4.0113,-4.0113,-4.0113,-4.0113,-4.0113,-4.0113,-4.0113,-4.0113,-4.0113,-4.0113,-4.0113,-4.0113,-4.0113,-4.0113,-4.0113,-4.0113,-4.0113,-4.0113,-4.0113,-4.0113,-3.9876,-3.9385,-3.9343,-3.9157,-3.8684,-3.8599,-3.8836,-3.9368,-3.9825,-3.9893,-3.9486,-3.9808,-3.9969,-3.9664,-3.878,-3.8147,-3.786,-3.6946,-3.5833,-3.4852,-3.5529,-3.5342,-3.4745,-3.4926,-3.5569,-3.5505,-3.5489,-3.5489,-3.5489,-3.5489,-3.5489,-3.5489,-3.5489,-3.5489,-3.5489,-3.5489,-3.5489,-3.5489,-3.5489,-3.5489,-3.5489,-3.5489,-3.5489,-3.5489,-3.5504,-3.5651,-3.5878,-3.6692,-3.716,-3.7219,-3.8121,-3.887,-3.9076,-3.9262,-3.9262,-3.9506,-3.985,-4.0079,-4.0189,-4.035,-4.0551,-4.0588,-4.0486,-4.0534,-4.0662,-4.0958,-4.1325,-4.1357,-4.1164,-4.0749,-4.7445,-4.6718,-4.5991,-4.5703,-4.5602,-4.5004,-4.4649,-4.4682,-4.4615,-4.4198,-4.3606,-4.3358,-4.2564,-4.1508,-4.1187,-4.0781,-4.0299,-4.0231,-4.0197,-4.0113,-4.0113,-4.0113,-4.0113,-4.0113,-4.0113,-4.0113,-4.0113,-4.0113,-4.0113,-4.0113,-4.0113,-4.0113,-4.0113,-4.0113,-4.0113,-4.0113,-4.0113,-4.0113,-4.0113,-4.0113,-4.0113,-4.0113,-4.0113,-4.0113,-4.0113,-4.0079,-4.0062,-4.0045,-3.9977,-3.9977,-3.9977,-4.0062,-3.9994,-4.0096,-4.0079,-4.0028,-4.0096,-3.9714,-3.911,-3.8967,-3.8547,-3.806,-3.7835,-3.7314,-3.6571,-3.6702,-3.6527,-3.5739,-3.5742,-3.5767,-3.5678,-3.5604,-3.5587,-3.5489,-3.5489,-3.5489,-3.5489,-3.5489,-3.5489,-3.5489,-3.5489,-3.5489,-3.5489,-3.5489,-3.5489,-3.5489,-3.5489,-3.5489,-3.5489,-3.5489,-3.5799,-3.6244,-3.6615,-3.6859,-3.7338,-3.7851,-3.829,-3.8663,-3.8897,-3.9059,-3.9506,-3.9876,-4.0045,-4.0163,-4.0163,-4.0307,-3.9495,-3.9455,-3.9904,-4.0103,-4.0447,-4.0769,-4.0835,-4.0724,-4.0205,-4.6261,-4.5957,-4.5246,-4.4953,-4.4908,-4.4682,-4.4598,-4.4598,-4.4598,-4.413,-4.342,-4.2861,-4.2083,-4.1238,-4.0679,-4.0333,-4.0113,-4.0113,-4.0113,-4.0113,-4.0113,-4.0113,-4.0113,-4.0113,-4.0113,-4.0113,-4.0113,-4.0113,-4.0113,-4.0113,-4.0113,-4.0113,-4.0113,-4.0113,-4.0113,-4.0113,-4.0113,-4.0113,-4.0113,-4.0113,-4.0113,-4.0113,-4.0113,-4.0113,-4.0113,-4.0113,-4.0113,-4.0113,-4.0113,-4.0113,-4.0113,-4.0113,-4.0113,-4.0113,-4.0113,-4.0113,-4.0113,-4.0045,-3.9724,-3.9261,-3.8931,-3.8589,-3.8231,-3.7575,-3.7061,-3.7761,-3.7694,-3.681,-3.7247,-3.7508,-3.6538,-3.6244,-3.6023,-3.5569,-3.5489,-3.5489,-3.5489,-3.5489,-3.5489,-3.5489,-3.5489,-3.5489,-3.5489,-3.5489,-3.5489,-3.5489,-3.5489,-3.5489,-3.5489,-3.5489,-3.5522,-3.5799,-3.6165,-3.6492,-3.6753,-3.7221,-3.7706,-3.8206,-3.8525,-3.9032,-3.9506,-3.9679,-3.9876,-3.9927,-3.9952,-3.9513,-3.8727,-3.8617,-3.9074,-3.9541,-3.9914,-4.0221,-4.0525,-4.0309,-3.9829,-4.5703,-4.5618,-4.4891,-4.4598,-4.4598,-4.4598,-4.4598,-4.4598,-4.4598,-4.3995,-4.3031,-4.2506,-4.1711,-4.0849,-4.0299,-4.0113,-4.0113,-4.0113,-4.0113,-4.0113,-4.0113,-4.0113,-4.0113,-4.0113,-4.0113,-4.0113,-4.0113,-4.0113,-4.0113,-4.0113,-4.0113,-4.0113,-4.0113,-4.0113,-4.0113,-4.0113,-4.0113,-4.0113,-4.0113,-4.0113,-4.0113,-4.0113,-4.0113,-4.0113,-4.0113,-4.0113,-4.0113,-4.0113,-4.0113,-4.0113,-4.0113,-4.0113,-4.0113,-4.0113,-4.0113,-4.0113,-4.0113,-4.0096,-4.0062,-3.9681,-3.9419,-3.9334,-3.8954,-3.8553,-3.8279,-3.9025,-3.8779,-3.8019,-3.8313,-3.8398,-3.7293,-3.6722,-3.6384,-3.5975,-3.5636,-3.5522,-3.5489,-3.5489,-3.5489,-3.5489,-3.5489,-3.5489,-3.5489,-3.5489,-3.5489,-3.5489,-3.5489,-3.5489,-3.5489,-3.5489,-3.5587,-3.5668,-3.5943,-3.6117,-3.6101,-3.6538,-3.7131,-3.7677,-3.8177,-3.887,-3.9506,-3.9411,-3.9463,-3.9289,-3.9236,-3.8497,-3.774,-3.79,-3.8229,-3.8763,-3.926,-3.9537,-3.9749,-3.9809,-3.9517,-4.5669,-4.5602,-4.4919,-4.4598,-4.4598,-4.4598,-4.4598,-4.4598,-4.4598,-4.3836,-4.2658,-4.2371,-4.1585,-4.0451,-4.0197,-4.0113,-4.0113,-4.0113,-4.0113,-4.0113,-4.0113,-4.0113,-4.0113,-4.0113,-4.0113,-4.0113,-4.0113,-4.0113,-4.0113,-4.0113,-4.0113,-4.0113,-4.0113,-4.0113,-4.0113,-4.0113,-4.0113,-4.0113,-4.0113,-4.0113,-4.0113,-4.0113,-4.0113,-4.0113,-4.0113,-4.0113,-4.0113,-4.0113,-4.0113,-4.0113,-4.0113,-4.0113,-4.0113,-4.0113,-4.0113,-4.0113,-4.0113,-4.0113,-4.0113,-4.0028,-3.9994,-3.9977,-3.9926,-4.0096,-3.9859,-3.98,-3.9673,-3.8954,-3.9009,-3.8718,-3.7933,-3.7352,-3.6843,-3.6523,-3.5911,-3.5554,-3.5489,-3.5489,-3.5489,-3.5489,-3.5489,-3.5489,-3.5489,-3.5489,-3.5489,-3.5489,-3.5489,-3.5489,-3.5489,-3.5587,-3.5831,-3.5894,-3.5831,-3.5878,-3.5878,-3.6259,-3.6814,-3.713,-3.7732,-3.8469,-3.9385,-3.9411,-3.8978,-3.8772,-3.8553,-3.7687,-3.7284,-3.7563,-3.7668,-3.796,-3.8407,-3.875,-3.8981,-3.9058,-3.9215,-4.5196,-4.5618,-4.4919,-4.4598,-4.4598,-4.4598,-4.4598,-4.4598,-4.4581,-4.3961,-4.3115,-4.2523,-4.1728,-4.0899,-4.0316,-4.0113,-4.0113,-4.0113,-4.0113,-4.0113,-4.0113,-4.0113,-4.0113,-4.0113,-4.0113,-4.0113,-4.0113,-4.0113,-4.0113,-4.0113,-4.0113,-4.0113,-4.0113,-4.0113,-4.0113,-4.0113,-4.0113,-4.0113,-4.0113,-4.0113,-4.0113,-4.0113,-4.0113,-4.0113,-4.0113,-4.0113,-4.0113,-4.0113,-4.0113,-4.0113,-4.0113,-4.0113,-4.0113,-4.0113,-4.0113,-4.0113,-4.0113,-4.0113,-4.0113,-4.0113,-4.0113,-4.0113,-4.0113,-4.0113,-4.0113,-4.0113,-3.9995,-3.9782,-3.9756,-3.9437,-3.8761,-3.837,-3.7787,-3.6722,-3.6006,-3.5554,-3.5504,-3.5489,-3.5489,-3.5489,-3.5489,-3.5489,-3.5489,-3.5489,-3.5489,-3.5489,-3.5489,-3.5489,-3.5489,-3.5489,-3.5686,-3.5636,-3.5619,-3.5651,-3.5797,-3.6134,-3.6477,-3.6707,-3.7217,-3.7946,-3.8951,-3.9688,-3.9022,-3.8402,-3.8342,-3.7716,-3.7528,-3.7599,-3.756,-3.7301,-3.8137,-3.8715,-3.8454,-3.8422,-3.8721,-4.5669,-4.6532,-4.5483,-4.5043,-4.5038,-4.4722,-4.4598,-4.453,-4.4215,-4.3656,-4.2895,-4.2151,-4.1424,-4.0696,-4.0299,-4.0113,-4.0113,-4.0113,-4.0113,-4.0113,-4.0113,-4.0113,-4.0113,-4.0113,-4.0113,-4.0113,-4.0113,-4.0113,-4.0113,-4.0113,-4.0113,-4.0113,-4.0113,-4.0113,-4.0113,-4.0113,-4.0113,-4.0113,-4.0113,-4.0113,-4.0113,-4.0113,-4.0113,-4.0113,-4.0113,-4.0113,-4.0113,-4.0113,-4.0113,-4.0113,-4.0113,-4.0113,-4.0113,-4.0113,-4.0113,-4.0113,-4.0113,-4.0113,-4.0113,-4.0113,-4.0113,-4.0113,-4.0113,-4.0113,-4.0113,-4.0113,-4.0113,-4.007,-4.0113,-3.9876,-3.9489,-3.9113,-3.8185,-3.6858,-3.6228,-3.5846,-3.5569,-3.5489,-3.5489,-3.5489,-3.5489,-3.5489,-3.5489,-3.5489,-3.5489,-3.5489,-3.5489,-3.5489,-3.5489,-3.5489,-3.5489,-3.5489,-3.5489,-3.5554,-3.5587,-3.5863,-3.6212,-3.6415,-3.6994,-3.7658,-3.8088,-3.9129,-3.8663,-3.7991,-3.7975,-3.7777,-3.7334,-3.6987,-3.6855,-3.7036,-3.7999,-3.8251,-3.7865,-3.7943,-3.8242,-4.6515,-4.7635,-4.6278,-4.5669,-4.5432,-4.4902,-4.4513,-4.4299,-4.3775,-4.3064,-4.232,-4.1542,-4.0984,-4.0189,-4.0231,-4.0113,-4.0113,-4.0113,-4.0113,-4.0113,-4.0113,-4.0113,-4.0113,-4.0113,-4.0113,-4.0113,-4.0113,-4.0113,-4.0113,-4.0113,-4.0113,-4.0113,-4.0113,-4.0113,-4.0113,-4.0113,-4.0113,-4.0113,-4.0113,-4.0113,-4.0113,-4.0113,-4.0113,-4.0113,-4.0113,-4.0113,-4.0113,-4.0113,-4.0113,-4.0113,-4.0113,-4.0113,-4.0113,-4.0113,-4.0113,-4.0113,-4.0113,-4.0113,-4.0113,-4.0113,-4.0113,-4.0113,-4.0113,-4.0113,-4.0113,-4.0113,-4.0113,-4.0113,-4.0113,-4.0045,-3.9901,-3.9385,-3.8342,-3.7128,-3.6707,-3.6244,-3.5718,-3.5489,-3.5489,-3.5489,-3.5489,-3.5489,-3.5489,-3.5489,-3.5489,-3.5489,-3.5489,-3.5489,-3.5489,-3.5489,-3.5489,-3.5489,-3.5489,-3.5489,-3.5489,-3.5554,-3.5879,-3.6228,-3.6859,-3.7322,-3.701,-3.7557,-3.7629,-3.7483,-3.7379,-3.6873,-3.6132,-3.5944,-3.606,-3.6348,-3.7056,-3.7116,-3.7045,-3.7464,-3.7793,-4.621,-4.6955,-4.6075,-4.5348,-4.4886,-4.4666,-4.4231,-4.3673,-4.346,-4.2878,-4.2236,-4.1508,-4.1085,-4.0882,-4.0333,-4.0113,-4.0113,-4.0113,-4.0113,-4.0113,-4.0113,-4.0113,-4.0113,-4.0113,-4.0113,-4.0113,-4.0113,-4.0113,-4.0113,-4.0113,-4.0113,-4.0113,-4.0113,-4.0113,-4.0113,-4.0113,-4.0113,-4.0113,-4.0113,-4.0113,-4.0113,-4.0113,-4.0113,-4.0113,-4.0113,-4.0113,-4.0113,-4.0113,-4.0113,-4.0113,-4.0113,-4.0113,-4.0113,-4.0113,-4.0113,-4.0113,-4.0113,-4.0113,-4.0113,-4.0113,-4.0113,-4.0113,-4.0113,-4.0113,-4.0113,-4.0113,-4.0113,-4.0113,-4.0113,-4.0113,-4.002,-3.9368,-3.858,-3.7732,-3.6994,-3.6353,-3.5686,-3.5489,-3.5489,-3.5489,-3.5489,-3.5489,-3.5489,-3.5489,-3.5489,-3.5489,-3.5489,-3.5489,-3.5489,-3.5489,-3.5489,-3.5489,-3.5489,-3.5489,-3.5489,-3.5489,-3.5668,-3.5911,-3.6492,-3.6814,-3.6508,-3.6554,-3.6889,-3.6873,-3.6752,-3.6134,-3.5554,-3.5504,-3.5767,-3.5926,-3.6073,-3.6222,-3.6477,-3.6926,-3.712,-4.6346,-4.7192,-4.616,-4.5483,-4.5026,-4.4367,-4.3809,-4.3291,-4.2625,-4.2168,-4.1694,-4.1001,-4.0696,-4.0646,-4.0299,-4.0113,-4.0113,-4.0113,-4.0113,-4.0113,-4.0113,-4.0113,-4.0113,-4.0113,-4.0113,-4.0113,-4.0113,-4.0113,-4.0113,-4.0113,-4.0113,-4.0113,-4.0113,-4.0113,-4.0113,-4.0113,-4.0113,-4.0113,-4.0113,-4.0113,-4.0113,-4.0113,-4.0113,-4.0113,-4.0113,-4.0113,-4.0113,-4.0113,-4.0113,-4.0113,-4.0113,-4.0113,-4.0113,-4.0113,-4.0113,-4.0113,-4.0113,-4.0113,-4.0113,-4.0113,-4.0113,-4.0113,-4.0113,-4.0113,-4.0113,-4.0113,-4.0113,-4.0113,-4.0113,-4.0113,-4.0087,-3.9808,-3.9102,-3.8386,-3.7616,-3.6859,-3.618,-3.5718,-3.5489,-3.5489,-3.5489,-3.5489,-3.5489,-3.5489,-3.5489,-3.5489,-3.5489,-3.5489,-3.5489,-3.5489,-3.5489,-3.5489,-3.5489,-3.5489,-3.5489,-3.5489,-3.5489,-3.5636,-3.5863,-3.6022,-3.5878,-3.6101,-3.6446,-3.6321,-3.6196,-3.5991,-3.5522,-3.5522,-3.5489,-3.5639,-3.5759,-3.5729,-3.5833,-3.6178,-3.6267,-4.6498,-4.7601,-4.6261,-4.5652,-4.5348,-4.4181,-4.346,-4.3014,-4.1931,-4.1424,-4.0933,-4.0324,-4.0214,-4.0113,-4.013,-4.0113,-4.0113,-4.0113,-4.0113,-4.0113,-4.0113,-4.0113,-4.0113,-4.0113,-4.0113,-4.0113,-4.0113,-4.0113,-4.0113,-4.0113,-4.0113,-4.0113,-4.0113,-4.0113,-4.0113,-4.0113,-4.0113,-4.0113,-4.0113,-4.0113,-4.0113,-4.0113,-4.0113,-4.0113,-4.0113,-4.0113,-4.0113,-4.0113,-4.0113,-4.0113,-4.0113,-4.0113,-4.0113,-4.0113,-4.0113,-4.0113,-4.0113,-4.0113,-4.0113,-4.0113,-4.0113,-4.0113,-4.0113,-4.0113,-4.0113,-4.0113,-4.0113,-4.0113,-4.0113,-4.0113,-4.0113,-4.002,-3.9636,-3.8978,-3.8274,-3.7587,-3.6737,-3.6023,-3.5782,-3.5489,-3.5489,-3.5489,-3.5489,-3.5489,-3.5489,-3.5489,-3.5489,-3.5489,-3.5489,-3.5489,-3.5489,-3.5489,-3.5489,-3.5489,-3.5489,-3.5489,-3.5489,-3.5522,-3.5572,-3.5554,-3.5504,-3.5733,-3.5958,-3.5782,-3.5604,-3.5522,-3.5522,-3.5489,-3.5489,-3.5489,-3.5519,-3.5594,-3.5564,-3.5504,-3.5564,-4.621,-4.6904,-4.6075,-4.5348,-4.4801,-4.4451,-4.3589,-4.2574,-4.2134,-4.1373,-4.0367,-4.0163,-4.0113,-4.0113,-4.0113,-4.0113,-4.0113,-4.0113,-4.0113,-4.0113,-4.0113,-4.0113,-4.0113,-4.0113,-4.0113,-4.0113,-4.0113,-4.0113,-4.0113,-4.0113,-4.0113,-4.0113,-4.0113,-4.0113,-4.0113,-4.0113,-4.0113,-4.0113,-4.0113,-4.0113,-4.0113,-4.0113,-4.0113,-4.0113,-4.0113,-4.0113,-4.0113,-4.0113,-4.0113,-4.0113,-4.0113,-4.0113,-4.0113,-4.0113,-4.0113,-4.0113,-4.0113,-4.0113,-4.0113,-4.0113,-4.0113,-4.0113,-4.0113,-4.0113,-4.0113,-4.0113,-4.0113,-4.0113,-4.0113,-4.0113,-4.0113,-4.0113,-3.9731,-3.9113,-3.869,-3.8117,-3.7008,-3.6492,-3.6086,-3.5604,-3.5522,-3.5489,-3.5489,-3.5489,-3.5489,-3.5489,-3.5489,-3.5489,-3.5489,-3.5489,-3.5489,-3.5489,-3.5489,-3.5489,-3.5489,-3.5489,-3.5489,-3.5489,-3.5522,-3.5522,-3.5504,-3.5504,-3.5489,-3.5489,-3.5489,-3.5489,-3.5489,-3.5489,-3.5489,-3.5489,-3.5489,-3.5489,-3.5489,-3.5489,-3.5489,-4.5551,-4.6126,-4.5432,-4.4936,-4.4496,-4.3718,-4.2997,-4.2262,-4.15,-4.079,-4.0282,-4.0113,-4.0113,-4.0113,-4.0113,-4.0113,-4.0113,-4.0113,-4.0113,-4.0113,-4.0113,-4.0113,-4.0113,-4.0113,-4.0113,-4.0113,-4.0113,-4.0113,-4.0113,-4.0113,-4.0113,-4.0113,-4.0113,-4.0113,-4.0113,-4.0113,-4.0113,-4.0113,-4.0113,-4.0113,-4.0113,-4.0113,-4.0113,-4.0113,-4.0113,-4.0113,-4.0113,-4.0113,-4.0113,-4.0113,-4.0113,-4.0113,-4.0113,-4.0113,-4.0113,-4.0113,-4.0113,-4.0113,-4.0113,-4.0113,-4.0113,-4.0113,-4.0113,-4.0113,-4.0113,-4.0113,-4.0113,-4.0113,-4.0113,-4.0113,-4.0113,-4.0113,-3.9901,-3.9584,-3.9183,-3.8414,-3.7587,-3.7293,-3.6646,-3.5878,-3.5683,-3.5619,-3.5489,-3.5489,-3.5489,-3.5489,-3.5489,-3.5489,-3.5489,-3.5489,-3.5489,-3.5489,-3.5489,-3.5489,-3.5489,-3.5489,-3.5489,-3.5489,-3.5489,-3.5489,-3.5489,-3.5489,-3.5489,-3.5489,-3.5489,-3.5489,-3.5489,-3.5489,-3.5489,-3.5489,-3.5489,-3.5489,-3.5489,-3.5489,-3.5489,-4.5026,-4.5652,-4.4891,-4.4598,-4.4378,-4.3115,-4.2455,-4.2033,-4.0933,-4.0333,-4.0113,-4.0113,-4.0113,-4.0113,-4.0113,-4.0113,-4.0113,-4.0113,-4.0113,-4.0113,-4.0113,-4.0113,-4.0113,-4.0113,-4.0113,-4.0113,-4.0113,-4.0113,-4.0113,-4.0113,-4.0113,-4.0113,-4.0113,-4.0113,-4.0113,-4.0113,-4.0113,-4.0113,-4.0113,-4.0113,-4.0113,-4.0113,-4.0113,-4.0113,-4.0113,-4.0113,-4.0113,-4.0113,-4.0113,-4.0113,-4.0113,-4.0113,-4.0113,-4.0113,-4.0113,-4.0113,-4.0113,-4.0113,-4.0113,-4.0113,-4.0113,-4.0113,-4.0113,-4.0113,-4.0113,-4.0113,-4.0113,-4.0113,-4.0113,-4.0113,-4.0113,-4.0113,-4.007,-3.9952,-3.9489,-3.8897,-3.8318,-3.7847,-3.7397,-3.6707,-3.6116,-3.5797,-3.5733,-3.5831,-3.5879,-3.5522,-3.5489,-3.5489,-3.5489,-3.5489,-3.5489,-3.5489,-3.5489,-3.5489,-3.5489,-3.5489,-3.5489,-3.5489,-3.5489,-3.5489,-3.5489,-3.5489,-3.5489,-3.5489,-3.5489,-3.5489,-3.5489,-3.5489,-3.5489,-3.5489,-3.5489,-3.5489,-3.5489,-3.5489,-3.5489,-4.5026,-4.5635,-4.4891,-4.4598,-4.4445,-4.3589,-4.2861,-4.2202,-4.1373,-4.0705,-4.0113,-4.0113,-4.0113,-4.013,-4.0163,-4.013,-4.0113,-4.0197,-4.018,-4.013,-4.0113,-4.0113,-4.0113,-4.0113,-4.0113,-4.0113,-4.0113,-4.0113,-4.0113,-4.0113,-4.0113,-4.0113,-4.0113,-4.0113,-4.0113,-4.0113,-4.0113,-4.0113,-4.0113,-4.0113,-4.0113,-4.0113,-4.0113,-4.0113,-4.0113,-4.0113,-4.0113,-4.0113,-4.0113,-4.0113,-4.0113,-4.0113,-4.0113,-4.0113,-4.0113,-4.0113,-4.0113,-4.0113,-4.0113,-4.0113,-4.0113,-4.0113,-4.0113,-4.0113,-4.0113,-4.0113,-4.0113,-4.0113,-4.0113,-4.0113,-4.0113,-4.0113,-4.0113,-4.007,-3.9901,-3.9411,-3.8897,-3.8734,-3.8246,-3.7777,-3.7265,-3.6492,-3.6053,-3.6196,-3.6275,-3.5831,-3.5489,-3.5489,-3.5489,-3.5489,-3.5489,-3.5489,-3.5489,-3.5489,-3.5489,-3.5489,-3.5489,-3.5489,-3.5489,-3.5489,-3.5489,-3.5489,-3.5489,-3.5489,-3.5489,-3.5489,-3.5489,-3.5489,-3.5489,-3.5489,-3.5489,-3.5489,-3.5489,-3.5489,-3.5489,-4.4113,-4.439,-4.4519,-4.4316,-4.3893,-4.3511,-4.298,-4.2252,-4.1508,-4.0781,-4.0214,-4.0113,-4.0113,-4.0197,-4.0502,-4.0485,-4.0265,-4.0476,-4.0451,-4.0146,-4.0113,-4.0113,-4.0113,-4.0113,-4.0113,-4.0113,-4.0113,-4.0113,-4.0113,-4.0113,-4.0113,-4.0113,-4.0113,-4.0113,-4.0113,-4.0113,-4.0113,-4.0113,-4.0113,-4.0113,-4.0113,-4.0113,-4.0113,-4.0113,-4.0113,-4.0113,-4.0113,-4.0113,-4.0113,-4.0113,-4.0113,-4.0113,-4.0113,-4.0113,-4.0113,-4.0113,-4.0113,-4.0113,-4.0113,-4.0113,-4.0113,-4.0113,-4.0113,-4.0113,-4.0113,-4.0113,-4.0113,-4.0113,-4.0113,-4.0113,-4.0113,-4.0113,-4.0113,-4.0113,-4.0113,-3.9662,-3.9315,-3.9532,-3.9279,-3.8832,-3.8362,-3.7632,-3.692,-3.6753,-3.6569,-3.5863,-3.5554,-3.5489,-3.5489,-3.5489,-3.5489,-3.5489,-3.5489,-3.5489,-3.5489,-3.5489,-3.5489,-3.5489,-3.5489,-3.5489,-3.5489,-3.5489,-3.5489,-3.5489,-3.5489,-3.5489,-3.5489,-3.5489,-3.5489,-3.5489,-3.5489,-3.5489,-3.5489,-3.5489,-3.5504,-4.3403,-4.3443,-4.4062,-4.4045,-4.369,-4.3504,-4.298,-4.2236,-4.1525,-4.0781,-4.0265,-4.013,-4.0197,-4.0426,-4.0865,-4.0764,-4.018,-4.0865,-4.0663,-4.0333,-4.0113,-4.0113,-4.0113,-4.0113,-4.0113,-4.0113,-4.0113,-4.0113,-4.0113,-4.0113,-4.0113,-4.0113,-4.0113,-4.0113,-4.0113,-4.0113,-4.0113,-4.0113,-4.0113,-4.0113,-4.0113,-4.0113,-4.0113,-4.0113,-4.0113,-4.0113,-4.0113,-4.0113,-4.0113,-4.0113,-4.0113,-4.0113,-4.0113,-4.0113,-4.0113,-4.0113,-4.0113,-4.0113,-4.0113,-4.0113,-4.0113,-4.0113,-4.0113,-4.0113,-4.0113,-4.0113,-4.0113,-4.0113,-4.0113,-4.0113,-4.0113,-4.0113,-4.0113,-4.0113,-4.0096,-3.9688,-3.9437,-3.9679,-3.9825,-3.9506,-3.9146,-3.8941,-3.8262,-3.7616,-3.6919,-3.6038,-3.5668,-3.5554,-3.5587,-3.5668,-3.5701,-3.5765,-3.5831,-3.575,-3.5489,-3.5489,-3.5489,-3.5489,-3.5489,-3.5489,-3.5489,-3.5489,-3.5489,-3.5489,-3.5489,-3.5489,-3.5489,-3.5489,-3.5489,-3.5489,-3.5489,-3.5489,-3.5489,-3.5489,-3.5504,-4.3403,-4.3392,-4.3443,-4.3842,-4.4344,-4.368,-4.2963,-4.2151,-4.1491,-4.0781,-4.0163,-4.013,-4.0451,-4.095,-4.1085,-4.0882,-4.0146,-4.0865,-4.0696,-4.035,-4.0113,-4.0113,-4.0113,-4.0113,-4.0113,-4.0113,-4.0113,-4.0113,-4.0113,-4.0113,-4.0113,-4.0113,-4.0113,-4.0113,-4.0113,-4.0113,-4.0113,-4.0113,-4.0113,-4.0113,-4.0113,-4.0113,-4.0113,-4.0113,-4.0113,-4.0113,-4.0113,-4.0113,-4.0113,-4.0113,-4.0113,-4.0113,-4.0113,-4.0113,-4.0113,-4.0113,-4.0113,-4.0113,-4.0113,-4.0113,-4.0113,-4.0113,-4.0113,-4.0113,-4.0113,-4.0113,-4.0113,-4.0113,-4.0113,-4.0113,-4.0113,-4.0113,-4.0113,-4.0113,-4.0113,-3.9995,-3.9808,-3.9876,-3.9995,-3.9995,-3.9799,-3.9523,-3.9172,-3.8442,-3.7616,-3.6722,-3.6258,-3.6164,-3.6085,-3.6116,-3.6116,-3.6164,-3.6306,-3.6102,-3.5572,-3.5489,-3.5489,-3.5489,-3.5489,-3.5489,-3.5489,-3.5489,-3.5504,-3.5489,-3.5489,-3.5489,-3.5489,-3.5489,-3.5489,-3.5489,-3.5489,-3.5489,-3.5489,-3.5489,-3.5489,-4.3403,-4.3369,-4.2929,-4.2895,-4.3149,-4.2844,-4.2303,-4.166,-4.1322,-4.0781,-4.0146,-4.013,-4.0265,-4.0696,-4.1491,-4.1187,-4.0417,-4.139,-4.0967,-4.0434,-4.0113,-4.0113,-4.0113,-4.0113,-4.0113,-4.0113,-4.0113,-4.0113,-4.0113,-4.0113,-4.0113,-4.0113,-4.0113,-4.0113,-4.0113,-4.0113,-4.0113,-4.0113,-4.0113,-4.0113,-4.0113,-4.0113,-4.0113,-4.0113,-4.0113,-4.0113,-4.0113,-4.0113,-4.0113,-4.0113,-4.0113,-4.0113,-4.0113,-4.0113,-4.0113,-4.0113,-4.0113,-4.0113,-4.0113,-4.0113,-4.0113,-4.0113,-4.0113,-4.0113,-4.0113,-4.0113,-4.0113,-4.0113,-4.0113,-4.0113,-4.0113,-4.0113,-4.0113,-4.0113,-4.0113,-4.0113,-4.0113,-4.0113,-4.0096,-4.0045,-4.0045,-3.9944,-3.9558,-3.9156,-3.833,-3.7499,-3.7086,-3.6753,-3.6662,-3.6753,-3.6829,-3.6569,-3.6631,-3.6337,-3.5799,-3.5636,-3.5489,-3.5489,-3.5522,-3.5554,-3.5554,-3.5504,-3.5504,-3.5504,-3.5489,-3.5489,-3.5489,-3.5489,-3.5489,-3.5489,-3.5489,-3.5489,-3.5489,-3.5489,-3.5489,-4.3527,-4.3589,-4.2472,-4.21,-4.2269,-4.2303,-4.188,-4.1288,-4.1221,-4.1102,-4.0722,-4.057,-4.0587,-4.1027,-4.1687,-4.145,-4.0823,-4.1365,-4.1102,-4.0705,-4.0333,-4.0265,-4.018,-4.0113,-4.0113,-4.0113,-4.0113,-4.0113,-4.0113,-4.0113,-4.0113,-4.0113,-4.0113,-4.0113,-4.0113,-4.0113,-4.0113,-4.0113,-4.0113,-4.0113,-4.0113,-4.0113,-4.0113,-4.0113,-4.0113,-4.0113,-4.0113,-4.0113,-4.0113,-4.0113,-4.0113,-4.0113,-4.0113,-4.0113,-4.0113,-4.0113,-4.0113,-4.0113,-4.0113,-4.0113,-4.0113,-4.0113,-4.0113,-4.0113,-4.0113,-4.0113,-4.0113,-4.0113,-4.0113,-4.0113,-4.0113,-4.0113,-4.0113,-4.0113,-4.0113,-4.0113,-4.0113,-4.0113,-4.0113,-4.007,-4.0087,-4.0087,-3.9969,-3.9558,-3.8816,-3.8189,-3.7991,-3.7544,-3.7205,-3.7442,-3.7835,-3.7397,-3.6935,-3.6492,-3.6038,-3.575,-3.5522,-3.5636,-3.5668,-3.5668,-3.5683,-3.5651,-3.5569,-3.5504,-3.5489,-3.5489,-3.5489,-3.5489,-3.5489,-3.5489,-3.5489,-3.5489,-3.5489,-3.5489,-3.5489,-4.3859,-4.4276,-4.2219,-4.1711,-4.2185,-4.2269,-4.1796,-4.1136,-4.1187,-4.1474,-4.1796,-4.139,-4.1508,-4.1982,-4.2219,-4.1517,-4.0807,-4.1525,-4.1424,-4.0502,-4.0519,-4.0553,-4.0316,-4.0113,-4.0113,-4.0113,-4.0113,-4.0113,-4.0113,-4.0113,-4.0113,-4.0113,-4.0113,-4.0113,-4.0113,-4.0113,-4.0113,-4.0113,-4.0113,-4.0113,-4.0113,-4.0113,-4.0113,-4.0113,-4.0113,-4.0113,-4.0113,-4.0113,-4.0113,-4.0113,-4.0113,-4.0113,-4.0113,-4.0113,-4.0113,-4.0113,-4.0113,-4.0113,-4.0113,-4.0113,-4.0113,-4.0113,-4.0113,-4.0113,-4.0113,-4.0113,-4.0113,-4.0113,-4.0113,-4.0113,-4.0113,-4.0113,-4.0113,-4.0113,-4.0113,-4.0113,-4.0113,-4.0113,-4.0113,-4.0113,-4.0113,-4.0113,-4.0113,-3.9876,-3.9199,-3.8778,-3.8718,-3.8386,-3.7863,-3.8149,-3.8596,-3.7921,-3.7294,-3.7086,-3.6615,-3.5878,-3.5587,-3.5733,-3.5863,-3.5958,-3.6038,-3.6117,-3.5943,-3.5636,-3.5489,-3.5489,-3.5489,-3.5489,-3.5489,-3.5489,-3.5489,-3.5489,-3.5489,-3.5489,-3.5489,-4.4028,-4.3741,-4.298,-4.2236,-4.1576,-4.1044,-4.0663,-4.0578,-4.0967,-4.1356,-4.161,-4.1728,-4.2016,-4.2252,-4.2219,-4.1728,-4.1085,-4.1018,-4.0882,-4.0282,-4.046,-4.0316,-4.0146,-4.0113,-4.0113,-4.0113,-4.0113,-4.0113,-4.0113,-4.0113,-4.0113,-4.0113,-4.0113,-4.0113,-4.0113,-4.0113,-4.0113,-4.0113,-4.0113,-4.0113,-4.0113,-4.0113,-4.0113,-4.0113,-4.0113,-4.0113,-4.0113,-4.0113,-4.0113,-4.0113,-4.0113,-4.0113,-4.0113,-4.0113,-4.0113,-4.0113,-4.0113,-4.0113,-4.0113,-4.0113,-4.0113,-4.0113,-4.0113,-4.0113,-4.0113,-4.0113,-4.0113,-4.0113,-4.0113,-4.0113,-4.0113,-4.0113,-4.0113,-4.0113,-4.0113,-4.0113,-4.0113,-4.0113,-4.0113,-4.0113,-4.0113,-4.0113,-4.0113,-4.0113,-3.9575,-3.9428,-3.9385,-3.8789,-3.8206,-3.8832,-3.9332,-3.8318,-3.7648,-3.7602,-3.7265,-3.6538,-3.6399,-3.6753,-3.6585,-3.6353,-3.6461,-3.6492,-3.6102,-3.5701,-3.5587,-3.5489,-3.5489,-3.5489,-3.5489,-3.5489,-3.5579,-3.5549,-3.5489,-3.5489,-3.5489,-4.4282,-4.3792,-4.3494,-4.2726,-4.1559,-4.0781,-4.0367,-4.0282,-4.0865,-4.1322,-4.1711,-4.2354,-4.2506,-4.2371,-4.2236,-4.1644,-4.0933,-4.1102,-4.0798,-4.0231,-4.0451,-4.035,-4.0214,-4.0113,-4.0113,-4.0113,-4.0113,-4.0113,-4.0113,-4.0113,-4.0113,-4.0113,-4.0113,-4.0113,-4.0113,-4.0113,-4.0113,-4.0113,-4.0113,-4.0113,-4.0113,-4.0113,-4.0113,-4.0113,-4.0113,-4.0113,-4.0113,-4.0113,-4.0113,-4.0113,-4.0113,-4.0113,-4.0113,-4.0113,-4.0113,-4.0113,-4.0113,-4.0113,-4.0113,-4.0113,-4.0113,-4.0113,-4.0113,-4.0113,-4.0113,-4.0113,-4.0113,-4.0113,-4.0113,-4.0113,-4.0113,-4.0113,-4.0113,-4.0113,-4.0113,-4.0113,-4.0113,-4.0113,-4.0113,-4.0113,-4.0113,-4.0113,-4.0113,-4.0113,-3.9944,-3.9995,-4.0045,-3.9305,-3.8679,-3.9305,-3.9825,-3.9011,-3.8262,-3.8189,-3.7876,-3.7265,-3.7294,-3.7735,-3.7499,-3.7158,-3.6783,-3.6798,-3.6259,-3.5782,-3.5636,-3.5554,-3.5489,-3.5489,-3.5489,-3.5624,-3.5818,-3.5729,-3.5549,-3.5594,-3.5684,-4.4598,-4.4479,-4.3758,-4.3014,-4.2219,-4.1356,-4.0663,-4.018,-4.0882,-4.1593,-4.233,-4.2929,-4.2912,-4.2422,-4.2303,-4.1508,-4.0561,-4.0899,-4.0578,-4.0417,-4.057,-4.0434,-4.0248,-4.0113,-4.0113,-4.0113,-4.0113,-4.0113,-4.0113,-4.0113,-4.0113,-4.0113,-4.0113,-4.0113,-4.0113,-4.0113,-4.0113,-4.0113,-4.0113,-4.0113,-4.0113,-4.0113,-4.0113,-4.0113,-4.0113,-4.0113,-4.0113,-4.0113,-4.0113,-4.0113,-4.0113,-4.0113,-4.0113,-4.0113,-4.0113,-4.0113,-4.0113,-4.0113,-4.0113,-4.0113,-4.0113,-4.0113,-4.0113,-4.0113,-4.0113,-4.0113,-4.0113,-4.0113,-4.0113,-4.0113,-4.0113,-4.0113,-4.0113,-4.0113,-4.0113,-4.0113,-4.0113,-4.0113,-4.0113,-4.0113,-4.0113,-4.0113,-4.0113,-4.0113,-4.0248,-4.0113,-4.0113,-3.9995,-3.9506,-3.9584,-3.9969,-3.985,-3.9226,-3.8881,-3.8469,-3.7937,-3.8092,-3.8474,-3.8442,-3.8129,-3.7671,-3.7174,-3.6874,-3.6446,-3.5846,-3.5572,-3.5522,-3.5489,-3.5489,-3.5669,-3.5923,-3.6043,-3.5908,-3.5998,-3.6043,-4.4598,-4.4581,-4.4333,-4.3487,-4.2185,-4.095,-4.0299,-4.0214,-4.0865,-4.161,-4.2303,-4.2506,-4.2743,-4.2997,-4.1999,-4.1322,-4.0882,-4.0544,-4.0307,-4.0273,-4.04,-4.0265,-4.018,-4.0113,-4.0113,-4.0113,-4.0113,-4.0113,-4.0113,-4.0113,-4.0113,-4.0113,-4.0113,-4.0113,-4.0113,-4.0113,-4.0113,-4.0113,-4.0113,-4.0113,-4.0113,-4.0113,-4.0113,-4.0113,-4.0113,-4.0113,-4.0113,-4.0113,-4.0113,-4.0113,-4.0113,-4.0113,-4.0113,-4.0113,-4.0113,-4.0113,-4.0113,-4.0113,-4.0113,-4.0113,-4.0113,-4.0113,-4.0113,-4.0113,-4.0113,-4.0113,-4.0113,-4.0113,-4.0113,-4.0113,-4.0113,-4.0113,-4.0113,-4.0113,-4.0113,-4.0113,-4.0113,-4.0113,-4.0113,-4.0163,-4.0163,-4.0299,-4.0265,-4.04,-4.0502,-4.0248,-4.0163,-4.0265,-4.018,-4.0197,-4.0257,-4.018,-3.9958,-3.9565,-3.9202,-3.8706,-3.892,-3.9146,-3.9086,-3.8908,-3.8425,-3.7946,-3.7602,-3.7055,-3.6352,-3.5863,-3.5522,-3.5549,-3.5714,-3.5774,-3.5983,-3.6163,-3.6327,-3.6462,-3.6596,-4.4316,-4.4581,-4.4598,-4.3718,-4.2236,-4.1035,-4.0417,-4.0282,-4.0882,-4.161,-4.2252,-4.232,-4.254,-4.2658,-4.1762,-4.1035,-4.0663,-4.0367,-4.013,-4.013,-4.0113,-4.0113,-4.0113,-4.0113,-4.0113,-4.0113,-4.0113,-4.0113,-4.0113,-4.0113,-4.0113,-4.0113,-4.0113,-4.013,-4.0113,-4.0113,-4.0113,-4.0113,-4.0113,-4.0113,-4.0113,-4.0113,-4.0113,-4.0113,-4.0113,-4.0113,-4.0113,-4.0113,-4.0113,-4.0113,-4.0113,-4.0113,-4.0113,-4.0113,-4.0113,-4.0113,-4.0113,-4.0113,-4.0113,-4.0113,-4.0113,-4.0113,-4.0113,-4.0113,-4.0113,-4.0113,-4.0113,-4.0113,-4.0113,-4.0113,-4.0113,-4.0113,-4.0113,-4.0113,-4.0113,-4.0113,-4.0113,-4.0113,-4.0146,-4.0214,-4.035,-4.0519,-4.0637,-4.079,-4.0849,-4.0815,-4.0993,-4.1264,-4.0908,-4.0451,-4.0587,-4.0637,-4.0448,-4.0137,-3.9844,-3.9704,-3.983,-3.9869,-3.961,-3.9411,-3.9022,-3.8601,-3.8173,-3.7533,-3.6828,-3.6429,-3.6122,-3.5977,-3.6028,-3.6199,-3.6543,-3.703,-3.721,-3.712,-3.7225,-4.3893,-4.4479,-4.4445,-4.3481,-4.2185,-4.1322,-4.0663,-4.0231,-4.0781,-4.1508,-4.2066,-4.2127,-4.2033,-4.2016,-4.1305,-4.0679,-4.0392,-4.0146,-4.0113,-4.0113,-4.0113,-4.0113,-4.0113,-4.0113,-4.0113,-4.0113,-4.0113,-4.0113,-4.013,-4.0265,-4.0383,-4.0197,-4.0434,-4.0587,-4.0671,-4.0434,-4.04,-4.04,-4.0231,-4.0113,-4.0113,-4.0113,-4.0113,-4.0113,-4.0113,-4.0113,-4.0113,-4.0113,-4.0113,-4.0113,-4.0113,-4.0113,-4.0113,-4.0113,-4.0113,-4.0113,-4.0113,-4.0113,-4.0113,-4.0113,-4.0113,-4.0113,-4.0113,-4.0113,-4.0113,-4.0113,-4.0113,-4.0113,-4.0113,-4.0113,-4.0113,-4.0113,-4.0113,-4.0113,-4.0113,-4.0282,-4.046,-4.062,-4.0908,-4.101,-4.1204,-4.1322,-4.1196,-4.1348,-4.1508,-4.1491,-4.1593,-4.1931,-4.1788,-4.1094,-4.1128,-4.1255,-4.1133,-4.1045,-4.1045,-4.0908,-4.0778,-4.0679,-4.04,-4.0288,-4.0221,-3.9556,-3.8709,-3.8399,-3.8141,-3.7312,-3.6906,-3.6924,-3.7016,-3.7035,-3.7484,-3.8072,-3.8153,-3.7883,-3.8003,-4.4045,-4.3612,-4.3081,-4.2286,-4.1407,-4.0663,-4.0299,-4.0113,-4.0265,-4.0798,-4.1271,-4.0967,-4.1018,-4.1407,-4.0781,-4.0282,-4.018,-4.0113,-4.0113,-4.0113,-4.0113,-4.0113,-4.0113,-4.0113,-4.0113,-4.0113,-4.0113,-4.0113,-4.0197,-4.051,-4.0933,-4.0984,-4.1255,-4.1525,-4.1491,-4.1204,-4.0916,-4.0899,-4.0587,-4.0333,-4.0214,-4.0146,-4.0113,-4.0113,-4.0113,-4.0113,-4.0113,-4.0113,-4.0113,-4.0113,-4.0113,-4.0113,-4.0113,-4.0113,-4.0113,-4.0113,-4.0113,-4.0113,-4.0113,-4.0113,-4.0113,-4.0113,-4.0113,-4.0113,-4.0113,-4.0113,-4.0113,-4.0113,-4.0113,-4.0113,-4.0113,-4.0113,-4.0113,-4.0113,-4.013,-4.0443,-4.0815,-4.1255,-4.1653,-4.1873,-4.21,-4.2083,-4.1924,-4.1974,-4.2083,-4.2134,-4.2117,-4.2252,-4.2371,-4.2033,-4.2127,-4.2185,-4.2049,-4.2006,-4.2049,-4.1965,-4.1745,-4.166,-4.1482,-4.1427,-4.1345,-4.0869,-4.0271,-3.998,-3.9604,-3.8786,-3.8293,-3.8339,-3.8393,-3.819,-3.825,-3.8801,-3.8777,-3.8542,-3.8781,-4.3318,-4.2861,-4.2472,-4.188,-4.1204,-4.073,-4.0434,-4.0146,-4.0113,-4.0333,-4.0629,-4.0367,-4.0519,-4.1001,-4.0434,-4.0113,-4.0113,-4.0113,-4.0113,-4.0113,-4.0113,-4.0113,-4.0113,-4.0113,-4.0113,-4.0113,-4.0113,-4.0146,-4.0333,-4.0747,-4.1187,-4.139,-4.1948,-4.2354,-4.2286,-4.188,-4.1677,-4.1644,-4.117,-4.0891,-4.0603,-4.0383,-4.0146,-4.0113,-4.0113,-4.0113,-4.0113,-4.0113,-4.0113,-4.0113,-4.0113,-4.0113,-4.0113,-4.0113,-4.0113,-4.0113,-4.0113,-4.0113,-4.0113,-4.0113,-4.0113,-4.0113,-4.0113,-4.0113,-4.0113,-4.0113,-4.0113,-4.0113,-4.0113,-4.0113,-4.0113,-4.0113,-4.0113,-4.0113,-4.018,-4.04,-4.117,-4.1965,-4.21,-4.21,-4.2489,-4.2963,-4.2922,-4.3159,-4.32,-4.298,-4.2929,-4.32,-4.32,-4.2997,-4.3081,-4.3081,-4.2912,-4.2811,-4.2794,-4.2709,-4.2557,-4.2506,-4.2472,-4.2182,-4.195,-4.2071,-4.1923,-4.1357,-4.0821,-4.0313,-3.9957,-3.9927,-3.9468,-3.9122,-3.9217,-3.9438,-3.9295,-3.908,-3.9185,-4.2269,-4.2168,-4.2151,-4.1728,-4.1119,-4.1035,-4.0679,-4.0163,-4.0113,-4.0113,-4.0163,-4.0146,-4.0527,-4.0612,-4.0443,-4.0248,-4.0113,-4.0113,-4.0113,-4.0113,-4.0113,-4.0113,-4.0113,-4.0113,-4.0214,-4.0333,-4.04,-4.0519,-4.0705,-4.1339,-4.1813,-4.1694,-4.2066,-4.2625,-4.2574,-4.2472,-4.2439,-4.2354,-4.2083,-4.1813,-4.1305,-4.0696,-4.0451,-4.0282,-4.018,-4.018,-4.0146,-4.0113,-4.0113,-4.0113,-4.0113,-4.0113,-4.0113,-4.0113,-4.0113,-4.0113,-4.0113,-4.0113,-4.0113,-4.0113,-4.0113,-4.0113,-4.0096,-4.0146,-4.0196,-4.029,-4.029,-4.0362,-4.0362,-4.0172,-4.0197,-4.0146,-4.0146,-4.0451,-4.0536,-4.079,-4.1779,-4.2726,-4.2743,-4.2658,-4.3081,-4.3656,-4.387,-4.4124,-4.4045,-4.3842,-4.3927,-4.4299,-4.4445,-4.4073,-4.3904,-4.387,-4.3752,-4.3639,-4.3572,-4.3436,-4.3318,-4.3301,-4.3217,-4.2871,-4.2685,-4.2997,-4.2918,-4.2323,-4.1815,-4.175,-4.1527,-4.1385,-4.0848,-4.0239,-3.997,-3.9944,-3.9435,-3.9254,-3.9313,-4.1948,-4.1424,-4.1407,-4.0984,-4.04,-4.0333,-4.0231,-4.013,-4.0113,-4.0113,-4.0113,-4.0113,-4.0231,-4.029,-4.0214,-4.0113,-4.0113,-4.0113,-4.0113,-4.0113,-4.0113,-4.0113,-4.0248,-4.0502,-4.0544,-4.0764,-4.1052,-4.1322,-4.15,-4.232,-4.2929,-4.2895,-4.3656,-4.3995,-4.3961,-4.3707,-4.32,-4.3098,-4.2743,-4.2371,-4.2269,-4.1694,-4.1111,-4.0874,-4.0705,-4.0502,-4.0299,-4.013,-4.0113,-4.0113,-4.0113,-4.0113,-4.0113,-4.0096,-4.0121,-4.0229,-4.0229,-4.0303,-4.0328,-4.036,-4.041,-4.036,-4.0417,-4.0497,-4.0661,-4.1015,-4.1099,-4.129,-4.1151,-4.0565,-4.0433,-4.029,-4.0316,-4.1187,-4.1627,-4.2168,-4.2963,-4.3589,-4.3938,-4.3921,-4.4039,-4.4276,-4.431,-4.4445,-4.4429,-4.4265,-4.4265,-4.4598,-4.4598,-4.4598,-4.4598,-4.4496,-4.4361,-4.4445,-4.4361,-4.4198,-4.4079,-4.4062,-4.4005,-4.3718,-4.3735,-4.4141,-4.3929,-4.3295,-4.3485,-4.367,-4.3381,-4.271,-4.2252,-4.1613,-4.0845,-4.0401,-3.9879,-3.9583,-3.9742]},{"header":{"parameterUnit":"m.s-1","parameterCategory":1,"la1":31.0,"la2":29.5877,"lo1":-88.7671,"lo2":-86.6584,"dy":0.0162,"dx":0.0185,"nx":115,"ny":88,"refTime":"2024-04-15T00:00:00:Z","depth":0,"parameterNumber":3,"parameterNumberName":"V-component_of_WINDS"},"data":[0.0,0.0,0.0,0.0,0.0,0.0,0.0,0.0,0.0,0.0,0.0,0.0,0.0,0.0,0.0,0.0,0.0,0.0,0.0,0.0,0.0,0.0,0.0,0.0,0.0,0.0,0.0,0.0,0.0,0.0,0.0,0.0,0.0,0.0,0.0,0.0,0.0,0.0,0.0,0.0,0.0,0.0,0.0,0.0,0.0,0.0,0.0,0.0,0.0,0.0,0.0,0.0,0.0,0.0,0.0,0.0,0.0,0.0,0.0,0.0,0.0,0.0,0.0,0.0,0.0,0.0,0.0,0.0,0.0,0.0,0.0,0.0,0.0,0.0,0.0,0.0,0.0,0.0,0.0,0.0,0.0,0.0,0.0,0.0,0.0,0.0,0.0,0.0,0.0,0.0,0.0,0.0,0.0,0.0,0.0,0.0,0.0,0.0,0.0,0.0,0.0,0.0,0.0,0.0,0.0,0.0,0.0,0.0,0.0,0.0,0.0,0.0,0.0,0.0,0.0,0.0,0.0,0.0,0.0,0.0,0.0,0.0,0.0,0.0,0.0,0.0,0.0,0.0,0.0,0.0,0.0,0.0,0.0,0.0,0.0,0.0,0.0,0.0,0.0,0.0,0.0,0.0,0.0,0.0,0.0,0.0,0.0,0.0,0.0,0.0,0.0,0.0,0.0,0.0,0.0,0.0,0.0,0.0,0.0,0.0,0.0,0.0,0.0,0.0,0.0,0.0,0.0,0.0,0.0,0.0,0.0,0.0,0.0,0.0,0.0,0.0,0.0,0.0,0.0,0.0,0.0,0.0,0.0,0.0,0.0,0.0,0.0,0.0,0.0,0.0,0.0,0.0,0.0,0.0,0.0,0.0,0.0,0.0,0.0,0.0,0.0,0.0,0.0,0.0,0.0,0.0,0.0,0.0,0.0,0.0,0.0,0.0,0.0,0.0,0.0,0.0,0.0,0.0,0.0,0.0,0.0,0.0,0.0,0.0,0.0,0.0,0.0,0.0,0.0,0.0,0.0,0.0,0.0,0.0,0.0,0.0,0.0,0.0,0.0,0.0,0.0,0.0,0.0,0.0,0.0,0.0,0.0,0.0,0.0,0.0,0.0,0.0,0.0,0.0,0.0,0.0,0.0,0.0,0.0,0.0,0.0,0.0,0.0,0.0,0.0,0.0,0.0,0.0,0.0,0.0,0.0,0.0,0.0,0.0,0.0,0.0,0.0,0.0,0.0,0.0,0.0,0.0,0.0,0.0,0.0,0.0,0.0,0.0,0.0,0.0,0.0,0.0,0.0,0.0,0.0,0.0,0.0,0.0,0.0,0.0,0.0,0.0,0.0,0.0,0.0,0.0,0.0,0.0,0.0,0.0,0.0,0.0,0.0,0.0,0.0,0.0,0.0,0.0,0.0,0.0,0.0,0.0,0.0,0.0,0.0,0.0,0.0,0.0,0.0,0.0,0.0,0.0,0.0,0.0,0.0,0.0,0.0,0.0,0.0,0.0,0.0,0.0,0.0,0.0,0.0,0.0,0.0,0.0,0.0,0.0,0.0,0.0,0.0,0.0,0.0,0.0,0.0,0.0,0.0,0.0,0.0,0.0,0.0,0.0,0.0,0.0,0.0,0.0,0.0,0.0,0.0,0.0,0.0,0.0,0.0,0.0,0.0,0.0,0.0,0.0,0.0,0.0,0.0,0.0,0.0,0.0,0.0,0.0,0.0,0.0,0.0,0.0,0.0,0.0,0.0,0.0,0.0,0.0,0.0,0.0,0.0,0.0,0.0,0.0,0.0,0.0,0.0,0.0,0.0,0.0,0.0,0.0,0.0,0.0,0.0,0.0,0.0,0.0,0.0,0.0,0.0,0.0,0.0,0.0,0.0,0.0,0.0,0.0,0.0,0.0,0.0,0.0,0.0,0.0,0.0,0.0,0.0,0.0,0.0,0.0,0.0,0.0,0.0,0.0,0.0,0.0,0.0,0.0,0.0,0.0,0.0,0.0,0.0,0.0,0.0,0.0,0.0,0.0,0.0,0.0,0.0,0.0,0.0,0.0,0.0,0.0,0.0,0.0,0.0,0.0,0.0,0.0,0.0,0.0,0.0,0.0,0.0,0.0,0.0,0.0,0.0,0.0,0.0,0.0,0.0,0.0,0.0,0.0,0.0,0.0,0.0,0.0,0.0,0.0,0.0,0.0,0.0,0.0,0.0,0.0,0.0,0.0,0.0,0.0,0.0,0.0,0.0,0.0,0.0,0.0,0.0,0.0,0.0,0.0,0.0,0.0,0.0,0.0,0.0,0.0,0.0,0.0,0.0,0.0,0.0,0.0,0.0,0.0,0.0,0.0,0.0,0.0,0.0,0.0,0.0,0.0,0.0,0.0,0.0,0.0,0.0,0.0,0.0,0.0,0.0,0.0,0.0,0.0,0.0,0.0,0.0,0.0,0.0,0.0,0.0,0.0,0.0,0.0,0.0,0.0,0.0,0.0,0.0,0.0,0.0,0.0,0.0,0.0,0.0,0.0,0.0,0.0,0.0,0.0,0.0,0.0,0.0,0.0,0.0,0.0,0.0,0.0,0.0,0.0,0.0,0.0,0.0,0.0,0.0,0.0,0.0,0.0,0.0,0.0,0.0,0.0,0.0,0.0,0.0,0.0,0.0,0.0,0.0,0.0,0.0,0.0,0.0,0.0,0.0,0.0,0.0,0.0,0.0,0.0,0.0,0.0,0.0,0.0,0.0,0.0,0.0,0.0,0.0,0.0,0.0,0.0,0.0,0.0,0.0,0.0,0.0,0.0,0.0,0.0,0.0,0.0,0.0,0.0,0.0,0.0,0.0,0.0,0.0,0.0,0.0,0.0,0.0,0.0,0.0,0.0,0.0,0.0,0.0,0.0,0.0,0.0,0.0,0.0,0.0,0.0,0.0,0.0,0.0,0.0,0.0,0.0,0.0,0.0,0.0,0.0,0.0,0.0,0.0,0.0,0.0,0.0,0.0,0.0,0.0,0.0,0.0,0.0,0.0,0.0,0.0,0.0,0.0,0.0,0.0,0.0,0.0,0.0,0.0,0.0,0.0,0.0,0.0,0.0,0.0,0.0,0.0,0.0,0.0,0.0,0.0,0.0,0.0,0.0,0.0,0.0,0.0,0.0,0.0,0.0,0.0,0.0,0.0,0.0,0.0,0.0,0.0,0.0,0.0,0.0,0.0,0.0,0.0,0.0,0.0,0.0,0.0,0.0,0.0,0.0,0.0,0.0,0.0,0.0,0.0,0.0,0.0,0.0,0.0,0.0,0.0,0.0,0.0,0.0,0.0,0.0,0.0,0.0,0.0,0.0,0.0,0.0,0.0,0.0,0.0,0.0,0.0,0.0,0.0,0.0,0.0,0.0,0.0,0.0,0.0,0.0,0.0,0.0,0.0,0.0,0.0,0.0,0.0,0.0,0.0,0.0,0.0,0.0,0.0,0.0,0.0,0.0,0.0,0.0,0.0,0.0,0.0,0.0,0.0,0.0,0.0,0.0,0.0,0.0,0.0,0.0,0.0,0.0,0.0,0.0,0.0,0.0,0.0,0.0,0.0,0.0,0.0,0.0,0.0,0.0,0.0,0.0,0.0,0.0,0.0,0.0,0.0,0.0,0.0,0.0,0.0,0.0,0.0,0.0,0.0,0.0,0.0,0.0,0.0,0.0,0.0,0.0,0.0,0.0,0.0,0.0,0.0,0.0,0.0,0.0,0.0,0.0,0.0,0.0,0.0,0.0,0.0,0.0,0.0,0.0,0.0,0.0,0.0,0.0,0.0,0.0,0.0,0.0,0.0,0.0,0.0,0.0,0.0,0.0,0.0,0.0,0.0,0.0,0.0,0.0,0.0,0.0,0.0,0.0,0.0,0.0,0.0,0.0,0.0,0.0,0.0,0.0,0.0,0.0,0.0,0.0,0.0,0.0,0.0,0.0,0.0,0.0,0.0,0.0,0.0,0.0,0.0,0.0,0.0,0.0,0.0,0.0,0.0,0.0,0.0,0.0,0.0,0.0,0.0,0.0,0.0,0.0,0.0,0.0,0.0,0.0,0.0,0.0,0.0,0.0,0.0,0.0,0.0,0.0,0.0,0.0,0.0,0.0,0.0,0.0,0.0,0.0,0.0,0.0,0.0,0.0,0.0,0.0,0.0,0.0,0.0,0.0,0.0,0.0,0.0,0.0,0.0,0.0,0.0,0.0,0.0,0.0,0.0,0.0,0.0,0.0,0.0,0.0,0.0,0.0,0.0,0.0,0.0,0.0,0.0,0.0,0.0,0.0,0.0,0.0,0.0,0.0,0.0,0.0,0.0,0.0,0.0,0.0,0.0,0.0,0.0,0.0,0.0,0.0,0.0,0.0,0.0,0.0,0.0,0.0,0.0,0.0,0.0,0.0,0.0,0.0,0.0,0.0,0.0,0.0,0.0,0.0,0.0,0.0,0.0,0.0,0.0,0.0,0.0,0.0,0.0,0.0,0.0,0.0,0.0,0.0,0.0,0.0,0.0,0.0,0.0,0.0,0.0,0.0,0.0,0.0,0.0,0.0,0.0,0.0,0.0,0.0,0.0,0.0,0.0,0.0,0.0,0.0,0.0,0.0,0.0,0.0,0.0,0.0,0.0,0.0,0.0,0.0,0.0,0.0,0.0,0.0,0.0,0.0,0.0,0.0,0.0,0.0,0.0,0.0,0.0,0.0,0.0,0.0,0.0,0.0,0.0,0.0,0.0,0.0,0.0,0.0,0.0,0.0,0.0,0.0,0.0,0.0,0.0,0.0,0.0,0.0,0.0,0.0,0.0,0.0,0.0,0.0,0.0,0.0,0.0,0.0,0.0,0.0,0.0,0.0,0.0,0.0,0.0,0.0,0.0,0.0,0.0,0.0,0.0,0.0,0.0,0.0,0.0,0.0,0.0,0.0,0.0,0.0,0.0,0.0,0.0,0.0,0.0,0.0,0.0,0.0,0.0,0.0,0.0,0.0,0.0,0.0,0.0,0.0,0.0,0.0,0.0,0.0,0.0,0.0,0.0,0.0,0.0,0.0,0.0,0.0,0.0,0.0,0.0,0.0,0.0,0.0,0.0,0.0,0.0,0.0,0.0,0.0,0.0,0.0,0.0,0.0,0.0,0.0,0.0,0.0,0.0,0.0,0.0,0.0,0.0,0.0,0.0,0.0,0.0,0.0,0.0,0.0,0.0,0.0,0.0,0.0,0.0,0.0,0.0,0.0,0.0,0.0,0.0,0.0,0.0,0.0,0.0,0.0,0.0896,0.0802,0.0502,0.0,0.0,0.0,0.0,0.0,0.0,0.0,0.0,0.0,0.0,0.0,0.0,0.0,0.0,0.0,0.0,0.0,0.0,0.0,0.0,0.0,0.0,0.0,0.0,0.0,0.0,0.0,0.0,0.0,0.0,0.0,0.0,0.0,0.0,0.0,0.0,0.0,0.0,0.0,0.0,0.0,0.0,0.0,0.0,0.0,0.0,0.0,0.0,0.0,0.0,0.0,0.0,0.0,0.0,0.0,0.0,0.0,0.0,0.0,0.0,0.0,0.0,0.0,0.0,0.0,0.0,0.0,0.0,0.0,0.0,0.0,0.0,0.0,0.0,0.0,0.0,0.0,0.0,0.0,0.0,0.0,0.0,0.0,0.0,0.0,0.0,0.0,0.0,0.0,0.0,0.0,0.0,0.0,0.0,0.0,0.0,0.0,0.0,0.0,0.0,0.0,0.0,0.0,0.0,0.0,0.0,0.0,0.0,0.0,0.0,0.2305,0.3774,0.3696,0.0,0.2032,0.0,0.0,0.0,0.0,0.0,0.0,0.0,0.0,0.0,0.0,0.0,0.0,0.0,0.0,0.0,0.0,0.0,0.0,0.0,0.0,0.0,0.0,0.0,0.0,0.0,0.0,0.0,0.0,0.0,0.0,0.0,0.0,0.0,0.0,0.0,0.0,0.0,0.0,0.0,0.0,0.0,0.0,0.0,0.0,0.0,0.0,0.0,0.0,0.0,0.0,0.0,0.0,0.0,0.0,0.0,0.0,0.0,0.0,0.0,0.0,0.0,0.0,0.0,0.0,0.0,0.0,0.0,0.0,0.0,0.0,0.0,0.0,0.0,0.0,0.0,0.0,0.0,0.0,0.0,0.0,0.0,0.0,0.0,0.0,0.0,0.0,0.0,0.0,0.0,0.0,0.0,0.0,0.0,0.0,0.0,0.0,0.0,0.0,0.0,0.0,0.0,0.0,0.0,0.0,0.0,0.0,0.0,0.0,0.0,0.0,0.3309,0.408,0.4035,0.3693,0.0,0.0,0.0,0.0,0.0,0.0,0.0,0.0,0.0,0.0,0.0,0.0,0.0,0.0,0.0,0.0,0.0,0.0,0.0,0.0,0.0,0.0,0.0,0.0,0.0,0.0,0.0,0.0,0.0,0.0,0.0,0.0,0.0,0.0,0.0,0.0,0.0,0.0,0.0,0.0,0.0,0.0,0.0,0.0,0.0,0.0,0.0,0.0,0.0,0.0,0.0,0.0,0.0,0.0,0.0,0.0,0.0,0.0,0.0,0.0,0.0,0.0,0.0,0.0,0.0,0.0,0.0,0.0,0.0,0.0,0.0,0.0,0.0,0.0,0.0,0.0,0.0,0.0,0.0,0.0,0.0,0.0,0.0,0.0,0.0,0.0,0.0,0.0,0.0,0.0,0.0,0.0,0.0,0.0,0.0,0.0,0.0,0.0,0.0,0.0,0.0,0.0,0.0,0.0,0.0,0.0,0.0,0.0,0.0,0.0,0.3915,0.4567,0.5016,0.4614,0.428,0.4109,0.0,0.0,0.0,0.0,0.0,0.0,0.0,0.0,0.0,0.0,0.0,0.0,0.0,0.0,0.0,0.0,0.0,0.0,0.0,0.0,0.0,0.0,0.0,0.0,0.0,0.0,0.0,0.0,0.0,0.0,0.0,0.0,0.0,0.0,0.0,0.0,0.0,0.0,0.0,0.0,0.0,0.0,0.0,0.0,0.0,0.0,0.0,0.0,0.0,0.0,0.0,0.0,0.0,0.0,0.0,0.0,0.0,0.0,0.0,0.0,0.0,0.0,0.0,0.0,0.0,0.0,0.0,0.0,0.0,0.0,0.0,0.0,0.0,0.0,0.0,0.0,0.0,0.0,0.0,0.0,0.0,0.0,0.0,0.0,0.0,0.0,0.0,0.0,0.0,0.0,0.0,0.0,0.0,0.0,0.0,0.0,0.0,0.0,0.0,0.0,0.0,0.0,0.0,0.0,0.0,0.0,0.0,0.0,0.6154,0.5894,0.6311,0.7488,0.6141,0.5324,0.0,0.0,0.0,0.0,0.0,0.0,0.0,0.0,0.0,0.0,0.0,0.0,0.0,0.0,0.0,0.0,0.0,0.0,0.0,0.0,0.0,0.0,0.0,0.0,0.0,0.0,0.0,0.0,0.0,0.0,0.0,0.0,0.0,0.0,0.0,0.0,0.0,0.0,0.0,0.0,0.0,0.0,0.0,0.0,0.0,0.0,0.0,0.0,0.0,0.0,0.0,0.0,0.0,0.0,0.0,0.0,0.0,0.0,0.0,0.0,0.0,0.0,0.0,0.0,0.0,0.0,0.0,0.0,0.0,0.0,0.0,0.0,0.0,0.0,0.0,0.0,0.0,0.0,0.0,0.0,0.0,0.0,0.0,0.0,0.0,0.0,0.0,0.0,0.0,0.0,0.0,0.0,0.0,0.0,0.0,0.0,0.0,0.0,0.0,0.0,0.0,0.0,0.0,0.0,0.0,0.0,0.0,0.0,0.0,0.5787,0.6535,0.7145,0.7526,0.6956,0.661,0.0,0.0,0.0,0.0,0.0,0.0,0.0,0.0,0.0,0.0,0.0,0.0,0.0,0.0,0.0,0.0,0.0,0.0,0.0,0.0,0.0,0.0,0.0,0.0,0.0,0.0,0.0,0.0,0.0,0.0,0.0,0.0,0.0,0.0,0.0,0.0,0.0,0.0,0.0,0.0,0.0,0.0,0.0,0.0,0.0,0.0,0.0,0.0,0.0,0.0,0.0,0.0,0.0,0.0,0.0,0.0,0.0,0.0,0.0,0.0,0.0,0.0,0.0,0.0,0.0,0.0,0.0,0.0,0.0,0.0,0.0,0.0,0.0,0.0,0.0,0.0,0.0,0.0,0.0,0.0,0.0,0.0,0.0,0.0,0.0,0.0,0.0,0.0,0.0,0.0,0.0,0.0,0.0,0.0,0.0,0.0,0.0,0.0,0.0,0.0,0.0,0.0,0.0,0.0,0.0,0.0,0.0,0.0,0.0,0.621,0.0,0.7624,0.7426,0.7322,0.716,0.0,0.0,0.0,0.0,0.0,0.0,0.0,0.0,0.0,0.0,0.0,0.0,0.0,0.0,0.0,0.0,0.0,0.0,0.0,0.0,0.0,0.0,0.0,0.0,0.0,0.0,0.0,0.0,0.0,0.0,0.0,0.0,0.0,0.0,0.0,0.0,0.0,0.0,0.0,0.0,0.0,0.0,0.0,0.0,0.0,0.0,0.0,0.0,0.0,0.0,0.0,0.0,0.0,0.0,0.0,0.0,0.0,0.0,0.0,0.0,0.0,0.0,0.0,0.0,0.0,0.0,0.0,0.0,0.0,0.0,0.0,0.0,0.0,0.0,0.0,0.0,0.0,0.0,0.0,0.0,0.0,0.0,0.0,0.0,0.0,0.0,0.0,0.0,0.0,0.0,0.0,0.0,0.0,0.0,0.0,0.0,0.0,0.0,0.0,0.0,0.0,0.0,0.0,0.0,0.0,0.0,0.0,0.0,0.7307,0.7719,0.7877,0.7794,0.739,0.7217,0.6871,0.0,0.0,0.0,0.0,0.0,0.0,0.0,0.0,0.0,0.0,0.0,0.0,0.0,0.0,0.0,0.0,0.0,0.0,0.0,0.0,0.0,0.0,0.0,0.0,0.0,0.0,0.0,0.0,0.0,0.0,0.0,0.0,0.0,0.0,0.0,0.0,0.0,0.0,0.0,0.0,0.0,0.0,0.0,0.0,0.0,0.0,0.0,0.0,0.0,0.0,0.0,0.0,0.0,0.0,0.0,0.0,0.0,0.0,0.0,0.0,0.0,0.0,0.0,0.0,0.0,0.0,0.0,0.0,0.0,0.0,0.0,0.0,0.0,0.0,0.0,0.0,0.0,0.0,0.0,0.0,0.0,0.0,0.0,0.0,0.0,0.0,0.0,0.0,0.0,0.0,0.0,0.0,0.0,0.0,0.0,0.0,0.0,0.0,0.0,0.0,0.0,0.0,0.0,0.0,0.0,0.0,0.0,0.0,0.0,0.7061,0.7394,0.7563,0.7516,0.7078,0.6898,0.0,0.0,0.0,0.0,0.0,0.0,0.0,0.0,0.0,0.0,0.0,0.0,0.0,0.0,0.0,0.0,0.0,0.0,0.0,0.0,0.0,0.0,0.0,0.0,0.0,0.0,0.0,0.0,0.0,0.0,0.0,0.0,0.0,0.0,0.0,0.0,0.0,0.0,0.0,0.0,0.0,0.0,0.0,0.0,0.0,0.0,0.0,0.0,0.0,0.0,0.0,0.0,0.0,0.0,0.0,0.0,0.0,0.0,0.0,0.0,0.0,0.0,0.0,0.0,0.0,0.0,0.0,0.0,0.0,0.0,0.0,0.0,0.0,0.0,0.0,0.0,0.0,0.0,0.0,0.0,0.0,0.0,0.0,0.0,0.0,0.0,0.0,0.0,0.0,0.0,0.0,0.0,0.0,0.0,0.0,0.0,0.0,0.0,0.0,0.0,0.0,0.0,0.0,0.0,0.0,0.0,0.0,0.0,0.0,0.7068,0.7417,0.7587,0.7562,0.7146,0.6973,0.7024,0.0,0.0,0.0,0.0,0.0,0.0,0.0,0.0,0.0,0.0,0.0,0.0,0.0,0.0,0.0,0.0,0.0,0.0,0.0,0.0,0.0,0.0,0.0,0.0,0.0,0.0,0.0,0.0,0.0,0.0,0.0,0.0,0.0,0.0,0.0,0.0,0.0,0.0,0.0,0.0,0.0,0.0,0.0,0.0,0.0,0.0,0.0,0.0,0.0,0.0,0.0,0.0,0.0,0.0,0.0,0.0,0.0,0.0,0.0,0.0,0.0,0.0,0.0,0.0,0.0,0.0,0.0,0.0,0.0,0.0,0.0,0.0,0.0,0.0,0.0,0.0,0.0,0.0,0.0,0.0,0.0,0.0,0.0,0.0,0.0,0.0,0.0,0.0,0.0,0.0,0.0,0.0,0.0,0.0,0.0,0.0,0.0,0.0,0.0,0.0,0.0,0.0,0.0,0.0,0.0,0.0,0.0,0.0,0.7638,0.7884,0.7882,0.7461,0.7443,0.7153,0.0,0.0,0.0,0.0,0.0,0.0,0.0,0.0,0.0,0.0,0.0,0.0,0.0,0.0,0.0,0.0,0.0,0.0,0.0,0.0,0.0,0.0,0.0,0.0,0.0,0.0,0.0,0.0,0.0,0.0,0.0,0.0,0.0,0.0,0.0,0.0,0.0,0.0,0.0,0.0,0.0,0.0,0.0,0.0,0.0,0.0,0.0,0.0,0.0,0.0,0.0,0.0,0.0,0.0,0.0,0.0,0.0,0.0,0.0,0.0,0.0,0.0,0.0,0.0,0.0,0.0,0.0,0.0,0.0,0.0,0.0,0.0,0.0,0.0,0.0,0.0,0.0,0.0,0.0,0.0,0.0,0.0,0.0,0.0,0.0,0.0,0.0,0.0,0.0,0.0,0.0,0.0,0.0,0.0,0.0,0.0,0.0,0.0,0.0,0.0,0.0,0.0,0.0,0.0,0.0,0.0,0.0,0.0,0.0,0.8102,0.8492,0.8487,0.8194,0.7662,0.7353,0.0,0.0,0.0,0.0,0.0,0.0,0.0,0.0,0.0,0.0,0.0,0.0,0.0,0.0,0.0,0.0,0.0,0.0,0.0,0.0,0.0,0.0,0.0,0.0,0.0,0.0,0.0,0.0,0.0,0.0,0.0,0.0,0.0,0.0,0.0,0.0,0.0,0.0,0.0,0.0,0.0,0.0,0.0,0.0,0.0,0.0,0.0,0.0,0.0,0.0,0.0,0.0,0.0,0.0,0.0,0.0,0.0,0.0,0.0,0.0,0.0,0.0,0.0,0.0,0.0,0.0,0.0,0.0,0.0,0.0,0.0,0.0,0.0,0.0,0.0,0.0,0.0,0.0,0.0,0.0,0.0,0.0,0.0,0.0,0.0,0.0,0.0,0.0,0.0,0.0,0.0,0.0,0.0,0.0,0.0,0.0,0.0,0.0,0.0,0.0,0.0,0.0,0.0,0.0,0.0,0.0,0.0,0.0,0.8126,0.8452,0.8893,0.9039,0.8866,0.8262,0.7797,0.0,0.0,0.0,0.0,0.0,0.0,0.0,0.0,0.0,0.0,0.0,0.0,0.0,0.0,0.0,0.0,0.0,0.0,0.0,0.0,0.0,0.0,0.0,0.0,0.0,0.0,0.0,0.0,0.0,0.0,0.0,0.0,0.0,0.0,0.0,0.0,0.0,0.0,0.0,0.0,0.0,0.0,0.0,0.0,0.0,0.0,0.0,0.0,0.0,0.0,0.0,0.0,0.0,0.0,0.0,0.0,0.0,0.0,0.0,0.0,0.0,0.0,0.0,0.0,0.0,0.0,0.0,0.0,0.0,0.0,0.0,0.0,0.0,0.0,0.0,0.0,0.0,0.0,0.0,0.0,0.0,0.0,0.0,0.0,0.0,0.0,0.0,0.0,0.0,0.0,0.0,0.0,0.0,0.0,0.0,0.0,0.0,0.0,0.0,0.0,0.0,0.0,0.0,0.0,0.0,0.0,0.0,0.0,0.8268,0.875,0.9195,0.9418,0.9395,0.8937,0.8296,0.0,0.0,0.0,0.0,0.0,0.0,0.0,0.0,0.0,0.0,0.0,0.0,0.0,0.0,0.0,0.0,0.0,0.0,0.0,0.0,0.0,0.0,0.0,0.0,0.0,0.0,0.0,0.0,0.0,0.0,0.0,0.0,0.0,0.0,0.0,0.0,0.0,0.0,0.0,0.0,0.0,0.0,0.0,0.0,0.0,0.0,0.0,0.0,0.0,0.0,0.0,0.0,0.0,0.0,0.0,0.0,0.0,0.0,0.0,0.0,0.0,0.0,0.0,0.0,0.0,0.0,0.0,0.0,0.0,0.0,0.0,0.0,0.0,0.0,0.0,0.0,0.0,0.0,0.0,0.0,0.0,0.0,0.0,0.0,0.0,0.0,0.0,0.0,0.0,0.0,0.0,0.0,0.0,0.0,0.0,0.0,0.0,0.0,0.0,0.0,0.0,0.0,0.0,0.0,0.0,0.0,0.0,0.0,0.8726,0.9111,0.9496,0.9673,0.9557,0.8893,0.8333,0.0,0.0,0.0,0.0,0.0,0.0,0.0,0.0,0.0,0.0,0.0,0.0,0.0,0.0,0.0,0.0,0.0,0.0,0.0,0.0,0.0,0.0,0.0,0.0,0.0,0.0,0.0,0.0,0.0,0.0,0.0,0.0,0.0,0.0,0.0,0.0,0.0,0.0,0.0,0.0,0.0,0.0,0.0,0.0,0.0,0.0,0.0,0.0,0.9267,0.0,0.0,0.0,0.0,0.0,0.0,0.0,0.0,0.0,0.0,0.0,0.0,0.0,0.0,0.0,0.0,0.0,0.0,0.0,0.0,0.0,0.0,0.0,0.0,0.0,0.0,0.0,0.0,0.0,0.0,0.0,0.0,0.0,0.0,0.0,0.0,0.0,0.0,0.0,0.0,0.0,0.0,0.0,0.0,0.0,0.0,0.0,0.0,0.0,0.0,0.0,0.0,0.0,0.0,0.0,0.0,0.0,0.0,0.0,0.8889,0.9313,0.9629,0.9751,0.9595,0.9015,0.8523,0.0,0.0,0.0,0.0,0.0,0.0,0.0,0.0,0.0,0.0,0.0,0.0,0.0,0.0,0.0,0.0,0.0,0.0,0.0,0.0,0.0,0.0,0.0,0.0,0.0,0.0,0.0,0.0,0.0,0.0,0.0,0.0,0.0,0.0,0.0,0.0,0.0,0.0,0.0,0.0,0.0,0.0,0.0,0.0,0.0,0.0,0.0,0.0,0.0,0.0,0.0,0.0,0.0,0.0,0.0,0.0,0.0,0.0,0.0,0.0,0.0,0.0,0.0,0.0,0.0,0.0,0.0,0.0,0.0,0.0,0.0,0.0,0.0,0.0,0.0,0.0,0.0,0.0,0.0,0.0,0.0,0.0,0.0,0.0,0.0,0.0,0.0,0.0,0.0,0.0,0.0,0.0,0.0,0.0,0.0,0.0,0.0,0.0,0.0,0.0,0.0,0.0,0.0,0.0,0.0,0.0,0.0,0.8391,0.894,0.9401,0.9659,0.973,0.9605,0.915,0.8706,0.8286,0.0,0.0,0.0,0.0,0.0,0.0,0.0,0.0,0.0,0.0,0.0,0.0,0.0,0.0,0.0,0.0,0.0,0.0,0.0,0.0,0.0,0.0,0.0,0.0,0.0,0.0,0.0,0.0,0.0,0.0,0.0,0.0,0.0,0.0,0.0,0.0,0.0,0.0,1.1769,1.2236,0.0,0.0,0.0,0.0,0.0,0.0,0.0,0.0,1.217,0.0,0.0,0.0,0.0,0.0,0.0,0.0,0.0,0.0,0.0,0.0,0.0,0.0,0.0,0.0,0.0,0.0,0.0,0.0,0.0,0.0,0.0,0.0,0.0,0.0,0.0,0.0,0.0,0.0,0.0,0.0,0.0,0.0,0.0,0.0,0.0,0.0,0.0,0.0,0.0,0.0,0.0,0.0,0.0,0.0,0.0,0.0,0.0,0.0,0.0,0.0,0.0,0.0,0.0,0.0,0.0,0.8509,0.8648,0.8988,0.9557,0.9618,0.9632,0.9595,0.9049,0.8598,0.8327,0.0,0.0,0.0,0.0,0.0,0.0,0.0,0.0,0.0,0.0,0.0,0.0,0.0,0.0,0.0,0.0,0.0,0.0,0.0,0.0,0.0,0.0,0.0,0.0,0.0,0.0,0.0,0.0,0.0,0.0,0.0,0.0,0.0,0.0,0.0,0.0,0.0,0.0,0.0,1.4841,1.5153,0.0,0.0,0.0,0.0,0.0,0.0,0.0,0.0,1.29,0.0,0.0,0.0,0.0,0.0,0.0,0.0,0.0,0.0,0.0,0.0,0.0,0.0,0.0,0.0,0.0,0.0,0.0,0.0,0.0,0.0,0.0,0.0,0.0,0.0,0.0,0.0,0.0,0.0,0.0,0.0,0.0,0.0,0.0,0.0,0.0,0.0,0.0,0.0,0.0,0.0,0.0,0.0,0.0,0.0,0.0,0.0,0.0,0.0,0.0,0.0,0.0,0.0,0.0,0.0,0.8378,0.935,0.9701,0.9531,0.9571,0.95,0.9262,0.8754,0.8343,0.0,0.0,0.0,0.0,0.0,0.0,0.0,0.0,0.0,0.0,0.0,0.0,0.0,0.0,0.0,0.0,0.0,0.0,0.0,0.0,0.0,0.0,0.0,0.0,0.0,0.0,0.0,0.0,0.0,0.0,0.0,0.0,0.0,0.0,0.0,0.0,0.0,0.0,0.0,0.0,1.5598,1.6005,1.5852,0.0,0.0,0.0,0.0,0.0,0.0,1.3894,1.3901,0.0,0.0,0.0,0.0,0.0,0.0,0.0,0.0,0.0,0.0,0.0,0.0,0.0,0.0,0.0,0.0,0.0,0.0,0.0,0.0,0.0,0.0,0.0,0.0,0.0,0.0,0.0,0.0,0.0,0.0,0.0,0.0,0.0,0.0,0.0,0.0,0.0,0.0,0.0,0.0,0.0,0.0,0.0,0.0,0.0,0.0,0.0,0.0,0.0,0.0,0.0,0.0,0.0,0.0,0.0,0.8564,1.0302,1.0927,1.0275,1.0336,1.0187,0.9765,0.9362,0.8937,0.0,0.0,0.0,0.0,0.0,0.0,0.0,0.0,0.0,0.0,0.0,0.0,0.0,0.0,0.0,0.0,0.0,0.0,0.0,0.0,0.0,0.0,0.0,0.0,0.0,0.0,0.0,0.0,0.0,0.0,0.0,0.0,0.0,0.0,0.0,0.0,0.0,0.0,0.0,0.0,0.0,1.6293,1.5892,1.5685,0.0,0.0,0.0,0.0,1.5055,1.4997,0.0,0.0,0.0,0.0,0.0,0.0,0.0,0.0,0.0,0.0,0.0,0.0,0.0,0.0,0.0,0.0,0.0,0.0,0.0,0.0,0.0,0.0,0.0,0.0,0.0,0.0,0.0,0.0,0.0,0.0,0.0,0.0,0.0,0.0,0.0,0.0,0.0,0.0,0.0,0.0,0.0,0.0,0.0,0.0,0.0,0.0,0.0,0.0,0.0,0.0,0.0,0.0,0.0,0.0,0.0,0.0,1.015,1.1653,1.2651,1.3187,1.3086,1.2889,1.2516,1.2235,1.1667,0.0,0.0,0.0,0.0,0.0,0.0,0.0,0.0,0.0,0.0,0.0,0.0,0.0,0.0,0.0,0.0,0.0,0.0,0.0,0.0,0.0,0.0,0.0,0.0,0.0,0.0,0.0,0.0,0.0,0.0,0.0,0.0,0.0,0.0,0.0,0.0,0.0,0.0,0.0,0.0,0.0,1.6797,1.5945,1.6025,1.5985,0.0,0.0,1.5304,1.5344,1.5965,0.0,0.0,0.0,0.0,0.0,0.0,0.0,0.0,0.0,0.0,0.0,0.0,0.0,0.0,0.0,0.0,0.0,0.0,0.0,0.0,0.0,0.0,0.0,0.0,0.0,0.0,0.0,0.0,0.0,0.0,0.0,0.0,0.0,0.0,0.0,0.0,0.0,0.0,0.0,0.0,0.0,0.0,0.0,0.0,0.0,0.0,0.0,0.0,0.0,0.0,0.0,0.0,0.0,0.0,0.0,1.0341,1.0838,1.2824,1.3609,1.3232,1.3232,1.3082,1.2795,1.2163,1.1564,0.0,0.0,0.0,0.0,0.0,0.0,0.0,0.0,0.0,0.0,0.0,0.0,0.0,0.0,0.0,0.0,0.0,0.0,0.0,0.0,0.0,0.0,0.0,0.0,0.0,0.0,0.0,0.0,0.0,0.0,0.0,0.0,0.0,0.0,0.0,0.0,0.0,0.0,0.0,0.0,0.0,0.0,1.5878,1.6219,0.0,0.0,0.0,1.5952,1.6112,0.0,0.0,0.0,0.0,0.0,0.0,0.0,0.0,0.0,0.0,0.0,0.0,0.0,0.0,0.0,0.0,0.0,0.0,0.0,0.0,0.0,0.0,0.0,0.0,0.0,0.0,0.0,0.0,0.0,0.0,0.0,0.0,0.0,0.0,0.0,0.0,0.0,0.0,0.0,0.0,0.0,0.0,0.0,0.0,0.0,0.0,0.0,0.0,0.0,0.0,0.0,0.0,0.0,0.0,0.0,0.0,0.0,1.165,1.3958,1.4728,1.3846,1.3857,1.3807,1.3538,1.2771,0.0,0.0,0.0,0.0,0.0,0.0,0.0,0.0,0.0,0.0,0.0,0.0,0.0,0.0,0.0,0.0,0.0,0.0,0.0,0.0,0.0,0.0,0.0,0.0,0.0,0.0,0.0,1.1471,0.0,0.0,0.0,0.0,0.0,0.0,0.0,0.0,0.0,0.0,0.0,0.0,0.0,0.0,1.7281,1.6899,1.7576,1.7817,0.0,0.0,1.6902,1.663,1.642,1.6119,0.0,0.0,0.0,0.0,0.0,0.0,0.0,0.0,0.0,0.0,0.0,0.0,0.0,0.0,0.0,0.0,0.0,0.0,0.0,0.0,0.0,0.0,0.0,0.0,0.0,0.0,0.0,0.0,0.0,0.0,0.0,0.0,0.0,0.0,0.0,0.0,0.0,0.0,0.0,0.0,0.0,0.0,0.0,0.0,0.0,0.0,0.0,0.0,0.0,0.0,0.0,0.0,0.0,0.0,0.0,1.3126,1.5137,1.6269,1.6413,1.6445,1.6314,1.6055,1.545,1.4694,0.0,0.0,0.0,0.0,0.0,0.0,0.0,0.0,0.0,0.0,0.0,0.0,0.0,0.0,0.0,0.0,0.0,0.0,0.0,0.0,0.0,0.0,0.0,0.0,0.0,0.0,0.0,0.0,0.0,0.0,0.0,0.0,0.0,0.0,0.0,0.0,0.0,0.0,0.0,0.0,0.0,1.9361,1.9761,2.1048,2.1121,0.0,0.0,1.8389,1.6625,1.7005,1.6907,1.5336,0.0,0.0,0.0,0.0,0.0,0.0,0.0,0.0,0.0,0.0,0.0,0.0,0.0,0.0,0.0,0.0,0.0,0.0,0.0,0.0,0.0,0.0,0.0,0.0,0.0,0.0,0.0,0.0,0.0,0.0,0.0,0.0,0.0,0.0,0.0,0.0,0.0,0.0,0.0,0.0,0.0,0.0,0.0,0.0,0.0,0.0,0.0,0.0,0.0,0.0,0.0,0.0,0.0,1.2967,1.3766,1.545,1.6326,1.6433,1.644,1.6435,1.6279,1.5351,1.4616,0.0,0.0,0.0,0.0,0.0,0.0,0.0,0.0,0.0,0.0,0.0,0.0,0.0,0.0,0.0,0.0,0.0,0.0,0.0,0.0,0.0,0.0,0.0,0.0,0.0,0.0,0.0,0.0,1.2305,1.2305,1.2305,0.0,0.0,0.0,0.0,0.0,0.0,0.0,0.0,0.0,0.0,2.0241,2.0492,2.152,0.0,0.0,2.0516,2.0371,1.9364,1.9117,1.8416,1.6632,1.6149,0.0,0.0,0.0,0.0,0.0,0.0,0.0,0.0,0.0,0.0,0.0,0.0,0.0,0.0,0.0,0.0,0.0,0.0,0.0,0.0,0.0,0.0,0.0,0.0,0.0,0.0,0.0,0.0,0.0,0.0,0.0,0.0,0.0,0.0,0.0,0.0,0.0,0.0,0.0,0.0,0.0,0.0,0.0,0.0,0.0,0.0,0.0,0.0,0.0,0.0,0.0,0.0,1.343,1.4222,1.5484,1.6146,1.6139,1.6139,1.6139,1.6106,1.509,1.4382,0.0,0.0,0.0,0.0,0.0,0.0,0.0,0.0,0.0,0.0,0.0,0.0,0.0,0.0,0.0,0.0,0.0,0.0,0.0,0.0,0.0,0.0,0.0,0.0,0.0,0.0,0.0,0.0,1.2556,1.2703,1.2739,0.0,0.0,0.0,0.0,0.0,0.0,0.0,0.0,0.0,0.0,2.1384,2.1821,2.2673,2.2915,2.1735,2.1756,2.1642,2.0785,2.035,1.9575,1.8006,0.0,0.0,0.0,0.0,0.0,0.0,0.0,0.0,0.0,0.0,0.0,0.0,0.0,0.0,0.0,0.0,0.0,0.0,0.0,0.0,0.0,0.0,0.0,0.0,0.0,0.0,0.0,0.0,0.0,0.0,1.1566,0.0,0.0,0.0,0.0,0.0,0.0,0.0,0.0,0.0,0.0,0.0,0.0,0.0,0.0,0.0,0.0,0.0,0.0,0.0,0.0,0.0,0.0,1.4179,1.4509,1.5391,1.5845,1.5845,1.5838,1.5845,1.5825,1.4983,1.4382,1.4068,0.0,0.0,0.0,0.0,0.0,0.0,0.0,0.0,0.0,0.0,0.0,0.0,0.0,0.0,0.0,0.0,0.0,0.0,0.0,0.0,0.0,0.0,0.0,0.0,0.0,0.0,1.2378,1.3135,1.368,0.0,0.0,0.0,0.0,0.0,0.0,0.0,0.0,0.0,0.0,2.1935,2.3121,2.4146,2.5043,2.4812,2.2729,2.2413,2.1837,2.0329,2.033,2.0245,0.0,0.0,0.0,0.0,0.0,0.0,0.0,0.0,0.0,0.0,0.0,0.0,0.0,0.0,0.0,0.0,0.0,0.0,0.0,0.0,0.0,0.0,0.0,0.0,0.0,0.0,0.0,1.4519,1.4429,0.0,0.0,0.0,0.0,0.0,0.0,0.0,0.0,0.0,0.0,0.0,1.3275,1.4213,0.0,0.0,0.0,0.0,0.0,0.0,0.0,0.0,0.0,0.0,0.0,0.0,1.4235,1.4506,1.5331,1.5825,1.5825,1.5825,1.5825,1.5771,1.4983,1.4102,1.3259,0.0,0.0,0.0,0.0,0.0,0.0,0.0,0.0,0.0,0.0,0.0,0.0,0.0,0.0,0.0,0.0,0.0,0.0,0.0,0.0,0.0,0.0,0.0,0.0,0.0,1.3491,0.0,0.0,0.0,0.0,0.0,0.0,0.0,0.0,0.0,0.0,0.0,1.9683,2.2059,2.299,2.3777,2.4719,2.5361,2.5431,0.0,0.0,0.0,0.0,0.0,0.0,0.0,0.0,0.0,0.0,0.0,0.0,0.0,0.0,2.3467,1.9705,1.8789,1.8747,1.9194,0.0,0.0,0.0,0.0,0.0,0.0,0.0,0.0,0.0,0.0,0.0,0.0,0.0,0.0,1.5825,0.0,1.5324,0.0,0.0,0.0,0.0,0.0,0.0,0.0,0.0,1.4643,1.477,1.4683,1.4914,1.4856,0.0,1.4669,1.4422,0.0,0.0,0.0,0.0,0.0,0.0,0.0,0.0,1.4229,1.4543,1.5338,1.5825,1.5825,1.5825,1.5825,1.5764,1.4932,1.4015,1.2978,1.2619,1.2442,0.0,0.0,0.0,0.0,0.0,0.0,0.0,0.0,0.0,0.0,0.0,0.0,0.0,0.0,0.0,0.0,0.0,0.0,0.0,0.0,0.0,0.0,0.0,1.4914,0.0,0.0,0.0,0.0,0.0,0.0,0.0,0.0,0.0,2.0118,2.0273,2.1087,2.3086,2.3603,2.4043,2.4746,0.0,0.0,0.0,0.0,0.0,0.0,0.0,2.3767,2.2913,2.2926,2.3187,2.3533,2.5034,2.5809,2.4664,0.0,0.0,2.216,2.1283,2.1184,2.1667,2.1515,2.1753,2.3131,2.3159,2.3231,0.0,0.0,0.0,0.0,0.0,0.0,0.0,0.0,1.5825,1.5825,0.0,1.5518,0.0,0.0,0.0,0.0,0.0,1.474,0.0,0.0,1.5117,1.529,1.5028,1.5042,1.5035,1.5022,1.5028,1.4823,1.4509,1.3919,0.0,0.0,0.0,0.0,0.0,0.0,1.4249,1.4576,1.5398,1.5825,1.5825,1.5825,1.5906,1.5913,1.5098,1.4277,1.3386,1.3099,1.2763,1.2442,1.2385,0.0,0.0,0.0,0.0,0.0,0.0,0.0,0.0,0.0,0.0,0.0,0.0,0.0,0.0,0.0,0.0,0.0,0.0,0.0,0.0,1.5691,0.0,0.0,0.0,0.0,0.0,0.0,0.0,0.0,0.0,0.0,2.117,2.1941,2.2822,2.3643,0.0,0.0,0.0,0.0,2.4316,2.3984,2.4219,2.4482,2.4502,2.5166,2.5547,2.5166,0.0,0.0,2.5312,2.5537,2.5703,2.5283,2.5654,2.6025,2.6805,2.6004,2.5616,2.6063,2.5489,2.5293,2.5625,2.5586,2.5616,1.6406,0.0,0.0,0.0,0.0,1.5825,1.5825,1.5825,1.5825,1.5825,1.5764,1.5524,0.0,0.0,0.0,0.0,0.0,0.0,1.4961,1.4856,1.5217,1.5351,1.5284,1.5484,1.5478,1.5323,1.5271,1.5124,1.4881,1.4713,1.4182,1.336,0.0,0.0,0.0,0.0,1.4643,1.5137,1.5598,1.5825,1.5825,1.6662,1.7314,1.7642,1.7243,1.6627,1.5874,1.5276,1.4906,1.4812,1.3828,0.0,0.0,0.0,0.0,0.0,0.0,0.0,0.0,0.0,0.0,0.0,0.0,0.0,0.0,0.0,0.0,0.0,0.0,0.0,1.6295,1.7896,1.8789,0.0,0.0,0.0,0.0,0.0,0.0,0.0,0.0,0.0,2.209,2.2311,2.2715,0.0,0.0,2.3935,2.4355,2.4687,2.5068,2.5566,2.5478,0.0,2.5781,2.5498,2.543,2.5928,2.6728,2.7268,2.7014,2.7275,2.7519,2.7373,2.7471,2.7646,2.7773,2.6678,2.5927,2.625,2.6172,2.6269,2.6924,2.6875,2.6738,1.7121,1.6506,1.6273,1.6172,1.6179,1.6131,1.6172,1.6166,1.6059,1.6005,1.5985,1.5691,1.5404,1.5117,1.483,0.0,0.0,0.0,1.5182,1.5189,1.5431,1.5565,1.5578,1.5745,1.5738,1.5571,1.5565,1.5688,1.5871,1.5871,1.5797,1.5531,0.0,0.0,1.4137,1.4988,1.5597,1.5969,1.6839,1.7304,1.7296,1.8033,1.851,1.8646,1.8326,1.7838,1.7179,1.6541,1.6101,1.5818,1.4976,1.4736,0.0,0.0,0.0,0.0,0.0,0.0,0.0,0.0,0.0,0.0,0.0,1.4546,1.4553,0.0,0.0,0.0,1.6201,1.7013,1.8146,1.9419,0.0,0.0,0.0,0.0,0.0,0.0,0.0,2.1366,2.1865,2.2227,2.2438,2.2656,2.2935,2.352,2.373,2.4004,2.46,0.0,2.5254,2.5791,2.5791,2.5781,2.6084,2.5977,2.6133,2.7002,2.7559,2.7891,2.792,2.8125,2.8291,2.8301,2.8301,2.8301,2.8301,2.7422,2.6826,2.708,2.7139,2.7334,2.7832,2.7705,2.7598,1.7882,1.7609,1.7074,1.6807,1.674,1.6714,1.67,1.6687,1.642,1.6306,1.6335,1.6088,1.5873,1.5693,1.5427,0.0,1.5318,1.5611,1.5741,1.5761,1.598,1.6103,1.6103,1.6103,1.6103,1.6103,1.6103,1.6546,1.7342,1.7379,1.7801,1.8576,1.6169,1.4772,1.4612,1.6169,1.6991,1.7022,1.8664,1.9542,1.9633,1.9625,1.9541,1.936,1.8867,1.8314,1.7721,1.7251,1.672,1.6063,1.5923,1.5719,1.5436,0.0,0.0,0.0,0.0,0.0,0.0,0.0,0.0,0.0,0.0,0.0,0.0,0.0,0.0,0.0,1.7843,0.0,1.9837,2.0312,0.0,0.0,0.0,2.0791,2.12,2.1249,2.1455,2.1885,0.0,0.0,2.2559,2.2857,2.3403,2.4307,2.4082,2.4141,2.5008,2.5145,2.5184,2.5321,2.5547,2.5762,2.5927,2.6533,2.7207,2.7861,2.8252,2.8271,2.8262,2.8281,2.8291,2.8301,2.8301,2.8301,2.8301,2.8213,2.8291,2.8223,2.8242,2.8262,2.8262,2.8242,2.8213,1.8544,1.8263,1.8123,1.7669,1.7079,1.68,1.6707,1.67,1.6633,1.6607,1.663,1.7292,1.7822,1.8203,1.816,1.8128,1.8144,1.8395,1.8553,1.8508,1.8586,1.8626,1.8626,1.8626,1.8626,1.8626,1.8626,1.8762,1.8956,1.8948,1.9043,1.9232,1.8611,1.8179,1.795,1.835,1.8649,1.8872,1.9269,1.9943,2.0845,2.089,2.0986,2.1217,2.0752,2.0141,1.9344,1.8573,1.8139,1.7906,1.698,1.6666,1.7304,1.5983,0.0,0.0,0.0,0.0,0.0,0.0,0.0,0.0,0.0,1.7409,1.7409,0.0,1.8532,0.0,1.9201,1.9686,1.9874,2.0341,0.0,0.0,2.1025,2.125,2.168,2.1738,2.1885,2.2314,2.2451,2.2637,2.2906,2.3033,2.3413,2.4241,2.4326,2.4473,2.499,2.5371,2.5703,2.5967,2.6113,2.6348,2.6631,2.7158,2.7451,2.7334,2.7861,2.8291,2.8291,2.8301,2.8301,2.8301,2.8301,2.8301,2.8301,2.8301,2.8301,2.8301,2.8301,2.8301,2.8301,2.8301,2.8301,2.0005,1.9787,1.9005,1.9139,1.9821,1.8043,1.7228,1.7139,1.7606,1.7493,1.6982,1.7942,1.8933,1.9816,1.9642,1.9575,1.953,1.9526,1.9497,1.9497,1.9497,1.9497,1.9497,1.9497,1.9497,1.9497,1.9497,1.9761,2.026,2.0305,2.0576,2.1087,2.1087,2.1025,2.0872,2.0359,2.0143,2.0296,2.0809,2.1445,2.2066,2.1951,2.1964,2.2126,2.1367,2.0703,2.0225,1.9385,1.8802,1.8607,1.7891,1.7647,1.7949,1.7019,1.698,0.0,0.0,0.0,0.0,0.0,0.0,0.0,0.0,0.0,0.0,0.0,1.9561,1.957,1.9951,2.0205,2.0205,2.0596,2.0957,2.1181,2.1406,2.1699,2.2119,2.2168,2.2525,2.343,2.3074,2.3044,2.3727,2.343,2.3344,2.4053,2.4141,2.4365,2.4951,2.5293,2.5527,2.5762,2.5967,2.624,2.667,2.709,2.7295,2.7129,2.7568,2.8008,2.8018,2.8008,2.8066,2.8242,2.8301,2.8301,2.8301,2.8301,2.8301,2.8301,2.8301,2.8301,2.8301,2.8301,2.8301,2.1862,2.1726,2.0182,2.1041,2.3135,2.0015,1.8433,1.7978,1.8694,1.8484,1.7728,1.8786,1.999,2.1224,2.0853,2.0653,2.0636,2.0276,2.0107,2.0065,2.0065,2.0039,1.9951,1.9951,1.9943,1.9943,1.9943,2.0531,2.1525,2.1515,2.2066,2.3047,2.3101,2.3101,2.3047,2.2031,2.1525,2.1569,2.258,2.3101,2.3091,2.2734,2.248,2.2383,2.1221,2.0556,2.0429,1.9629,1.9004,1.8549,1.8559,1.8432,1.8115,1.811,1.833,0.0,1.8734,0.0,0.0,0.0,0.0,0.0,0.0,0.0,0.0,2.0,1.999,2.0,2.0342,2.0625,2.0683,2.1006,2.1239,2.1356,2.1748,2.2139,2.2496,2.2716,2.3303,2.4671,2.4049,2.393,2.483,2.4135,2.372,2.4058,2.4044,2.4326,2.4987,2.531,2.5476,2.5342,2.5813,2.6619,2.6685,2.6942,2.7168,2.7065,2.7275,2.7568,2.763,2.763,2.7695,2.8008,2.8066,2.8096,2.8135,2.8144,2.8203,2.8184,2.8232,2.8291,2.8301,2.8301,2.8301,2.3375,2.3375,2.3031,2.3061,2.334,2.2665,2.1387,1.9692,1.845,1.8774,2.0363,2.1629,2.2751,2.37,2.3614,2.3577,2.3577,2.3491,2.3282,2.3005,2.2969,2.278,2.2422,2.2413,2.2413,2.2413,2.2403,2.2545,2.2765,2.2765,2.2862,2.3091,2.3101,2.3101,2.3091,0.0,0.0,0.0,2.3003,2.3101,2.3081,2.2682,2.2344,2.1992,2.1114,0.0,1.9561,1.9033,1.8529,1.8164,1.8422,0.0,0.0,0.0,0.0,0.0,0.0,0.0,0.0,0.0,0.0,0.0,2.0527,2.0488,2.0478,2.0478,2.0478,2.0478,2.0556,2.0752,2.1034,2.1142,2.1473,2.2187,2.2344,2.2516,2.2949,2.3798,2.4502,2.4777,2.5389,2.5933,2.6099,2.5975,2.5614,2.5168,2.483,2.483,2.5259,2.5995,2.6496,2.6651,2.7543,2.819,2.7477,2.7651,2.7429,2.6893,2.6855,2.7109,2.7139,2.7139,2.7148,2.7285,2.7266,2.7285,2.7285,2.7529,2.7783,2.7845,2.8047,2.8301,2.8301,2.8291,2.8301,2.4931,0.0,2.4108,2.4543,0.0,2.4076,2.3141,2.2548,2.1406,2.1818,2.3287,2.3336,2.3966,2.5011,2.4834,2.4629,2.4404,2.4209,2.3877,2.3477,2.3467,2.3315,2.3101,2.3101,2.3101,2.3101,2.3101,2.3101,2.3101,2.3101,2.3101,2.3101,2.3101,2.3101,2.3101,2.3101,2.3101,2.3101,2.3101,2.3101,2.3081,2.2725,2.2314,2.1894,2.1065,0.0,0.0,0.0,0.0,0.0,0.0,0.0,0.0,1.917,0.0,1.959,1.9795,2.001,2.0215,2.0478,2.0615,2.0615,2.0615,2.0615,2.0615,2.0615,2.0615,2.0615,2.0615,2.0752,2.1142,2.1395,2.1807,2.2432,2.3178,2.373,2.4008,2.4925,2.5828,2.6315,2.6461,2.6678,2.7238,2.6801,2.6396,2.5987,2.5793,2.5717,2.5882,2.605,2.6274,2.67,2.7683,2.8028,2.7023,2.7033,2.7078,2.632,2.6426,2.667,2.6709,2.6709,2.6768,2.6953,2.7012,2.7012,2.7031,2.7207,2.7344,2.7353,2.751,2.7744,2.793,2.8144,2.8291,2.649,2.6381,2.5096,2.6054,2.8101,2.5388,2.465,2.5313,0.0,0.0,0.0,2.4402,2.4667,2.5664,2.5352,2.499,2.4639,2.4297,2.3896,2.3442,2.3432,2.3354,2.3218,2.3208,2.3169,2.3101,2.3101,2.3101,2.3101,2.3101,2.3101,2.3101,2.3101,2.3101,2.3101,2.3101,2.3101,2.3101,2.3101,2.3101,2.3081,2.2734,2.2314,2.1894,2.1143,2.0449,1.9894,1.958,1.9365,1.9297,1.9355,1.9394,1.9394,1.9473,1.9668,2.0,2.0029,2.0185,2.0576,2.0615,2.0615,2.0615,2.0615,2.0615,2.0615,2.0615,2.0635,2.0713,2.0654,2.0928,2.1629,2.1966,2.2486,2.3143,2.4324,2.5073,2.5168,2.6088,2.7116,2.7855,2.7533,2.7424,2.8267,2.7706,2.6976,2.6842,2.6812,2.6801,2.6745,2.6521,2.6628,2.7374,2.8034,2.7611,2.6265,2.6177,2.6103,2.5585,2.5771,2.6055,2.6133,2.6152,2.6328,2.665,2.6787,2.6758,2.6777,2.6826,2.6894,2.6904,2.6973,2.7119,2.7471,2.7812,2.8076,2.8004,2.795,2.7789,2.7906,2.8291,2.7839,2.7252,2.6577,2.466,2.3845,2.4038,2.502,2.5489,2.5684,2.5625,2.5557,2.5508,2.544,2.5215,2.4805,2.4842,2.4404,2.3711,2.3701,2.3506,2.311,2.3101,2.3101,2.3101,2.3101,2.3101,2.3101,2.3101,2.3101,2.3101,2.3101,2.3101,2.3101,2.3101,2.3101,2.3091,2.2725,2.2314,2.1894,2.1406,2.0703,1.9951,1.9853,1.9658,1.9316,1.9629,1.9834,1.9834,2.0166,2.0449,2.0507,2.0469,2.0546,2.0595,2.0615,2.0615,2.0615,2.0615,2.0615,2.0615,2.0615,2.0723,2.1074,2.082,2.1471,2.3432,2.345,2.3972,2.5557,2.6086,2.6265,2.6265,2.7197,2.7936,2.8176,2.8858,2.9248,2.9365,2.9287,2.8779,2.8108,2.7896,2.7896,2.7926,2.821,2.8667,2.9195,2.9406,2.8578,2.6713,2.6243,2.5793,2.4749,2.4717,2.4961,2.5264,2.535,2.5469,2.5859,2.5908,2.5918,2.5918,2.623,2.6426,2.6494,2.6699,2.6973,2.709,2.7258,2.7513,2.8086,2.8252,2.8047,2.8086,2.8271,2.8057,2.7598,2.6922,2.5729,2.5022,2.4873,2.544,2.5684,2.5684,2.5684,2.5547,2.5371,2.5371,2.5127,2.4736,2.4707,2.4385,2.3828,2.3789,2.3555,2.311,2.3101,2.3101,2.3101,2.3101,2.3101,2.3101,2.3101,2.3101,2.3101,2.3101,2.3101,2.3101,2.3101,2.3101,2.3101,2.2949,2.2496,2.1914,2.1689,2.1172,2.0303,2.0264,2.0185,2.0028,2.0166,2.0264,2.0273,2.0498,2.0615,2.0615,2.0615,2.0615,2.0615,2.0615,2.0615,2.0615,2.0615,2.0615,2.0615,2.0615,2.0693,2.0889,2.1111,2.2007,2.3652,2.41,2.4908,2.6341,2.7005,2.7371,2.7481,2.8359,2.9015,2.9067,2.9456,2.9792,2.9779,2.9779,2.9663,2.9067,2.9015,2.9028,2.8976,2.9184,2.9326,2.9278,2.897,2.8091,2.6485,2.5618,2.5083,2.446,2.4424,2.4492,2.4687,2.4707,2.4902,2.5273,2.5371,2.5488,2.5615,2.583,2.6006,2.6045,2.6162,2.6327,2.6642,2.7321,2.8208,2.8041,2.8262,2.7939,2.7998,2.8252,2.7904,2.7412,2.6982,2.6572,2.6152,2.5723,2.5684,2.5684,2.5684,2.5684,2.5488,2.5107,2.5059,2.4834,2.4443,2.4424,2.4199,2.3818,2.3789,2.3564,2.314,2.3101,2.3101,2.3101,2.3101,2.3101,2.3101,2.3101,2.3101,2.3101,2.3101,2.3101,2.3101,2.3101,2.3101,2.3101,2.3101,2.2783,2.209,2.1934,2.1523,2.0771,2.0654,2.0615,2.0615,2.0615,2.0615,2.0615,2.0615,2.0615,2.0615,2.0615,2.0615,2.0615,2.0615,2.0722,2.0895,2.0895,2.1011,2.1231,2.127,2.1205,2.1169,2.1627,2.2569,2.4024,2.4915,2.5823,2.6921,2.7888,2.8478,2.8557,2.9287,2.9779,2.9779,2.9779,2.9779,2.9779,2.9779,2.974,2.974,2.9779,2.9779,2.9779,2.9779,2.9524,2.8765,2.8035,2.7127,2.5967,2.4851,2.4218,2.4085,2.4056,2.4121,2.4209,2.4268,2.4521,2.4979,2.5088,2.5283,2.5577,2.5693,2.5713,2.5732,2.5771,2.584,2.6231,2.7721,2.8968,2.8252,2.8281,2.8223,2.8252,2.8242,2.7851,2.7422,2.6982,2.6562,2.6143,2.5703,2.5684,2.5684,2.5684,2.5684,2.5498,2.5078,2.5059,2.4834,2.4453,2.4424,2.4199,2.3809,2.3789,2.3564,2.314,2.3101,2.3101,2.3101,2.3101,2.3101,2.3101,2.3101,2.3101,2.3101,2.3101,2.3101,2.3101,2.3101,2.3101,2.3101,2.3101,2.2877,2.2471,2.208,2.166,2.1122,2.0781,2.0615,2.0615,2.0615,2.0615,2.0615,2.0615,2.0615,2.0635,2.0625,2.0615,2.0625,2.0615,2.0954,2.1773,2.1783,2.214,2.2999,2.3147,2.2971,2.2632,2.2241,2.3346,2.5791,2.6361,2.7076,2.8379,2.9156,2.9675,2.9585,2.974,2.9779,2.9779,2.9779,2.9779,2.9779,2.9779,2.9779,2.9779,2.9779,2.9779,2.9779,2.9779,2.9495,2.8391,2.7359,2.6276,2.5179,2.3975,2.3545,2.3384,2.3247,2.3432,2.373,2.3877,2.4082,2.4648,2.501,2.5166,2.5518,2.5684,2.5684,2.5684,2.5732,2.5762,2.6034,2.7709,2.9226,2.8066,2.8262,2.8027,2.8076,2.8213,2.7894,2.7422,2.6982,2.6572,2.6143,2.5713,2.5684,2.5684,2.5684,2.5684,2.5498,2.5125,2.5059,2.4834,2.4443,2.4424,2.4189,2.3828,2.3789,2.3564,2.313,2.3101,2.3101,2.3101,2.3101,2.3101,2.3101,2.3101,2.3101,2.3101,2.3101,2.3101,2.3101,2.3101,2.3101,2.3101,2.3101,2.2896,2.2549,2.2353,2.1924,2.1268,2.1005,2.084,2.0635,2.0615,2.0732,2.0947,2.0713,2.084,2.1319,2.1348,2.1388,2.1338,2.1113,2.1105,2.1518,2.1306,2.1593,2.2478,2.2627,2.3073,2.4296,2.4351,2.4955,2.6405,2.7392,2.8374,2.9251,2.9666,2.9779,2.9779,2.9779,2.9779,2.9779,2.9779,2.9779,2.9779,2.9779,2.9779,2.9779,2.9779,2.9779,2.9779,2.9779,2.9611,2.9028,2.7666,2.613,2.5041,2.4457,2.3844,2.3309,2.3101,2.3208,2.3296,2.3408,2.3623,2.4248,2.4521,2.4834,2.5244,2.5576,2.5684,2.5713,2.5839,2.6121,2.7962,2.8913,2.9604,2.8008,2.8203,2.7894,2.7842,2.8076,2.7666,2.7236,2.6836,2.6514,2.6143,2.5703,2.5684,2.5615,2.5566,2.5557,2.5312,2.4912,2.4822,2.4482,2.4102,2.4062,2.3861,2.3633,2.3603,2.3447,2.314,2.3101,2.3101,2.3101,2.3101,2.3101,2.3101,2.3101,2.3101,2.3101,2.3101,2.3101,2.3101,2.3101,2.3101,2.3101,2.3101,2.2945,2.2662,2.2535,2.2217,2.1621,2.1484,2.126,2.0987,2.0977,2.1074,2.1377,2.1094,2.1261,2.1838,2.1936,2.204,2.2308,2.1637,2.1461,2.1917,2.1406,2.1517,2.2515,2.2813,2.3849,2.5791,2.6324,2.6602,2.7076,2.8163,2.9063,2.9503,2.9666,2.9779,2.9779,2.9779,2.9779,2.9779,2.9779,2.9779,2.9779,2.9779,2.9779,2.9779,2.9779,2.9779,2.9779,2.9779,2.9702,2.9378,2.7879,2.6666,2.5462,2.45,2.4006,2.3507,2.3101,2.3101,2.3101,2.3101,2.3247,2.3935,2.4121,2.4375,2.4775,2.5166,2.5565,2.5691,2.6146,2.7023,2.849,2.939,3.0261,2.8281,2.8223,2.7885,2.7656,2.7699,2.7226,2.6816,2.6455,2.6387,2.6123,2.5713,2.5654,2.5488,2.5174,2.5135,2.4853,2.4434,2.4072,2.3691,2.3257,2.3208,2.3159,2.312,2.312,2.312,2.3101,2.3101,2.3101,2.3101,2.3101,2.3101,2.3101,2.3101,2.3101,2.3101,2.3101,2.3101,2.3101,2.3101,2.3101,2.3101,2.3101,2.3091,2.3003,2.2682,2.25,2.2383,2.206,2.1836,2.1807,2.1818,2.1858,2.1855,2.1836,2.1865,2.1904,2.1914,2.2379,2.3041,2.202,2.1948,2.3421,2.2474,2.2664,2.4192,2.4358,2.5194,2.7066,2.7529,2.7828,2.8063,2.8612,2.8988,2.9063,2.9515,2.9754,2.9779,2.9779,2.9779,2.9779,2.9779,2.9779,2.9779,2.9779,2.9779,2.9779,2.9779,2.9779,2.9779,2.9779,2.9404,2.8688,2.8056,2.7602,2.6472,2.4967,2.3681,2.3309,2.3343,2.3178,2.3135,2.3149,2.3418,2.3613,2.3809,2.4043,2.4326,2.4673,2.5095,2.5876,2.7554,2.8718,2.8787,3.0034,3.0888,2.8135,2.7904,2.7432,2.7246,2.7197,2.6797,2.6523,2.6367,2.6084,2.584,2.5654,2.5439,2.5215,2.5086,2.4538,2.417,2.4004,2.3848,2.3555,2.313,2.3101,2.3101,2.3101,2.3101,2.3101,2.3101,2.3101,2.3101,2.3101,2.3101,2.3101,2.3101,2.3101,2.3101,2.3101,2.3101,2.3101,2.3101,2.3101,2.3101,2.3101,2.3101,2.3101,2.3091,2.2955,2.274,2.2519,2.2363,2.2168,2.1904,2.1936,2.2012,2.2275,2.2539,2.2568,2.2353,2.2539,2.2847,2.3036,2.228,2.1926,2.2522,2.1752,2.1993,2.3508,2.3817,2.4685,2.703,2.7593,2.7972,2.8975,2.9377,2.9478,2.9503,2.9654,2.9779,2.9779,2.9779,2.9779,2.9779,2.9779,2.9779,2.9779,2.9779,2.9779,2.9779,2.9779,2.9779,2.9779,2.9779,2.9585,2.9028,2.7999,2.7209,2.7654,2.563,2.4178,2.3973,2.3844,2.38,2.3767,2.3266,2.3355,2.3389,2.3545,2.3875,2.4195,2.5204,2.5543,2.696,2.8666,2.8819,2.88,3.0248,3.1026,2.7842,2.7422,2.6992,2.6816,2.6758,2.6357,2.6172,2.6143,2.581,2.5654,2.5488,2.5195,2.4979,2.4646,2.4098,2.3701,2.3594,2.3574,2.3418,2.311,2.3101,2.3101,2.3101,2.3101,2.3101,2.3101,2.3101,2.3101,2.3101,2.3101,2.3101,2.3101,2.3101,2.3101,2.3101,2.3101,2.3101,2.3101,2.3101,2.3101,2.3101,2.3101,2.3101,2.3101,2.3101,2.2964,2.2682,2.2715,2.2607,2.2334,2.2285,2.2422,2.2672,2.2935,2.2974,2.274,2.2925,2.3309,2.3481,2.2673,2.2247,2.258,2.1708,2.1744,2.3178,2.3073,2.4575,2.6842,2.7595,2.7978,2.9333,2.9779,2.9779,2.9779,2.9779,2.9779,2.9779,2.9779,2.9779,2.9779,2.9779,2.9779,2.9779,2.9779,2.9779,2.9779,2.9779,2.9779,2.9779,2.9792,2.9585,2.9248,2.8028,2.7371,2.729,2.6016,2.4882,2.4595,2.4296,2.4296,2.3973,2.3474,2.3198,2.3203,2.3355,2.3708,2.4448,2.5545,2.6766,2.8077,2.8679,2.8936,2.9568,3.053,3.1339,2.7393,2.6973,2.6553,2.6387,2.6328,2.5918,2.5713,2.5732,2.5693,2.5518,2.5176,2.5096,2.4636,2.3965,2.3779,2.3545,2.3208,2.3169,2.3149,2.3101,2.3101,2.3101,2.3101,2.3101,2.3101,2.3101,2.3101,2.3101,2.3101,2.3101,2.3101,2.3101,2.3101,2.3101,2.3101,2.3101,2.3101,2.3101,2.3101,2.3101,2.3101,2.3101,2.3101,2.3101,2.3101,2.3081,2.3071,2.3062,2.3023,2.3023,2.3023,2.3071,2.3033,2.3091,2.3081,2.3052,2.3091,2.3627,2.432,2.324,2.2876,2.338,2.2621,2.2199,2.3075,2.3269,2.4292,2.6566,2.7179,2.7819,2.9215,2.9611,2.9663,2.9779,2.9779,2.9779,2.9779,2.9779,2.9779,2.9779,2.9779,2.9779,2.9779,2.9779,2.9779,2.9779,2.9779,2.9779,2.9779,2.9779,2.9314,2.8636,2.8096,2.7775,2.7128,2.6442,2.5766,2.5168,2.484,2.4585,2.3973,2.343,2.3178,2.313,2.313,2.3506,2.4919,2.5991,2.6726,2.7821,2.8387,2.9349,3.0285,3.1178,3.1909,2.6709,2.6533,2.6123,2.5888,2.5928,2.5732,2.5684,2.5684,2.5684,2.5478,2.5068,2.4746,2.4297,2.3809,2.3486,2.3227,2.3101,2.3101,2.3101,2.3101,2.3101,2.3101,2.3101,2.3101,2.3101,2.3101,2.3101,2.3101,2.3101,2.3101,2.3101,2.3101,2.3101,2.3101,2.3101,2.3101,2.3101,2.3101,2.3101,2.3101,2.3101,2.3101,2.3101,2.3101,2.3101,2.3101,2.3101,2.3101,2.3101,2.3101,2.3101,2.3101,2.3101,2.3101,2.3101,2.3101,2.3101,2.3178,2.3457,2.3011,2.2647,2.2844,2.2296,2.241,2.3102,2.2971,2.3783,2.5715,2.5839,2.6386,2.81,2.8636,2.8976,2.9714,2.9779,2.9779,2.9779,2.9779,2.9779,2.9779,2.9779,2.9779,2.9779,2.9779,2.9779,2.9779,2.9779,2.9779,2.9779,2.9779,2.974,2.9314,2.8767,2.8255,2.7947,2.7354,2.6648,2.5891,2.5378,2.4628,2.3973,2.3724,2.343,2.3343,2.3299,2.4036,2.5391,2.6293,2.7043,2.801,2.8999,2.9966,3.0956,3.1777,3.2469,2.6387,2.6338,2.5918,2.5684,2.5684,2.5684,2.5684,2.5684,2.5684,2.54,2.4844,2.4541,2.4082,2.3584,2.3208,2.3101,2.3101,2.3101,2.3101,2.3101,2.3101,2.3101,2.3101,2.3101,2.3101,2.3101,2.3101,2.3101,2.3101,2.3101,2.3101,2.3101,2.3101,2.3101,2.3101,2.3101,2.3101,2.3101,2.3101,2.3101,2.3101,2.3101,2.3101,2.3101,2.3101,2.3101,2.3101,2.3101,2.3101,2.3101,2.3101,2.3101,2.3101,2.3101,2.3101,2.3101,2.3101,2.3091,2.3071,2.291,2.2701,2.2652,2.249,2.2597,2.3057,2.2873,2.359,2.4867,2.506,2.5535,2.7157,2.7924,2.8426,2.9067,2.9573,2.974,2.9779,2.9779,2.9779,2.9779,2.9779,2.9779,2.9779,2.9779,2.9779,2.9779,2.9779,2.9779,2.9779,2.9779,2.9663,2.9534,2.9106,2.8858,2.891,2.8291,2.7476,2.6689,2.5933,2.4882,2.3973,2.4092,2.4006,2.4253,2.4339,2.542,2.6734,2.6847,2.7395,2.8487,2.9652,3.0544,3.1477,3.2308,3.2939,2.6367,2.6328,2.5869,2.5684,2.5684,2.5684,2.5684,2.5684,2.5684,2.5245,2.4629,2.4463,2.3949,2.3296,2.3149,2.3101,2.3101,2.3101,2.3101,2.3101,2.3101,2.3101,2.3101,2.3101,2.3101,2.3101,2.3101,2.3101,2.3101,2.3101,2.3101,2.3101,2.3101,2.3101,2.3101,2.3101,2.3101,2.3101,2.3101,2.3101,2.3101,2.3101,2.3101,2.3101,2.3101,2.3101,2.3101,2.3101,2.3101,2.3101,2.3101,2.3101,2.3101,2.3101,2.3101,2.3101,2.3101,2.3101,2.3101,2.3052,2.3033,2.3023,2.2994,2.3091,2.3071,2.3095,2.3428,2.4459,2.4554,2.5083,2.6254,2.7075,2.7763,2.8215,2.9145,2.9702,2.9779,2.9779,2.9779,2.9779,2.9779,2.9779,2.9779,2.9779,2.9779,2.9779,2.9779,2.9779,2.9779,2.9663,2.9275,2.9197,2.9275,2.9248,2.9248,2.8648,2.7867,2.7412,2.6543,2.5462,2.4135,2.4092,2.4713,2.4999,2.5336,2.6573,2.74,2.7416,2.8064,2.9326,3.0277,3.11,3.1778,3.2484,3.2905,2.6094,2.6338,2.5869,2.5684,2.5684,2.5684,2.5684,2.5684,2.5674,2.5381,2.4893,2.4551,2.4092,2.3613,2.3218,2.3101,2.3101,2.3101,2.3101,2.3101,2.3101,2.3101,2.3101,2.3101,2.3101,2.3101,2.3101,2.3101,2.3101,2.3101,2.3101,2.3101,2.3101,2.3101,2.3101,2.3101,2.3101,2.3101,2.3101,2.3101,2.3101,2.3101,2.3101,2.3101,2.3101,2.3101,2.3101,2.3101,2.3101,2.3101,2.3101,2.3101,2.3101,2.3101,2.3101,2.3101,2.3101,2.3101,2.3101,2.3101,2.3101,2.3101,2.3101,2.3101,2.3101,2.3101,2.3266,2.3551,2.3594,2.4049,2.5052,2.5577,2.6397,2.7924,2.9028,2.9702,2.9792,2.9779,2.9779,2.9779,2.9779,2.9779,2.9779,2.9779,2.9779,2.9779,2.9779,2.9779,2.9779,2.9779,2.9482,2.9573,2.9624,2.9585,2.9378,2.8806,2.8307,2.7976,2.7227,2.6202,2.4755,2.3671,2.4681,2.5599,2.5619,2.6532,2.7265,2.7632,2.8821,3.0004,3.0335,3.0864,3.1559,3.224,3.2491,2.6367,2.6865,2.626,2.6006,2.5937,2.582,2.5684,2.5645,2.5527,2.5205,2.4766,2.4336,2.3916,2.3496,2.3208,2.3101,2.3101,2.3101,2.3101,2.3101,2.3101,2.3101,2.3101,2.3101,2.3101,2.3101,2.3101,2.3101,2.3101,2.3101,2.3101,2.3101,2.3101,2.3101,2.3101,2.3101,2.3101,2.3101,2.3101,2.3101,2.3101,2.3101,2.3101,2.3101,2.3101,2.3101,2.3101,2.3101,2.3101,2.3101,2.3101,2.3101,2.3101,2.3101,2.3101,2.3101,2.3101,2.3101,2.3101,2.3101,2.3101,2.3101,2.3101,2.3101,2.3101,2.3101,2.3101,2.3135,2.3101,2.343,2.3963,2.45,2.5817,2.7711,2.8688,2.9287,2.9714,2.9779,2.9779,2.9779,2.9779,2.9779,2.9779,2.9779,2.9779,2.9779,2.9779,2.9779,2.9779,2.9779,2.9779,2.9779,2.9779,2.9702,2.9663,2.9236,2.8676,2.8386,2.7562,2.6614,2.5994,2.451,2.5168,2.6171,2.616,2.6513,2.7563,2.8445,2.9185,2.9991,3.0226,3.0631,3.1352,3.1838,3.2089,2.6855,2.7571,2.6719,2.6367,2.623,2.5859,2.5635,2.5576,2.5273,2.4863,2.4434,2.3984,2.3662,2.3203,2.3169,2.3101,2.3101,2.3101,2.3101,2.3101,2.3101,2.3101,2.3101,2.3101,2.3101,2.3101,2.3101,2.3101,2.3101,2.3101,2.3101,2.3101,2.3101,2.3101,2.3101,2.3101,2.3101,2.3101,2.3101,2.3101,2.3101,2.3101,2.3101,2.3101,2.3101,2.3101,2.3101,2.3101,2.3101,2.3101,2.3101,2.3101,2.3101,2.3101,2.3101,2.3101,2.3101,2.3101,2.3101,2.3101,2.3101,2.3101,2.3101,2.3101,2.3101,2.3101,2.3101,2.3101,2.3101,2.3178,2.3387,2.4135,2.5619,2.7348,2.7976,2.8636,2.9443,2.9779,2.9779,2.9779,2.9779,2.9779,2.9779,2.9779,2.9779,2.9779,2.9779,2.9779,2.9779,2.9779,2.9779,2.9779,2.9779,2.9779,2.9779,2.9702,2.9184,2.8688,2.7775,2.7116,2.7574,2.6789,2.6655,2.686,2.6971,2.7723,2.8934,2.963,2.9858,3.003,3.0276,3.0664,3.1085,3.1436,3.1712,2.668,2.7109,2.6602,2.6182,2.5849,2.5723,2.5537,2.5215,2.5155,2.4756,2.4385,2.3965,2.3721,2.3603,2.3227,2.3101,2.3101,2.3101,2.3101,2.3101,2.3101,2.3101,2.3101,2.3101,2.3101,2.3101,2.3101,2.3101,2.3101,2.3101,2.3101,2.3101,2.3101,2.3101,2.3101,2.3101,2.3101,2.3101,2.3101,2.3101,2.3101,2.3101,2.3101,2.3101,2.3101,2.3101,2.3101,2.3101,2.3101,2.3101,2.3101,2.3101,2.3101,2.3101,2.3101,2.3101,2.3101,2.3101,2.3101,2.3101,2.3101,2.3101,2.3101,2.3101,2.3101,2.3101,2.3101,2.3101,2.3101,2.3101,2.3222,2.4125,2.5294,2.6543,2.7562,2.8466,2.9482,2.9779,2.9779,2.9779,2.9779,2.9779,2.9779,2.9779,2.9779,2.9779,2.9779,2.9779,2.9779,2.9779,2.9779,2.9779,2.9779,2.9779,2.9779,2.9779,2.9534,2.9145,2.8319,2.7867,2.8331,2.8239,2.7735,2.7723,2.7884,2.8806,2.9702,2.9792,2.9813,3.0079,3.0269,3.0394,3.0608,3.0984,3.1148,2.6758,2.7246,2.665,2.626,2.5996,2.5615,2.5293,2.5057,2.4609,2.4346,2.4072,2.3672,2.3496,2.3467,2.3208,2.3101,2.3101,2.3101,2.3101,2.3101,2.3101,2.3101,2.3101,2.3101,2.3101,2.3101,2.3101,2.3101,2.3101,2.3101,2.3101,2.3101,2.3101,2.3101,2.3101,2.3101,2.3101,2.3101,2.3101,2.3101,2.3101,2.3101,2.3101,2.3101,2.3101,2.3101,2.3101,2.3101,2.3101,2.3101,2.3101,2.3101,2.3101,2.3101,2.3101,2.3101,2.3101,2.3101,2.3101,2.3101,2.3101,2.3101,2.3101,2.3101,2.3101,2.3101,2.3101,2.3101,2.3101,2.3101,2.3144,2.3507,2.4553,2.5588,2.6707,2.7775,2.8779,2.9443,2.9779,2.9779,2.9779,2.9779,2.9779,2.9779,2.9779,2.9779,2.9779,2.9779,2.9779,2.9779,2.9779,2.9779,2.9779,2.9779,2.9779,2.9779,2.9779,2.9573,2.9236,2.904,2.9248,2.891,2.841,2.8569,2.8727,2.9015,2.974,2.974,2.9779,2.9905,3.0005,2.998,3.0068,3.0357,3.0432,2.6846,2.7552,2.6709,2.6357,2.6182,2.5508,2.5155,2.4834,2.4209,2.3916,2.3633,2.3281,2.3159,2.3101,2.311,2.3101,2.3101,2.3101,2.3101,2.3101,2.3101,2.3101,2.3101,2.3101,2.3101,2.3101,2.3101,2.3101,2.3101,2.3101,2.3101,2.3101,2.3101,2.3101,2.3101,2.3101,2.3101,2.3101,2.3101,2.3101,2.3101,2.3101,2.3101,2.3101,2.3101,2.3101,2.3101,2.3101,2.3101,2.3101,2.3101,2.3101,2.3101,2.3101,2.3101,2.3101,2.3101,2.3101,2.3101,2.3101,2.3101,2.3101,2.3101,2.3101,2.3101,2.3101,2.3101,2.3101,2.3101,2.3101,2.3101,2.3222,2.3757,2.4713,2.5755,2.6748,2.7936,2.8976,2.9365,2.9779,2.9779,2.9779,2.9779,2.9779,2.9779,2.9779,2.9779,2.9779,2.9779,2.9779,2.9779,2.9779,2.9779,2.9779,2.9779,2.9779,2.9779,2.974,2.965,2.9702,2.9792,2.9456,2.9118,2.9365,2.9611,2.974,2.974,2.9779,2.9779,2.9779,2.9804,2.9867,2.9842,2.9792,2.9842,2.668,2.708,2.6602,2.6182,2.5801,2.5664,2.5166,2.458,2.4326,2.3887,2.3247,2.313,2.3101,2.3101,2.3101,2.3101,2.3101,2.3101,2.3101,2.3101,2.3101,2.3101,2.3101,2.3101,2.3101,2.3101,2.3101,2.3101,2.3101,2.3101,2.3101,2.3101,2.3101,2.3101,2.3101,2.3101,2.3101,2.3101,2.3101,2.3101,2.3101,2.3101,2.3101,2.3101,2.3101,2.3101,2.3101,2.3101,2.3101,2.3101,2.3101,2.3101,2.3101,2.3101,2.3101,2.3101,2.3101,2.3101,2.3101,2.3101,2.3101,2.3101,2.3101,2.3101,2.3101,2.3101,2.3101,2.3101,2.3101,2.3101,2.3101,2.3101,2.3637,2.45,2.5126,2.5953,2.751,2.8255,2.8897,2.9611,2.974,2.9779,2.9779,2.9779,2.9779,2.9779,2.9779,2.9779,2.9779,2.9779,2.9779,2.9779,2.9779,2.9779,2.9779,2.9779,2.9779,2.9779,2.974,2.974,2.9792,2.9792,2.9779,2.9779,2.9779,2.9779,2.9779,2.9779,2.9779,2.9779,2.9779,2.9779,2.9779,2.9779,2.9779,2.6299,2.6631,2.623,2.5879,2.5625,2.5177,2.4824,2.4339,2.39,2.3491,2.3198,2.3101,2.3101,2.3101,2.3101,2.3101,2.3101,2.3101,2.3101,2.3101,2.3101,2.3101,2.3101,2.3101,2.3101,2.3101,2.3101,2.3101,2.3101,2.3101,2.3101,2.3101,2.3101,2.3101,2.3101,2.3101,2.3101,2.3101,2.3101,2.3101,2.3101,2.3101,2.3101,2.3101,2.3101,2.3101,2.3101,2.3101,2.3101,2.3101,2.3101,2.3101,2.3101,2.3101,2.3101,2.3101,2.3101,2.3101,2.3101,2.3101,2.3101,2.3101,2.3101,2.3101,2.3101,2.3101,2.3101,2.3101,2.3101,2.3101,2.3101,2.3101,2.3387,2.3844,2.4425,2.5546,2.6748,2.7157,2.8119,2.9248,2.9546,2.9624,2.9779,2.9779,2.9779,2.9779,2.9779,2.9779,2.9779,2.9779,2.9779,2.9779,2.9779,2.9779,2.9779,2.9779,2.9779,2.9779,2.9779,2.9779,2.9779,2.9779,2.9779,2.9779,2.9779,2.9779,2.9779,2.9779,2.9779,2.9779,2.9779,2.9779,2.9779,2.9779,2.9779,2.5996,2.6357,2.5918,2.5684,2.5557,2.4893,2.4512,2.4268,2.3633,2.3227,2.3101,2.3101,2.3101,2.3101,2.3101,2.3101,2.3101,2.3101,2.3101,2.3101,2.3101,2.3101,2.3101,2.3101,2.3101,2.3101,2.3101,2.3101,2.3101,2.3101,2.3101,2.3101,2.3101,2.3101,2.3101,2.3101,2.3101,2.3101,2.3101,2.3101,2.3101,2.3101,2.3101,2.3101,2.3101,2.3101,2.3101,2.3101,2.3101,2.3101,2.3101,2.3101,2.3101,2.3101,2.3101,2.3101,2.3101,2.3101,2.3101,2.3101,2.3101,2.3101,2.3101,2.3101,2.3101,2.3101,2.3101,2.3101,2.3101,2.3101,2.3101,2.3101,2.3135,2.3299,2.3963,2.484,2.5724,2.6378,2.7046,2.8039,2.8922,2.9378,2.9456,2.9275,2.9184,2.974,2.9779,2.9779,2.9779,2.9779,2.9779,2.9779,2.9779,2.9779,2.9779,2.9779,2.9779,2.9779,2.9779,2.9779,2.9779,2.9779,2.9779,2.9779,2.9779,2.9779,2.9779,2.9779,2.9779,2.9779,2.9779,2.9779,2.9779,2.9779,2.9779,2.5996,2.6348,2.5918,2.5684,2.5596,2.5166,2.4746,2.4365,2.3887,2.3442,2.3101,2.3101,2.3101,2.311,2.313,2.311,2.3101,2.3149,2.314,2.311,2.3101,2.3101,2.3101,2.3101,2.3101,2.3101,2.3101,2.3101,2.3101,2.3101,2.3101,2.3101,2.3101,2.3101,2.3101,2.3101,2.3101,2.3101,2.3101,2.3101,2.3101,2.3101,2.3101,2.3101,2.3101,2.3101,2.3101,2.3101,2.3101,2.3101,2.3101,2.3101,2.3101,2.3101,2.3101,2.3101,2.3101,2.3101,2.3101,2.3101,2.3101,2.3101,2.3101,2.3101,2.3101,2.3101,2.3101,2.3101,2.3101,2.3101,2.3101,2.3101,2.3101,2.3135,2.3387,2.4092,2.484,2.5094,2.5797,2.6513,2.7261,2.8383,2.9,2.8727,2.8597,2.9275,2.9779,2.9779,2.9779,2.9779,2.9779,2.9779,2.9779,2.9779,2.9779,2.9779,2.9779,2.9779,2.9779,2.9779,2.9779,2.9779,2.9779,2.9779,2.9779,2.9779,2.9779,2.9779,2.9779,2.9779,2.9779,2.9779,2.9779,2.9779,2.9779,2.5469,2.5693,2.5703,2.5586,2.5342,2.5184,2.4814,2.4394,2.3965,2.3545,2.3159,2.3101,2.3101,2.3149,2.3325,2.3315,2.3188,2.3369,2.3296,2.312,2.3101,2.3101,2.3101,2.3101,2.3101,2.3101,2.3101,2.3101,2.3101,2.3101,2.3101,2.3101,2.3101,2.3101,2.3101,2.3101,2.3101,2.3101,2.3101,2.3101,2.3101,2.3101,2.3101,2.3101,2.3101,2.3101,2.3101,2.3101,2.3101,2.3101,2.3101,2.3101,2.3101,2.3101,2.3101,2.3101,2.3101,2.3101,2.3101,2.3101,2.3101,2.3101,2.3101,2.3101,2.3101,2.3101,2.3101,2.3101,2.3101,2.3101,2.3101,2.3101,2.3101,2.3101,2.3101,2.3714,2.4211,2.393,2.4307,2.4978,2.5694,2.6719,2.7758,2.7947,2.8187,2.9236,2.9702,2.9779,2.9779,2.9779,2.9779,2.9779,2.9779,2.9779,2.9779,2.9779,2.9779,2.9779,2.9779,2.9779,2.9779,2.9779,2.9779,2.9779,2.9779,2.9779,2.9779,2.9779,2.9779,2.9779,2.9779,2.9779,2.9779,2.9779,2.9792,2.5059,2.5145,2.5439,2.543,2.5225,2.5117,2.4814,2.4385,2.3975,2.3545,2.3188,2.311,2.3149,2.334,2.3594,2.3535,2.314,2.3594,2.3477,2.3227,2.3101,2.3101,2.3101,2.3101,2.3101,2.3101,2.3101,2.3101,2.3101,2.3101,2.3101,2.3101,2.3101,2.3101,2.3101,2.3101,2.3101,2.3101,2.3101,2.3101,2.3101,2.3101,2.3101,2.3101,2.3101,2.3101,2.3101,2.3101,2.3101,2.3101,2.3101,2.3101,2.3101,2.3101,2.3101,2.3101,2.3101,2.3101,2.3101,2.3101,2.3101,2.3101,2.3101,2.3101,2.3101,2.3101,2.3101,2.3101,2.3101,2.3101,2.3101,2.3101,2.3101,2.3101,2.3091,2.3671,2.4049,2.3724,2.3517,2.3973,2.452,2.4808,2.5808,2.6707,2.7695,2.8988,2.9534,2.9702,2.9663,2.9534,2.9495,2.9417,2.9275,2.9404,2.9779,2.9779,2.9779,2.9779,2.9779,2.9779,2.9779,2.9779,2.9779,2.9779,2.9779,2.9779,2.9779,2.9779,2.9779,2.9779,2.9779,2.9779,2.9779,2.9779,2.9792,2.5059,2.5116,2.5145,2.5312,2.5538,2.5282,2.4805,2.4336,2.3955,2.3545,2.313,2.311,2.3296,2.3643,2.3721,2.3603,2.312,2.3594,2.3496,2.3237,2.3101,2.3101,2.3101,2.3101,2.3101,2.3101,2.3101,2.3101,2.3101,2.3101,2.3101,2.3101,2.3101,2.3101,2.3101,2.3101,2.3101,2.3101,2.3101,2.3101,2.3101,2.3101,2.3101,2.3101,2.3101,2.3101,2.3101,2.3101,2.3101,2.3101,2.3101,2.3101,2.3101,2.3101,2.3101,2.3101,2.3101,2.3101,2.3101,2.3101,2.3101,2.3101,2.3101,2.3101,2.3101,2.3101,2.3101,2.3101,2.3101,2.3101,2.3101,2.3101,2.3101,2.3101,2.3101,2.3266,2.3507,2.343,2.3266,2.3266,2.356,2.3983,2.4478,2.5504,2.6707,2.7988,2.8712,2.8831,2.8961,2.8922,2.8922,2.8831,2.8557,2.8846,2.965,2.9779,2.9779,2.9779,2.9779,2.9779,2.9779,2.9779,2.9792,2.9779,2.9779,2.9779,2.9779,2.9779,2.9779,2.9779,2.9779,2.9779,2.9779,2.9779,2.9779,2.5059,2.5039,2.4785,2.4766,2.4912,2.4736,2.4424,2.4053,2.3857,2.3545,2.312,2.311,2.3188,2.3496,2.3955,2.3779,2.3276,2.3896,2.3652,2.3286,2.3101,2.3101,2.3101,2.3101,2.3101,2.3101,2.3101,2.3101,2.3101,2.3101,2.3101,2.3101,2.3101,2.3101,2.3101,2.3101,2.3101,2.3101,2.3101,2.3101,2.3101,2.3101,2.3101,2.3101,2.3101,2.3101,2.3101,2.3101,2.3101,2.3101,2.3101,2.3101,2.3101,2.3101,2.3101,2.3101,2.3101,2.3101,2.3101,2.3101,2.3101,2.3101,2.3101,2.3101,2.3101,2.3101,2.3101,2.3101,2.3101,2.3101,2.3101,2.3101,2.3101,2.3101,2.3101,2.3101,2.3101,2.3101,2.3091,2.3178,2.3178,2.3353,2.3887,2.4467,2.5672,2.6871,2.7504,2.8011,2.8131,2.8011,2.7879,2.8251,2.8108,2.8518,2.9314,2.9573,2.9779,2.9779,2.974,2.9702,2.9702,2.9792,2.9792,2.9792,2.9779,2.9779,2.9779,2.9779,2.9779,2.9779,2.9779,2.9779,2.9779,2.9779,2.9779,2.5194,2.5166,2.4521,2.4307,2.4404,2.4424,2.418,2.3838,2.3799,2.373,2.3452,2.3364,2.3374,2.3627,2.4007,2.3871,2.351,2.3822,2.373,2.3442,2.3227,2.3188,2.314,2.3101,2.3101,2.3101,2.3101,2.3101,2.3101,2.3101,2.3101,2.3101,2.3101,2.3101,2.3101,2.3101,2.3101,2.3101,2.3101,2.3101,2.3101,2.3101,2.3101,2.3101,2.3101,2.3101,2.3101,2.3101,2.3101,2.3101,2.3101,2.3101,2.3101,2.3101,2.3101,2.3101,2.3101,2.3101,2.3101,2.3101,2.3101,2.3101,2.3101,2.3101,2.3101,2.3101,2.3101,2.3101,2.3101,2.3101,2.3101,2.3101,2.3101,2.3101,2.3101,2.3101,2.3101,2.3101,2.3101,2.3135,2.3144,2.3144,2.3309,2.3887,2.4967,2.588,2.6171,2.6842,2.7342,2.7017,2.6431,2.7046,2.7706,2.8319,2.8988,2.9404,2.974,2.9573,2.9534,2.9534,2.9546,2.9585,2.9714,2.9792,2.9779,2.9779,2.9779,2.9779,2.9779,2.9779,2.9779,2.9779,2.9779,2.9779,2.9779,2.5322,2.5499,2.4375,2.4082,2.4355,2.4404,2.4131,2.375,2.3779,2.3945,2.4131,2.3896,2.3965,2.4238,2.4375,2.391,2.35,2.3975,2.3916,2.3325,2.3335,2.3354,2.3218,2.3101,2.3101,2.3101,2.3101,2.3101,2.3101,2.3101,2.3101,2.3101,2.3101,2.3101,2.3101,2.3101,2.3101,2.3101,2.3101,2.3101,2.3101,2.3101,2.3101,2.3101,2.3101,2.3101,2.3101,2.3101,2.3101,2.3101,2.3101,2.3101,2.3101,2.3101,2.3101,2.3101,2.3101,2.3101,2.3101,2.3101,2.3101,2.3101,2.3101,2.3101,2.3101,2.3101,2.3101,2.3101,2.3101,2.3101,2.3101,2.3101,2.3101,2.3101,2.3101,2.3101,2.3101,2.3101,2.3101,2.3101,2.3101,2.3101,2.3101,2.343,2.4435,2.5062,2.5083,2.5588,2.6389,2.5975,2.5305,2.6307,2.7221,2.7504,2.8159,2.9248,2.9663,2.9456,2.9236,2.9118,2.8988,2.8858,2.9106,2.9573,2.9779,2.9779,2.9779,2.9779,2.9779,2.9779,2.9779,2.9779,2.9779,2.9779,2.9779,2.542,2.5254,2.4814,2.4385,2.4004,2.3637,2.3477,2.3428,2.3652,2.3877,2.4023,2.4092,2.4258,2.4394,2.4375,2.4092,2.3721,2.3682,2.3603,2.3198,2.3359,2.3218,2.312,2.3101,2.3101,2.3101,2.3101,2.3101,2.3101,2.3101,2.3101,2.3101,2.3101,2.3101,2.3101,2.3101,2.3101,2.3101,2.3101,2.3101,2.3101,2.3101,2.3101,2.3101,2.3101,2.3101,2.3101,2.3101,2.3101,2.3101,2.3101,2.3101,2.3101,2.3101,2.3101,2.3101,2.3101,2.3101,2.3101,2.3101,2.3101,2.3101,2.3101,2.3101,2.3101,2.3101,2.3101,2.3101,2.3101,2.3101,2.3101,2.3101,2.3101,2.3101,2.3101,2.3101,2.3101,2.3101,2.3101,2.3101,2.3101,2.3101,2.3101,2.3101,2.3897,2.4102,2.4135,2.501,2.5891,2.4978,2.4221,2.5724,2.673,2.676,2.7261,2.8291,2.8502,2.8011,2.8199,2.8466,2.8295,2.8255,2.8846,2.9495,2.9663,2.9779,2.9779,2.9779,2.9779,2.9779,2.9854,2.9829,2.9779,2.9779,2.9779,2.5566,2.5283,2.5174,2.4668,2.3994,2.3545,2.3247,2.3198,2.3594,2.3857,2.4082,2.4453,2.4541,2.4463,2.4385,2.4043,2.3633,2.373,2.3555,2.3169,2.3296,2.3237,2.3159,2.3101,2.3101,2.3101,2.3101,2.3101,2.3101,2.3101,2.3101,2.3101,2.3101,2.3101,2.3101,2.3101,2.3101,2.3101,2.3101,2.3101,2.3101,2.3101,2.3101,2.3101,2.3101,2.3101,2.3101,2.3101,2.3101,2.3101,2.3101,2.3101,2.3101,2.3101,2.3101,2.3101,2.3101,2.3101,2.3101,2.3101,2.3101,2.3101,2.3101,2.3101,2.3101,2.3101,2.3101,2.3101,2.3101,2.3101,2.3101,2.3101,2.3101,2.3101,2.3101,2.3101,2.3101,2.3101,2.3101,2.3101,2.3101,2.3101,2.3101,2.3101,2.3353,2.3266,2.3178,2.4264,2.5179,2.4264,2.3517,2.4734,2.5808,2.588,2.6337,2.7261,2.7221,2.6607,2.6871,2.7308,2.7844,2.7855,2.8648,2.9365,2.9573,2.9702,2.9779,2.9779,2.9779,2.9892,3.0055,2.998,2.9829,2.9867,2.9942,2.5684,2.5615,2.5264,2.4834,2.4375,2.3877,2.3477,2.314,2.3603,2.4014,2.4378,2.4785,2.4775,2.4492,2.4424,2.3965,2.3418,2.3613,2.3428,2.3276,2.3364,2.3286,2.3179,2.3101,2.3101,2.3101,2.3101,2.3101,2.3101,2.3101,2.3101,2.3101,2.3101,2.3101,2.3101,2.3101,2.3101,2.3101,2.3101,2.3101,2.3101,2.3101,2.3101,2.3101,2.3101,2.3101,2.3101,2.3101,2.3101,2.3101,2.3101,2.3101,2.3101,2.3101,2.3101,2.3101,2.3101,2.3101,2.3101,2.3101,2.3101,2.3101,2.3101,2.3101,2.3101,2.3101,2.3101,2.3101,2.3101,2.3101,2.3101,2.3101,2.3101,2.3101,2.3101,2.3101,2.3101,2.3101,2.3101,2.3101,2.3101,2.3101,2.3101,2.3101,2.3179,2.3101,2.3101,2.3266,2.3973,2.3844,2.3309,2.3474,2.4392,2.483,2.5462,2.6318,2.6058,2.5526,2.5504,2.59,2.6562,2.7319,2.7787,2.841,2.9287,2.965,2.974,2.9779,2.9779,2.993,3.0143,3.0244,3.0131,3.0206,3.0244,2.5684,2.5674,2.5596,2.5107,2.4355,2.3643,2.3208,2.3159,2.3594,2.4023,2.4424,2.4541,2.4678,2.4824,2.4248,2.3857,2.3603,2.3408,2.3271,2.3252,2.3266,2.3188,2.314,2.3101,2.3101,2.3101,2.3101,2.3101,2.3101,2.3101,2.3101,2.3101,2.3101,2.3101,2.3101,2.3101,2.3101,2.3101,2.3101,2.3101,2.3101,2.3101,2.3101,2.3101,2.3101,2.3101,2.3101,2.3101,2.3101,2.3101,2.3101,2.3101,2.3101,2.3101,2.3101,2.3101,2.3101,2.3101,2.3101,2.3101,2.3101,2.3101,2.3101,2.3101,2.3101,2.3101,2.3101,2.3101,2.3101,2.3101,2.3101,2.3101,2.3101,2.3101,2.3101,2.3101,2.3101,2.3101,2.3101,2.313,2.313,2.3208,2.3188,2.3266,2.3325,2.3179,2.313,2.3188,2.314,2.3149,2.3242,2.3374,2.3714,2.4364,2.4615,2.5316,2.4914,2.452,2.4542,2.4787,2.5493,2.6202,2.676,2.7545,2.853,2.9236,2.974,2.9829,2.9967,3.0018,3.0193,3.0344,3.0482,3.0595,3.0708,2.5586,2.5674,2.5684,2.5177,2.4385,2.3691,2.3276,2.3198,2.3603,2.4023,2.4394,2.4434,2.456,2.4629,2.4111,2.3691,2.3477,2.3247,2.311,2.311,2.3101,2.3101,2.3101,2.3101,2.3101,2.3101,2.3101,2.3101,2.3101,2.3101,2.3101,2.3101,2.3101,2.311,2.3101,2.3101,2.3101,2.3101,2.3101,2.3101,2.3101,2.3101,2.3101,2.3101,2.3101,2.3101,2.3101,2.3101,2.3101,2.3101,2.3101,2.3101,2.3101,2.3101,2.3101,2.3101,2.3101,2.3101,2.3101,2.3101,2.3101,2.3101,2.3101,2.3101,2.3101,2.3101,2.3101,2.3101,2.3101,2.3101,2.3101,2.3101,2.3101,2.3101,2.3101,2.3101,2.3101,2.3101,2.312,2.3159,2.3237,2.3335,2.3403,2.3491,2.3584,2.3564,2.3608,2.3764,2.3559,2.3296,2.3374,2.3521,2.3767,2.4176,2.4357,2.451,2.4229,2.4015,2.38,2.4092,2.4681,2.5368,2.6113,2.6958,2.7815,2.859,2.9382,2.9988,3.0231,3.024,3.0528,3.1072,3.1223,3.1148,3.1235,2.5342,2.5615,2.5596,2.504,2.4355,2.3857,2.3477,2.3169,2.3545,2.3965,2.4287,2.4261,2.4268,2.4258,2.3848,2.3486,2.332,2.312,2.3101,2.3101,2.3101,2.3101,2.3101,2.3101,2.3101,2.3101,2.3101,2.3101,2.311,2.3188,2.3257,2.3149,2.3286,2.3374,2.3422,2.3286,2.3266,2.3266,2.3169,2.3101,2.3101,2.3101,2.3101,2.3101,2.3101,2.3101,2.3101,2.3101,2.3101,2.3101,2.3101,2.3101,2.3101,2.3101,2.3101,2.3101,2.3101,2.3101,2.3101,2.3101,2.3101,2.3101,2.3101,2.3101,2.3101,2.3101,2.3101,2.3101,2.3101,2.3101,2.3101,2.3101,2.3101,2.3101,2.3101,2.3198,2.3359,2.3393,2.3559,2.3617,2.3789,2.3857,2.3725,2.3812,2.3965,2.3955,2.4014,2.4209,2.4066,2.3666,2.3686,2.3818,2.3988,2.4177,2.4177,2.4217,2.39,2.3604,2.3501,2.3731,2.4527,2.5079,2.556,2.6576,2.7584,2.8244,2.8964,2.9569,3.0109,3.0394,3.0831,3.1805,3.2014,3.1788,3.1888,2.543,2.5243,2.4873,2.4414,2.3906,2.3477,2.3208,2.3101,2.3188,2.3555,2.3828,2.3652,2.3682,2.3906,2.3545,2.3198,2.314,2.3101,2.3101,2.3101,2.3101,2.3101,2.3101,2.3101,2.3101,2.3101,2.3101,2.3101,2.3149,2.3389,2.3633,2.3662,2.3818,2.3975,2.3955,2.3789,2.3623,2.3613,2.3374,2.3227,2.3159,2.312,2.3101,2.3101,2.3101,2.3101,2.3101,2.3101,2.3101,2.3101,2.3101,2.3101,2.3101,2.3101,2.3101,2.3101,2.3101,2.3101,2.3101,2.3101,2.3101,2.3101,2.3101,2.3101,2.3101,2.3101,2.3101,2.3101,2.3101,2.3101,2.3101,2.3101,2.3101,2.3101,2.311,2.335,2.3564,2.3818,2.3988,2.4114,2.4307,2.4297,2.4144,2.4173,2.4297,2.4326,2.4316,2.4394,2.4463,2.4268,2.4261,2.4355,2.4277,2.4313,2.4277,2.4228,2.4102,2.4053,2.401,2.422,2.4476,2.4739,2.5225,2.64,2.741,2.7858,2.84,2.9153,2.966,3.0174,3.0974,3.1843,3.2394,3.234,3.2541,2.501,2.4746,2.4521,2.418,2.3789,2.3516,2.3286,2.312,2.3101,2.3227,2.3457,2.3247,2.3335,2.3672,2.3286,2.3101,2.3101,2.3101,2.3101,2.3101,2.3101,2.3101,2.3101,2.3101,2.3101,2.3101,2.3101,2.312,2.3227,2.3525,2.3779,2.3896,2.4219,2.4453,2.4414,2.418,2.4062,2.4043,2.3769,2.3549,2.3383,2.3257,2.312,2.3101,2.3101,2.3101,2.3101,2.3101,2.3101,2.3101,2.3101,2.3101,2.3101,2.3101,2.3101,2.3101,2.3101,2.3101,2.3101,2.3101,2.3101,2.3101,2.3101,2.3101,2.3101,2.3101,2.3101,2.3101,2.3101,2.3101,2.3101,2.3101,2.3101,2.3101,2.314,2.3266,2.3769,2.4228,2.4307,2.4307,2.4531,2.4805,2.4719,2.4855,2.4941,2.4814,2.4785,2.4941,2.4941,2.4824,2.4873,2.4873,2.4775,2.4717,2.4707,2.4658,2.457,2.4541,2.4521,2.4477,2.4526,2.4474,2.488,2.6031,2.6827,2.7063,2.7655,2.8479,2.9472,3.0155,3.0985,3.1865,3.232,3.2792,3.288,2.4404,2.4346,2.4336,2.4092,2.374,2.3691,2.3486,2.313,2.3101,2.3101,2.313,2.312,2.3398,2.3447,2.335,2.3179,2.3101,2.3101,2.3101,2.3101,2.3101,2.3101,2.3101,2.3101,2.3159,2.3227,2.3266,2.3335,2.3442,2.3867,2.4141,2.4072,2.4287,2.4609,2.458,2.4521,2.4502,2.4453,2.4297,2.4141,2.3848,2.3496,2.3296,2.3198,2.314,2.314,2.312,2.3101,2.3101,2.3101,2.3101,2.3101,2.3101,2.3101,2.3101,2.3101,2.3101,2.3101,2.3101,2.3101,2.3101,2.3101,2.3091,2.3003,2.2916,2.3027,2.3027,2.2662,2.2662,2.3076,2.3033,2.312,2.312,2.3296,2.3344,2.3491,2.4121,2.4668,2.4678,2.4629,2.4873,2.5205,2.5265,2.5411,2.543,2.5312,2.5361,2.5576,2.5596,2.5382,2.5284,2.5265,2.5196,2.5195,2.5156,2.5078,2.501,2.5,2.4951,2.469,2.4582,2.4824,2.5154,2.5619,2.6256,2.647,2.7033,2.7849,2.8868,2.9843,3.0878,3.1702,3.258,3.3011,3.3061,2.4219,2.3916,2.3906,2.3662,2.3266,2.3227,2.3169,2.311,2.3101,2.3101,2.3101,2.3101,2.3169,2.3262,2.3159,2.3101,2.3101,2.3101,2.3101,2.3101,2.3101,2.3101,2.3179,2.3325,2.3408,2.3535,2.3701,2.3857,2.39,2.4434,2.4785,2.4766,2.5205,2.54,2.5381,2.5234,2.4941,2.4883,2.4678,2.4463,2.4404,2.4072,2.3676,2.3539,2.3442,2.3325,2.3208,2.311,2.3101,2.3101,2.3101,2.3101,2.3101,2.3091,2.3047,2.2818,2.2818,2.2687,2.2643,2.2545,2.2457,2.2545,2.2403,2.2217,2.2365,2.2735,2.2257,2.1095,2.1365,2.2659,2.2934,2.3145,2.3218,2.3779,2.4033,2.4346,2.4805,2.5166,2.5304,2.5294,2.5362,2.5499,2.5518,2.5596,2.5586,2.5557,2.5557,2.5684,2.5684,2.5684,2.5684,2.5625,2.5547,2.5596,2.5547,2.5518,2.5449,2.5439,2.5343,2.5177,2.5187,2.5421,2.5747,2.5822,2.5807,2.5916,2.6584,2.7144,2.8099,2.9138,3.05,3.1565,3.2438,3.2921,3.276]}]]